<?xml version='1.0' encoding='UTF-8'?><gpx version="1.1" creator="JPX - https://github.com/jenetics/jpx" xmlns="http://www.topografix.com/GPX/1/1"><trk><trkseg><trkpt lat="43.4670133" lon="11.5670133"><ele>468.0</ele><time>2026-05-03T10:40:56.661Z</time></trkpt><trkpt lat="43.4668717" lon="11.5669667"><ele>468.0</ele><time>2026-05-03T10:41:02.662Z</time></trkpt><trkpt lat="43.4667417" lon="11.5671233"><ele>468.0</ele><time>2026-05-03T10:41:07.662Z</time></trkpt><trkpt lat="43.4667017" lon="11.567235"><ele>468.0</ele><time>2026-05-03T10:41:10.662Z</time></trkpt><trkpt lat="43.4666983" lon="11.567345"><ele>468.0</ele><time>2026-05-03T10:41:12.662Z</time></trkpt><trkpt lat="43.466705" lon="11.567465"><ele>467.99999999999994</ele><time>2026-05-03T10:41:14.662Z</time></trkpt><trkpt lat="43.4667333" lon="11.5676183"><ele>467.99999999999994</ele><time>2026-05-03T10:41:16.661Z</time></trkpt><trkpt lat="43.4667783" lon="11.5677683"><ele>468.0</ele><time>2026-05-03T10:41:18.661Z</time></trkpt><trkpt lat="43.4668217" lon="11.5678967"><ele>468.0</ele><time>2026-05-03T10:41:20.661Z</time></trkpt><trkpt lat="43.4668767" lon="11.56798"><ele>466.6666666666667</ele><time>2026-05-03T10:41:22.661Z</time></trkpt><trkpt lat="43.46691" lon="11.568075"><ele>465.33333333333337</ele><time>2026-05-03T10:41:25.661Z</time></trkpt><trkpt lat="43.466895" lon="11.56819"><ele>464.0</ele><time>2026-05-03T10:41:28.662Z</time></trkpt><trkpt lat="43.4668983" lon="11.5682867"><ele>462.6666666666667</ele><time>2026-05-03T10:41:30.661Z</time></trkpt><trkpt lat="43.46691" lon="11.56838"><ele>461.33333333333337</ele><time>2026-05-03T10:41:32.662Z</time></trkpt><trkpt lat="43.4669367" lon="11.5684833"><ele>460.0</ele><time>2026-05-03T10:41:35.662Z</time></trkpt><trkpt lat="43.4669817" lon="11.56857"><ele>460.0</ele><time>2026-05-03T10:41:39.661Z</time></trkpt><trkpt lat="43.4669667" lon="11.568655"><ele>460.0</ele><time>2026-05-03T10:41:43.662Z</time></trkpt><trkpt lat="43.4669133" lon="11.568715"><ele>460.0</ele><time>2026-05-03T10:41:45.662Z</time></trkpt><trkpt lat="43.4668267" lon="11.5688667"><ele>460.0</ele><time>2026-05-03T10:41:47.662Z</time></trkpt><trkpt lat="43.4667817" lon="11.5689683"><ele>460.0</ele><time>2026-05-03T10:41:48.662Z</time></trkpt><trkpt lat="43.4667283" lon="11.5690817"><ele>459.00000000000006</ele><time>2026-05-03T10:41:49.661Z</time></trkpt><trkpt lat="43.4666733" lon="11.5692017"><ele>458.0</ele><time>2026-05-03T10:41:50.662Z</time></trkpt><trkpt lat="43.4666283" lon="11.5693167"><ele>457.0</ele><time>2026-05-03T10:41:51.661Z</time></trkpt><trkpt lat="43.466585" lon="11.56942"><ele>456.0</ele><time>2026-05-03T10:41:52.661Z</time></trkpt><trkpt lat="43.4665467" lon="11.5695067"><ele>455.00000000000006</ele><time>2026-05-03T10:41:53.662Z</time></trkpt><trkpt lat="43.466505" lon="11.5695883"><ele>454.0</ele><time>2026-05-03T10:41:54.662Z</time></trkpt><trkpt lat="43.4664583" lon="11.569655"><ele>454.83333333333337</ele><time>2026-05-03T10:41:55.662Z</time></trkpt><trkpt lat="43.46635" lon="11.569725"><ele>455.6666666666667</ele><time>2026-05-03T10:41:57.662Z</time></trkpt><trkpt lat="43.466295" lon="11.5697683"><ele>456.5</ele><time>2026-05-03T10:41:58.661Z</time></trkpt><trkpt lat="43.46624" lon="11.569815"><ele>457.33333333333337</ele><time>2026-05-03T10:41:59.661Z</time></trkpt><trkpt lat="43.4661717" lon="11.56987"><ele>458.1666666666667</ele><time>2026-05-03T10:42:00.661Z</time></trkpt><trkpt lat="43.4661" lon="11.56991"><ele>459.0</ele><time>2026-05-03T10:42:01.662Z</time></trkpt><trkpt lat="43.4660283" lon="11.5699417"><ele>459.0</ele><time>2026-05-03T10:42:02.661Z</time></trkpt><trkpt lat="43.4659583" lon="11.569965"><ele>459.0</ele><time>2026-05-03T10:42:03.661Z</time></trkpt><trkpt lat="43.4658917" lon="11.5699817"><ele>459.0</ele><time>2026-05-03T10:42:04.662Z</time></trkpt><trkpt lat="43.4658283" lon="11.570005"><ele>459.0</ele><time>2026-05-03T10:42:05.661Z</time></trkpt><trkpt lat="43.4657317" lon="11.5701167"><ele>459.0</ele><time>2026-05-03T10:42:07.661Z</time></trkpt><trkpt lat="43.46567" lon="11.5702683"><ele>457.0</ele><time>2026-05-03T10:42:09.662Z</time></trkpt><trkpt lat="43.4656083" lon="11.5703817"><ele>455.0</ele><time>2026-05-03T10:42:11.662Z</time></trkpt><trkpt lat="43.46553" lon="11.5704867"><ele>453.0</ele><time>2026-05-03T10:42:13.662Z</time></trkpt><trkpt lat="43.4654383" lon="11.5706183"><ele>451.0</ele><time>2026-05-03T10:42:15.661Z</time></trkpt><trkpt lat="43.46539" lon="11.570765"><ele>451.00000000000006</ele><time>2026-05-03T10:42:17.662Z</time></trkpt><trkpt lat="43.465365" lon="11.5708817"><ele>451.0</ele><time>2026-05-03T10:42:19.661Z</time></trkpt><trkpt lat="43.4653558" lon="11.5709906"><ele>451.0</ele><time>2026-05-03T10:42:21.662Z</time></trkpt><trkpt lat="43.4653584" lon="11.5710853"><ele>451.0</ele><time>2026-05-03T10:42:23.662Z</time></trkpt><trkpt lat="43.4653475" lon="11.571206"><ele>451.00000000000006</ele><time>2026-05-03T10:42:27.669Z</time></trkpt><trkpt lat="43.4653421" lon="11.5713009"><ele>451.0</ele><time>2026-05-03T10:42:30.741Z</time></trkpt><trkpt lat="43.4652541" lon="11.5713596"><ele>448.6</ele><time>2026-05-03T10:42:34.689Z</time></trkpt><trkpt lat="43.4651659" lon="11.5714968"><ele>446.20000000000005</ele><time>2026-05-03T10:42:36.662Z</time></trkpt><trkpt lat="43.4651123" lon="11.5715709"><ele>443.79999999999995</ele><time>2026-05-03T10:42:37.661Z</time></trkpt><trkpt lat="43.465061" lon="11.5716411"><ele>441.4</ele><time>2026-05-03T10:42:38.662Z</time></trkpt><trkpt lat="43.4650072" lon="11.57169"><ele>439.0</ele><time>2026-05-03T10:42:39.661Z</time></trkpt><trkpt lat="43.4648994" lon="11.5717675"><ele>439.0</ele><time>2026-05-03T10:42:41.662Z</time></trkpt><trkpt lat="43.4648407" lon="11.5718123"><ele>439.0</ele><time>2026-05-03T10:42:42.662Z</time></trkpt><trkpt lat="43.4647837" lon="11.5718604"><ele>439.0</ele><time>2026-05-03T10:42:43.662Z</time></trkpt><trkpt lat="43.4647016" lon="11.5719393"><ele>439.0</ele><time>2026-05-03T10:42:45.662Z</time></trkpt><trkpt lat="43.4646562" lon="11.5719997"><ele>439.0</ele><time>2026-05-03T10:42:47.661Z</time></trkpt><trkpt lat="43.4646912" lon="11.5720845"><ele>439.0</ele><time>2026-05-03T10:42:52.61Z</time></trkpt><trkpt lat="43.4647685" lon="11.5720627"><ele>439.0</ele><time>2026-05-03T10:42:54.707Z</time></trkpt><trkpt lat="43.4648783" lon="11.5720174"><ele>439.00000000000006</ele><time>2026-05-03T10:42:56.661Z</time></trkpt><trkpt lat="43.4649406" lon="11.5719954"><ele>439.0</ele><time>2026-05-03T10:42:57.661Z</time></trkpt><trkpt lat="43.4650609" lon="11.5719809"><ele>439.0</ele><time>2026-05-03T10:42:59.662Z</time></trkpt><trkpt lat="43.4651822" lon="11.572002"><ele>439.0</ele><time>2026-05-03T10:43:01.661Z</time></trkpt><trkpt lat="43.4652444" lon="11.5720362"><ele>439.00000000000006</ele><time>2026-05-03T10:43:02.661Z</time></trkpt><trkpt lat="43.4653057" lon="11.5720737"><ele>439.0</ele><time>2026-05-03T10:43:03.661Z</time></trkpt><trkpt lat="43.4653681" lon="11.5721074"><ele>436.6</ele><time>2026-05-03T10:43:04.661Z</time></trkpt><trkpt lat="43.4654273" lon="11.5721425"><ele>434.2</ele><time>2026-05-03T10:43:05.662Z</time></trkpt><trkpt lat="43.4655357" lon="11.5721985"><ele>431.80000000000007</ele><time>2026-05-03T10:43:07.661Z</time></trkpt><trkpt lat="43.4656237" lon="11.5722505"><ele>429.40000000000003</ele><time>2026-05-03T10:43:09.662Z</time></trkpt><trkpt lat="43.4657043" lon="11.5723256"><ele>427.0</ele><time>2026-05-03T10:43:11.661Z</time></trkpt><trkpt lat="43.4657737" lon="11.5724497"><ele>425.8</ele><time>2026-05-03T10:43:13.661Z</time></trkpt><trkpt lat="43.4658484" lon="11.5725689"><ele>424.6</ele><time>2026-05-03T10:43:15.661Z</time></trkpt><trkpt lat="43.4659162" lon="11.5726768"><ele>423.40000000000003</ele><time>2026-05-03T10:43:17.662Z</time></trkpt><trkpt lat="43.4660001" lon="11.5727908"><ele>422.20000000000005</ele><time>2026-05-03T10:43:19.661Z</time></trkpt><trkpt lat="43.4660448" lon="11.5728553"><ele>421.0</ele><time>2026-05-03T10:43:20.661Z</time></trkpt><trkpt lat="43.4661363" lon="11.5729541"><ele>419.1666666666667</ele><time>2026-05-03T10:43:22.662Z</time></trkpt><trkpt lat="43.4662276" lon="11.5730346"><ele>417.33333333333337</ele><time>2026-05-03T10:43:24.662Z</time></trkpt><trkpt lat="43.4662991" lon="11.573078"><ele>415.5</ele><time>2026-05-03T10:43:26.662Z</time></trkpt><trkpt lat="43.46637" lon="11.5730897"><ele>413.66666666666663</ele><time>2026-05-03T10:43:29.662Z</time></trkpt><trkpt lat="43.4664441" lon="11.5730331"><ele>411.8333333333333</ele><time>2026-05-03T10:43:32.661Z</time></trkpt><trkpt lat="43.4664788" lon="11.572936"><ele>410.0</ele><time>2026-05-03T10:43:34.662Z</time></trkpt><trkpt lat="43.4664992" lon="11.5727976"><ele>409.99999999999994</ele><time>2026-05-03T10:43:36.662Z</time></trkpt><trkpt lat="43.4664929" lon="11.5726657"><ele>410.0</ele><time>2026-05-03T10:43:38.662Z</time></trkpt><trkpt lat="43.4664912" lon="11.5725614"><ele>410.0</ele><time>2026-05-03T10:43:40.661Z</time></trkpt><trkpt lat="43.4665117" lon="11.5724539"><ele>410.0</ele><time>2026-05-03T10:43:42.661Z</time></trkpt><trkpt lat="43.4665528" lon="11.5723757"><ele>409.99999999999994</ele><time>2026-05-03T10:43:44.662Z</time></trkpt><trkpt lat="43.4666339" lon="11.5723457"><ele>410.0</ele><time>2026-05-03T10:43:46.662Z</time></trkpt><trkpt lat="43.4667483" lon="11.5723784"><ele>409.99999999999994</ele><time>2026-05-03T10:43:48.661Z</time></trkpt><trkpt lat="43.4668134" lon="11.5724058"><ele>410.0</ele><time>2026-05-03T10:43:49.661Z</time></trkpt><trkpt lat="43.4668866" lon="11.5724426"><ele>410.0</ele><time>2026-05-03T10:43:50.661Z</time></trkpt><trkpt lat="43.4669696" lon="11.5724782"><ele>410.0</ele><time>2026-05-03T10:43:51.662Z</time></trkpt><trkpt lat="43.4670649" lon="11.5725165"><ele>409.99999999999994</ele><time>2026-05-03T10:43:52.661Z</time></trkpt><trkpt lat="43.467167" lon="11.5725495"><ele>410.0</ele><time>2026-05-03T10:43:53.661Z</time></trkpt><trkpt lat="43.4672599" lon="11.5725754"><ele>409.6</ele><time>2026-05-03T10:43:54.662Z</time></trkpt><trkpt lat="43.4673377" lon="11.5725883"><ele>409.2</ele><time>2026-05-03T10:43:55.661Z</time></trkpt><trkpt lat="43.4674375" lon="11.5725833"><ele>408.79999999999995</ele><time>2026-05-03T10:43:57.661Z</time></trkpt><trkpt lat="43.4675331" lon="11.5725245"><ele>408.4</ele><time>2026-05-03T10:43:59.661Z</time></trkpt><trkpt lat="43.4676301" lon="11.5724573"><ele>408.0</ele><time>2026-05-03T10:44:01.662Z</time></trkpt><trkpt lat="43.467696" lon="11.5723652"><ele>408.0</ele><time>2026-05-03T10:44:03.662Z</time></trkpt><trkpt lat="43.4677495" lon="11.5722663"><ele>408.0</ele><time>2026-05-03T10:44:05.661Z</time></trkpt><trkpt lat="43.4677804" lon="11.5721514"><ele>408.0</ele><time>2026-05-03T10:44:07.662Z</time></trkpt><trkpt lat="43.4677787" lon="11.5720187"><ele>408.0</ele><time>2026-05-03T10:44:09.662Z</time></trkpt><trkpt lat="43.4677586" lon="11.5718977"><ele>408.0</ele><time>2026-05-03T10:44:11.661Z</time></trkpt><trkpt lat="43.4676864" lon="11.5717506"><ele>408.0</ele><time>2026-05-03T10:44:14.662Z</time></trkpt><trkpt lat="43.4676395" lon="11.5716313"><ele>408.0</ele><time>2026-05-03T10:44:17.661Z</time></trkpt><trkpt lat="43.4676598" lon="11.5715149"><ele>408.0</ele><time>2026-05-03T10:44:19.662Z</time></trkpt><trkpt lat="43.467715" lon="11.5713947"><ele>408.0</ele><time>2026-05-03T10:44:21.661Z</time></trkpt><trkpt lat="43.4677747" lon="11.5712891"><ele>408.0</ele><time>2026-05-03T10:44:23.662Z</time></trkpt><trkpt lat="43.4678363" lon="11.5711796"><ele>408.79999999999995</ele><time>2026-05-03T10:44:25.661Z</time></trkpt><trkpt lat="43.467863" lon="11.5710435"><ele>409.6</ele><time>2026-05-03T10:44:27.662Z</time></trkpt><trkpt lat="43.4678699" lon="11.5708351"><ele>410.4</ele><time>2026-05-03T10:44:30.662Z</time></trkpt><trkpt lat="43.467877" lon="11.5707456"><ele>411.20000000000005</ele><time>2026-05-03T10:44:32.661Z</time></trkpt><trkpt lat="43.4679662" lon="11.5706878"><ele>412.0</ele><time>2026-05-03T10:44:35.662Z</time></trkpt><trkpt lat="43.4680919" lon="11.5706831"><ele>410.2857142857143</ele><time>2026-05-03T10:44:37.662Z</time></trkpt><trkpt lat="43.4681584" lon="11.5706707"><ele>408.57142857142856</ele><time>2026-05-03T10:44:38.661Z</time></trkpt><trkpt lat="43.468222" lon="11.5706399"><ele>406.8571428571429</ele><time>2026-05-03T10:44:39.661Z</time></trkpt><trkpt lat="43.4682835" lon="11.5705934"><ele>405.1428571428571</ele><time>2026-05-03T10:44:40.662Z</time></trkpt><trkpt lat="43.4683454" lon="11.5705238"><ele>403.42857142857144</ele><time>2026-05-03T10:44:41.662Z</time></trkpt><trkpt lat="43.468402" lon="11.5704433"><ele>401.7142857142857</ele><time>2026-05-03T10:44:42.662Z</time></trkpt><trkpt lat="43.4684511" lon="11.5703634"><ele>400.0</ele><time>2026-05-03T10:44:43.661Z</time></trkpt><trkpt lat="43.4684845" lon="11.5702834"><ele>400.00000000000006</ele><time>2026-05-03T10:44:44.661Z</time></trkpt><trkpt lat="43.4685128" lon="11.5701164"><ele>400.0</ele><time>2026-05-03T10:44:46.661Z</time></trkpt><trkpt lat="43.4685133" lon="11.5700257"><ele>400.0</ele><time>2026-05-03T10:44:47.661Z</time></trkpt><trkpt lat="43.4685055" lon="11.5699306"><ele>400.0</ele><time>2026-05-03T10:44:48.662Z</time></trkpt><trkpt lat="43.4684959" lon="11.5698344"><ele>400.00000000000006</ele><time>2026-05-03T10:44:49.661Z</time></trkpt><trkpt lat="43.4684858" lon="11.5697381"><ele>400.0</ele><time>2026-05-03T10:44:50.661Z</time></trkpt><trkpt lat="43.4684892" lon="11.5695813"><ele>400.0</ele><time>2026-05-03T10:44:52.661Z</time></trkpt><trkpt lat="43.4685717" lon="11.5695033"><ele>400.0</ele><time>2026-05-03T10:44:54.66Z</time></trkpt><trkpt lat="43.46864" lon="11.5695167"><ele>400.0</ele><time>2026-05-03T10:44:55.661Z</time></trkpt><trkpt lat="43.4687267" lon="11.5695433"><ele>400.0</ele><time>2026-05-03T10:44:56.66Z</time></trkpt><trkpt lat="43.4688233" lon="11.5695783"><ele>400.0</ele><time>2026-05-03T10:44:57.661Z</time></trkpt><trkpt lat="43.4689233" lon="11.5696067"><ele>395.0</ele><time>2026-05-03T10:44:58.66Z</time></trkpt><trkpt lat="43.4690333" lon="11.5696333"><ele>390.0</ele><time>2026-05-03T10:44:59.661Z</time></trkpt><trkpt lat="43.4691333" lon="11.569665"><ele>385.0</ele><time>2026-05-03T10:45:00.661Z</time></trkpt><trkpt lat="43.46923" lon="11.5697133"><ele>380.0</ele><time>2026-05-03T10:45:01.66Z</time></trkpt><trkpt lat="43.4693067" lon="11.56977"><ele>375.0</ele><time>2026-05-03T10:45:02.66Z</time></trkpt><trkpt lat="43.46938" lon="11.5698383"><ele>375.0</ele><time>2026-05-03T10:45:03.661Z</time></trkpt><trkpt lat="43.4694517" lon="11.5699117"><ele>375.0</ele><time>2026-05-03T10:45:04.66Z</time></trkpt><trkpt lat="43.46953" lon="11.5699733"><ele>375.0</ele><time>2026-05-03T10:45:05.661Z</time></trkpt><trkpt lat="43.4696067" lon="11.5700533"><ele>375.0</ele><time>2026-05-03T10:45:06.66Z</time></trkpt><trkpt lat="43.4696767" lon="11.5701233"><ele>375.0</ele><time>2026-05-03T10:45:07.661Z</time></trkpt><trkpt lat="43.46974" lon="11.5701967"><ele>375.0</ele><time>2026-05-03T10:45:08.66Z</time></trkpt><trkpt lat="43.4697967" lon="11.57026"><ele>372.1666666666667</ele><time>2026-05-03T10:45:09.66Z</time></trkpt><trkpt lat="43.469845" lon="11.5703267"><ele>369.3333333333333</ele><time>2026-05-03T10:45:10.66Z</time></trkpt><trkpt lat="43.4699383" lon="11.5704133"><ele>366.5</ele><time>2026-05-03T10:45:12.66Z</time></trkpt><trkpt lat="43.4700633" lon="11.5704183"><ele>363.66666666666663</ele><time>2026-05-03T10:45:14.661Z</time></trkpt><trkpt lat="43.47013" lon="11.57039"><ele>360.8333333333333</ele><time>2026-05-03T10:45:15.661Z</time></trkpt><trkpt lat="43.470195" lon="11.570355"><ele>358.0</ele><time>2026-05-03T10:45:16.661Z</time></trkpt><trkpt lat="43.47026" lon="11.5703133"><ele>358.0</ele><time>2026-05-03T10:45:17.66Z</time></trkpt><trkpt lat="43.47032" lon="11.5702833"><ele>358.0</ele><time>2026-05-03T10:45:18.661Z</time></trkpt><trkpt lat="43.4703917" lon="11.570315"><ele>358.0</ele><time>2026-05-03T10:45:20.66Z</time></trkpt><trkpt lat="43.4704267" lon="11.57042"><ele>358.0</ele><time>2026-05-03T10:45:22.661Z</time></trkpt><trkpt lat="43.470445" lon="11.5705567"><ele>358.0</ele><time>2026-05-03T10:45:24.66Z</time></trkpt><trkpt lat="43.4704733" lon="11.5706833"><ele>358.0</ele><time>2026-05-03T10:45:26.661Z</time></trkpt><trkpt lat="43.4705183" lon="11.570745"><ele>356.0</ele><time>2026-05-03T10:45:28.66Z</time></trkpt><trkpt lat="43.4705917" lon="11.57066"><ele>354.0</ele><time>2026-05-03T10:45:31.66Z</time></trkpt><trkpt lat="43.4706367" lon="11.5705867"><ele>352.0</ele><time>2026-05-03T10:45:32.66Z</time></trkpt><trkpt lat="43.4706883" lon="11.5705017"><ele>350.0</ele><time>2026-05-03T10:45:33.661Z</time></trkpt><trkpt lat="43.4707433" lon="11.57041"><ele>348.0</ele><time>2026-05-03T10:45:34.661Z</time></trkpt><trkpt lat="43.4708067" lon="11.5703083"><ele>346.0</ele><time>2026-05-03T10:45:35.661Z</time></trkpt><trkpt lat="43.47087" lon="11.570215"><ele>345.6</ele><time>2026-05-03T10:45:36.661Z</time></trkpt><trkpt lat="43.4709433" lon="11.5701333"><ele>345.20000000000005</ele><time>2026-05-03T10:45:37.66Z</time></trkpt><trkpt lat="43.4710267" lon="11.5700783"><ele>344.79999999999995</ele><time>2026-05-03T10:45:38.66Z</time></trkpt><trkpt lat="43.4711267" lon="11.5700333"><ele>344.4</ele><time>2026-05-03T10:45:39.66Z</time></trkpt><trkpt lat="43.4712283" lon="11.5699733"><ele>344.0</ele><time>2026-05-03T10:45:40.66Z</time></trkpt><trkpt lat="43.47133" lon="11.569925"><ele>340.25</ele><time>2026-05-03T10:45:41.661Z</time></trkpt><trkpt lat="43.4714317" lon="11.5698617"><ele>336.5</ele><time>2026-05-03T10:45:42.66Z</time></trkpt><trkpt lat="43.4715283" lon="11.5697833"><ele>332.75</ele><time>2026-05-03T10:45:43.661Z</time></trkpt><trkpt lat="43.4716267" lon="11.569705"><ele>329.0</ele><time>2026-05-03T10:45:44.66Z</time></trkpt><trkpt lat="43.471725" lon="11.569625"><ele>329.0</ele><time>2026-05-03T10:45:45.661Z</time></trkpt><trkpt lat="43.4718167" lon="11.5695633"><ele>329.0</ele><time>2026-05-03T10:45:46.661Z</time></trkpt><trkpt lat="43.47191" lon="11.5695167"><ele>329.0</ele><time>2026-05-03T10:45:47.661Z</time></trkpt><trkpt lat="43.47201" lon="11.56948"><ele>329.0</ele><time>2026-05-03T10:45:48.661Z</time></trkpt><trkpt lat="43.47211" lon="11.56944"><ele>329.0</ele><time>2026-05-03T10:45:49.66Z</time></trkpt><trkpt lat="43.47221" lon="11.5693967"><ele>328.0</ele><time>2026-05-03T10:45:50.66Z</time></trkpt><trkpt lat="43.4723217" lon="11.569355"><ele>327.0</ele><time>2026-05-03T10:45:51.66Z</time></trkpt><trkpt lat="43.47243" lon="11.5693217"><ele>326.0</ele><time>2026-05-03T10:45:52.66Z</time></trkpt><trkpt lat="43.472535" lon="11.569285"><ele>325.0</ele><time>2026-05-03T10:45:53.66Z</time></trkpt><trkpt lat="43.4726283" lon="11.56925"><ele>324.0</ele><time>2026-05-03T10:45:54.66Z</time></trkpt><trkpt lat="43.4727267" lon="11.5692217"><ele>324.0</ele><time>2026-05-03T10:45:55.66Z</time></trkpt><trkpt lat="43.4728167" lon="11.5691933"><ele>324.0</ele><time>2026-05-03T10:45:56.661Z</time></trkpt><trkpt lat="43.4729083" lon="11.5691817"><ele>324.0</ele><time>2026-05-03T10:45:57.66Z</time></trkpt><trkpt lat="43.473005" lon="11.56918"><ele>324.0</ele><time>2026-05-03T10:45:58.661Z</time></trkpt><trkpt lat="43.4731117" lon="11.5691883"><ele>324.0</ele><time>2026-05-03T10:45:59.66Z</time></trkpt><trkpt lat="43.4732133" lon="11.5692083"><ele>323.4</ele><time>2026-05-03T10:46:00.66Z</time></trkpt><trkpt lat="43.47332" lon="11.5692317"><ele>322.79999999999995</ele><time>2026-05-03T10:46:01.661Z</time></trkpt><trkpt lat="43.4734333" lon="11.5692533"><ele>322.20000000000005</ele><time>2026-05-03T10:46:02.66Z</time></trkpt><trkpt lat="43.4735383" lon="11.5692717"><ele>321.6</ele><time>2026-05-03T10:46:03.66Z</time></trkpt><trkpt lat="43.4736333" lon="11.5692867"><ele>321.0</ele><time>2026-05-03T10:46:04.66Z</time></trkpt><trkpt lat="43.473745" lon="11.569295"><ele>319.0</ele><time>2026-05-03T10:46:05.66Z</time></trkpt><trkpt lat="43.47385" lon="11.56929"><ele>317.0</ele><time>2026-05-03T10:46:06.66Z</time></trkpt><trkpt lat="43.4739533" lon="11.5692933"><ele>315.0</ele><time>2026-05-03T10:46:07.661Z</time></trkpt><trkpt lat="43.4740683" lon="11.5693"><ele>313.0</ele><time>2026-05-03T10:46:08.66Z</time></trkpt><trkpt lat="43.4741733" lon="11.5693217"><ele>311.0</ele><time>2026-05-03T10:46:09.66Z</time></trkpt><trkpt lat="43.4742917" lon="11.5693467"><ele>311.0</ele><time>2026-05-03T10:46:10.66Z</time></trkpt><trkpt lat="43.4744067" lon="11.5693633"><ele>311.0</ele><time>2026-05-03T10:46:11.66Z</time></trkpt><trkpt lat="43.4745179" lon="11.569373"><ele>311.0</ele><time>2026-05-03T10:46:12.661Z</time></trkpt><trkpt lat="43.4746195" lon="11.5693704"><ele>311.0</ele><time>2026-05-03T10:46:13.66Z</time></trkpt><trkpt lat="43.4747103" lon="11.5693631"><ele>311.0</ele><time>2026-05-03T10:46:14.661Z</time></trkpt><trkpt lat="43.4747862" lon="11.5693672"><ele>310.0</ele><time>2026-05-03T10:46:15.661Z</time></trkpt><trkpt lat="43.4748544" lon="11.5693677"><ele>309.0</ele><time>2026-05-03T10:46:16.66Z</time></trkpt><trkpt lat="43.4749624" lon="11.56932"><ele>308.0</ele><time>2026-05-03T10:46:18.661Z</time></trkpt><trkpt lat="43.4750042" lon="11.5692531"><ele>307.0</ele><time>2026-05-03T10:46:19.66Z</time></trkpt><trkpt lat="43.4750155" lon="11.5691533"><ele>306.0</ele><time>2026-05-03T10:46:20.66Z</time></trkpt><trkpt lat="43.4750132" lon="11.5690424"><ele>305.0</ele><time>2026-05-03T10:46:21.661Z</time></trkpt><trkpt lat="43.4750252" lon="11.5689352"><ele>305.0</ele><time>2026-05-03T10:46:22.661Z</time></trkpt><trkpt lat="43.4750544" lon="11.5688428"><ele>305.0</ele><time>2026-05-03T10:46:23.661Z</time></trkpt><trkpt lat="43.4751188" lon="11.5687934"><ele>305.0</ele><time>2026-05-03T10:46:24.661Z</time></trkpt><trkpt lat="43.475201" lon="11.5687757"><ele>305.0</ele><time>2026-05-03T10:46:25.661Z</time></trkpt><trkpt lat="43.4752896" lon="11.568788"><ele>305.0</ele><time>2026-05-03T10:46:26.661Z</time></trkpt><trkpt lat="43.4753723" lon="11.5688185"><ele>305.0</ele><time>2026-05-03T10:46:27.66Z</time></trkpt><trkpt lat="43.4754429" lon="11.5688877"><ele>302.2</ele><time>2026-05-03T10:46:28.661Z</time></trkpt><trkpt lat="43.4755106" lon="11.5689872"><ele>299.4</ele><time>2026-05-03T10:46:29.66Z</time></trkpt><trkpt lat="43.4755745" lon="11.5690959"><ele>296.6</ele><time>2026-05-03T10:46:30.66Z</time></trkpt><trkpt lat="43.4756384" lon="11.569202"><ele>293.8</ele><time>2026-05-03T10:46:31.66Z</time></trkpt><trkpt lat="43.4756988" lon="11.5692811"><ele>291.0</ele><time>2026-05-03T10:46:32.661Z</time></trkpt><trkpt lat="43.4757578" lon="11.5693516"><ele>291.0</ele><time>2026-05-03T10:46:33.66Z</time></trkpt><trkpt lat="43.4758154" lon="11.569398"><ele>291.0</ele><time>2026-05-03T10:46:34.66Z</time></trkpt><trkpt lat="43.4759072" lon="11.5693852"><ele>291.0</ele><time>2026-05-03T10:46:36.66Z</time></trkpt><trkpt lat="43.4759768" lon="11.5692333"><ele>291.0</ele><time>2026-05-03T10:46:38.661Z</time></trkpt><trkpt lat="43.4760064" lon="11.5691177"><ele>291.0</ele><time>2026-05-03T10:46:39.66Z</time></trkpt><trkpt lat="43.4760403" lon="11.5689803"><ele>291.0</ele><time>2026-05-03T10:46:40.66Z</time></trkpt><trkpt lat="43.4760773" lon="11.5688438"><ele>291.0</ele><time>2026-05-03T10:46:41.66Z</time></trkpt><trkpt lat="43.4761266" lon="11.5687153"><ele>291.0</ele><time>2026-05-03T10:46:42.661Z</time></trkpt><trkpt lat="43.4761931" lon="11.5686059"><ele>291.0</ele><time>2026-05-03T10:46:43.66Z</time></trkpt><trkpt lat="43.4763443" lon="11.5684084"><ele>287.75</ele><time>2026-05-03T10:46:45.66Z</time></trkpt><trkpt lat="43.4764253" lon="11.5683043"><ele>284.5</ele><time>2026-05-03T10:46:46.66Z</time></trkpt><trkpt lat="43.4765093" lon="11.5682012"><ele>281.25</ele><time>2026-05-03T10:46:47.66Z</time></trkpt><trkpt lat="43.476604" lon="11.5680882"><ele>278.0</ele><time>2026-05-03T10:46:48.66Z</time></trkpt><trkpt lat="43.4767021" lon="11.5679876"><ele>278.0</ele><time>2026-05-03T10:46:49.66Z</time></trkpt><trkpt lat="43.4767957" lon="11.5678908"><ele>278.0</ele><time>2026-05-03T10:46:50.661Z</time></trkpt><trkpt lat="43.4768879" lon="11.5677973"><ele>278.0</ele><time>2026-05-03T10:46:51.66Z</time></trkpt><trkpt lat="43.4769789" lon="11.5677185"><ele>278.0</ele><time>2026-05-03T10:46:52.661Z</time></trkpt><trkpt lat="43.4770787" lon="11.5676573"><ele>278.0</ele><time>2026-05-03T10:46:53.661Z</time></trkpt><trkpt lat="43.4771907" lon="11.5676052"><ele>277.4</ele><time>2026-05-03T10:46:54.66Z</time></trkpt><trkpt lat="43.4773072" lon="11.5675399"><ele>276.8</ele><time>2026-05-03T10:46:55.66Z</time></trkpt><trkpt lat="43.4774129" lon="11.5674701"><ele>276.2</ele><time>2026-05-03T10:46:56.661Z</time></trkpt><trkpt lat="43.4775085" lon="11.5674022"><ele>275.6</ele><time>2026-05-03T10:46:57.66Z</time></trkpt><trkpt lat="43.4775948" lon="11.5673396"><ele>275.0</ele><time>2026-05-03T10:46:58.661Z</time></trkpt><trkpt lat="43.477671" lon="11.5672901"><ele>275.0</ele><time>2026-05-03T10:46:59.66Z</time></trkpt><trkpt lat="43.4777393" lon="11.5672469"><ele>275.0</ele><time>2026-05-03T10:47:00.66Z</time></trkpt><trkpt lat="43.4778307" lon="11.567158"><ele>275.0</ele><time>2026-05-03T10:47:02.66Z</time></trkpt><trkpt lat="43.4778755" lon="11.5670173"><ele>275.0</ele><time>2026-05-03T10:47:04.66Z</time></trkpt><trkpt lat="43.4778794" lon="11.5669243"><ele>275.0</ele><time>2026-05-03T10:47:05.66Z</time></trkpt><trkpt lat="43.4778815" lon="11.5668217"><ele>275.0</ele><time>2026-05-03T10:47:06.66Z</time></trkpt><trkpt lat="43.477887" lon="11.5667187"><ele>275.0</ele><time>2026-05-03T10:47:07.66Z</time></trkpt><trkpt lat="43.4779008" lon="11.5666115"><ele>275.0</ele><time>2026-05-03T10:47:08.66Z</time></trkpt><trkpt lat="43.4779189" lon="11.5665023"><ele>275.0</ele><time>2026-05-03T10:47:09.661Z</time></trkpt><trkpt lat="43.4779429" lon="11.5663904"><ele>275.0</ele><time>2026-05-03T10:47:10.661Z</time></trkpt><trkpt lat="43.4779711" lon="11.5662769"><ele>275.0</ele><time>2026-05-03T10:47:11.66Z</time></trkpt><trkpt lat="43.4780083" lon="11.5661618"><ele>275.0</ele><time>2026-05-03T10:47:12.661Z</time></trkpt><trkpt lat="43.4780631" lon="11.5660529"><ele>274.0</ele><time>2026-05-03T10:47:13.66Z</time></trkpt><trkpt lat="43.4781237" lon="11.5659499"><ele>273.0</ele><time>2026-05-03T10:47:14.661Z</time></trkpt><trkpt lat="43.4781851" lon="11.565847"><ele>272.0</ele><time>2026-05-03T10:47:15.66Z</time></trkpt><trkpt lat="43.4782419" lon="11.5657401"><ele>271.0</ele><time>2026-05-03T10:47:16.661Z</time></trkpt><trkpt lat="43.4782933" lon="11.5656305"><ele>270.0</ele><time>2026-05-03T10:47:17.661Z</time></trkpt><trkpt lat="43.4783558" lon="11.5655311"><ele>270.0</ele><time>2026-05-03T10:47:18.661Z</time></trkpt><trkpt lat="43.4784167" lon="11.5654233"><ele>270.0</ele><time>2026-05-03T10:47:19.66Z</time></trkpt><trkpt lat="43.4784783" lon="11.5653183"><ele>270.0</ele><time>2026-05-03T10:47:20.66Z</time></trkpt><trkpt lat="43.47854" lon="11.565215"><ele>270.0</ele><time>2026-05-03T10:47:21.661Z</time></trkpt><trkpt lat="43.478605" lon="11.5651117"><ele>270.0</ele><time>2026-05-03T10:47:22.66Z</time></trkpt><trkpt lat="43.478665" lon="11.5650217"><ele>269.3333333333333</ele><time>2026-05-03T10:47:23.66Z</time></trkpt><trkpt lat="43.478715" lon="11.56494"><ele>268.6666666666667</ele><time>2026-05-03T10:47:24.661Z</time></trkpt><trkpt lat="43.4787617" lon="11.5648683"><ele>268.0</ele><time>2026-05-03T10:47:25.661Z</time></trkpt><trkpt lat="43.4788067" lon="11.564805"><ele>267.33333333333337</ele><time>2026-05-03T10:47:26.661Z</time></trkpt><trkpt lat="43.4788567" lon="11.564715"><ele>266.6666666666667</ele><time>2026-05-03T10:47:28.66Z</time></trkpt><trkpt lat="43.4788517" lon="11.5648317"><ele>266.0</ele><time>2026-05-03T10:47:42.661Z</time></trkpt><trkpt lat="43.4788067" lon="11.56495"><ele>265.75</ele><time>2026-05-03T10:47:43.66Z</time></trkpt><trkpt lat="43.4787517" lon="11.5651067"><ele>265.5</ele><time>2026-05-03T10:47:44.66Z</time></trkpt><trkpt lat="43.4786917" lon="11.56527"><ele>265.25</ele><time>2026-05-03T10:47:45.66Z</time></trkpt><trkpt lat="43.47863" lon="11.565415"><ele>265.0</ele><time>2026-05-03T10:47:46.66Z</time></trkpt><trkpt lat="43.4785733" lon="11.5655417"><ele>265.8333333333333</ele><time>2026-05-03T10:47:47.66Z</time></trkpt><trkpt lat="43.478515" lon="11.56565"><ele>266.66666666666663</ele><time>2026-05-03T10:47:48.66Z</time></trkpt><trkpt lat="43.478465" lon="11.5657467"><ele>267.5</ele><time>2026-05-03T10:47:49.661Z</time></trkpt><trkpt lat="43.478425" lon="11.565825"><ele>268.3333333333333</ele><time>2026-05-03T10:47:50.661Z</time></trkpt><trkpt lat="43.4783617" lon="11.5659017"><ele>269.1666666666667</ele><time>2026-05-03T10:47:52.661Z</time></trkpt><trkpt lat="43.478285" lon="11.5658733"><ele>270.0</ele><time>2026-05-03T10:47:55.66Z</time></trkpt><trkpt lat="43.4782117" lon="11.5656733"><ele>270.0</ele><time>2026-05-03T10:47:57.66Z</time></trkpt><trkpt lat="43.4781533" lon="11.5655083"><ele>270.0</ele><time>2026-05-03T10:47:58.66Z</time></trkpt><trkpt lat="43.4780883" lon="11.5653117"><ele>270.0</ele><time>2026-05-03T10:47:59.66Z</time></trkpt><trkpt lat="43.47803" lon="11.5651267"><ele>270.0</ele><time>2026-05-03T10:48:00.661Z</time></trkpt><trkpt lat="43.4779567" lon="11.56494"><ele>270.0</ele><time>2026-05-03T10:48:01.66Z</time></trkpt><trkpt lat="43.477885" lon="11.5647383"><ele>270.0</ele><time>2026-05-03T10:48:02.66Z</time></trkpt><trkpt lat="43.4778" lon="11.5645317"><ele>270.0</ele><time>2026-05-03T10:48:03.66Z</time></trkpt><trkpt lat="43.4777233" lon="11.564315"><ele>270.0</ele><time>2026-05-03T10:48:04.661Z</time></trkpt><trkpt lat="43.47757" lon="11.5638833"><ele>270.0</ele><time>2026-05-03T10:48:06.66Z</time></trkpt><trkpt lat="43.477515" lon="11.5636717"><ele>268.0</ele><time>2026-05-03T10:48:07.66Z</time></trkpt><trkpt lat="43.477455" lon="11.5634667"><ele>266.0</ele><time>2026-05-03T10:48:08.661Z</time></trkpt><trkpt lat="43.477395" lon="11.5632683"><ele>264.0</ele><time>2026-05-03T10:48:09.66Z</time></trkpt><trkpt lat="43.4773233" lon="11.563065"><ele>263.3333333333333</ele><time>2026-05-03T10:48:10.661Z</time></trkpt><trkpt lat="43.4772583" lon="11.5628583"><ele>262.66666666666663</ele><time>2026-05-03T10:48:11.66Z</time></trkpt><trkpt lat="43.4772183" lon="11.5626583"><ele>262.0</ele><time>2026-05-03T10:48:12.66Z</time></trkpt><trkpt lat="43.477205" lon="11.5624383"><ele>262.0</ele><time>2026-05-03T10:48:13.66Z</time></trkpt><trkpt lat="43.47719" lon="11.562215"><ele>262.0</ele><time>2026-05-03T10:48:14.661Z</time></trkpt><trkpt lat="43.47718" lon="11.5619967"><ele>262.0</ele><time>2026-05-03T10:48:15.661Z</time></trkpt><trkpt lat="43.477195" lon="11.5617717"><ele>262.0</ele><time>2026-05-03T10:48:16.66Z</time></trkpt><trkpt lat="43.4772167" lon="11.561575"><ele>262.0</ele><time>2026-05-03T10:48:17.661Z</time></trkpt><trkpt lat="43.4772467" lon="11.5613917"><ele>262.0</ele><time>2026-05-03T10:48:18.66Z</time></trkpt><trkpt lat="43.47729" lon="11.5612217"><ele>262.0</ele><time>2026-05-03T10:48:19.66Z</time></trkpt><trkpt lat="43.4773417" lon="11.5610883"><ele>262.0</ele><time>2026-05-03T10:48:20.661Z</time></trkpt><trkpt lat="43.4773817" lon="11.56097"><ele>262.0</ele><time>2026-05-03T10:48:21.661Z</time></trkpt><trkpt lat="43.477415" lon="11.560855"><ele>262.0</ele><time>2026-05-03T10:48:22.66Z</time></trkpt><trkpt lat="43.47745" lon="11.560765"><ele>262.0</ele><time>2026-05-03T10:48:23.661Z</time></trkpt><trkpt lat="43.4775117" lon="11.5606333"><ele>262.0</ele><time>2026-05-03T10:48:25.66Z</time></trkpt><trkpt lat="43.4774733" lon="11.5605267"><ele>262.0</ele><time>2026-05-03T10:48:27.66Z</time></trkpt><trkpt lat="43.4774033" lon="11.5604667"><ele>262.0</ele><time>2026-05-03T10:48:28.661Z</time></trkpt><trkpt lat="43.477315" lon="11.5603833"><ele>262.0</ele><time>2026-05-03T10:48:29.66Z</time></trkpt><trkpt lat="43.4772133" lon="11.56027"><ele>262.0</ele><time>2026-05-03T10:48:30.661Z</time></trkpt><trkpt lat="43.4771133" lon="11.5601367"><ele>262.0</ele><time>2026-05-03T10:48:31.661Z</time></trkpt><trkpt lat="43.47701" lon="11.55999"><ele>262.0</ele><time>2026-05-03T10:48:32.661Z</time></trkpt><trkpt lat="43.47691" lon="11.5598517"><ele>262.0</ele><time>2026-05-03T10:48:33.661Z</time></trkpt><trkpt lat="43.4768" lon="11.5597117"><ele>262.0</ele><time>2026-05-03T10:48:34.661Z</time></trkpt><trkpt lat="43.4766717" lon="11.5595667"><ele>262.3333333333333</ele><time>2026-05-03T10:48:35.661Z</time></trkpt><trkpt lat="43.476535" lon="11.5594367"><ele>262.6666666666667</ele><time>2026-05-03T10:48:36.66Z</time></trkpt><trkpt lat="43.476385" lon="11.559325"><ele>263.0</ele><time>2026-05-03T10:48:37.661Z</time></trkpt><trkpt lat="43.4762317" lon="11.5592083"><ele>263.0</ele><time>2026-05-03T10:48:38.661Z</time></trkpt><trkpt lat="43.47606" lon="11.5590867"><ele>263.0</ele><time>2026-05-03T10:48:39.66Z</time></trkpt><trkpt lat="43.4758883" lon="11.558965"><ele>263.0</ele><time>2026-05-03T10:48:40.66Z</time></trkpt><trkpt lat="43.4757117" lon="11.558845"><ele>263.0</ele><time>2026-05-03T10:48:41.661Z</time></trkpt><trkpt lat="43.4755333" lon="11.558725"><ele>263.0</ele><time>2026-05-03T10:48:42.661Z</time></trkpt><trkpt lat="43.4753617" lon="11.5586033"><ele>263.0</ele><time>2026-05-03T10:48:43.66Z</time></trkpt><trkpt lat="43.4751883" lon="11.5584883"><ele>264.6666666666667</ele><time>2026-05-03T10:48:44.66Z</time></trkpt><trkpt lat="43.4750283" lon="11.5583767"><ele>266.3333333333333</ele><time>2026-05-03T10:48:45.66Z</time></trkpt><trkpt lat="43.4748767" lon="11.55827"><ele>268.0</ele><time>2026-05-03T10:48:46.66Z</time></trkpt><trkpt lat="43.474735" lon="11.558165"><ele>269.3333333333333</ele><time>2026-05-03T10:48:47.66Z</time></trkpt><trkpt lat="43.4745933" lon="11.55808"><ele>270.6666666666667</ele><time>2026-05-03T10:48:48.66Z</time></trkpt><trkpt lat="43.4744383" lon="11.5580117"><ele>272.0</ele><time>2026-05-03T10:48:49.661Z</time></trkpt><trkpt lat="43.4742783" lon="11.5579683"><ele>272.0</ele><time>2026-05-03T10:48:50.661Z</time></trkpt><trkpt lat="43.4741017" lon="11.5579617"><ele>272.0</ele><time>2026-05-03T10:48:51.66Z</time></trkpt><trkpt lat="43.4739083" lon="11.5579583"><ele>272.0</ele><time>2026-05-03T10:48:52.66Z</time></trkpt><trkpt lat="43.4737233" lon="11.55796"><ele>271.6666666666667</ele><time>2026-05-03T10:48:53.661Z</time></trkpt><trkpt lat="43.473545" lon="11.5579683"><ele>271.3333333333333</ele><time>2026-05-03T10:48:54.66Z</time></trkpt><trkpt lat="43.473385" lon="11.557965"><ele>271.0</ele><time>2026-05-03T10:48:55.66Z</time></trkpt><trkpt lat="43.4732367" lon="11.5579517"><ele>271.0</ele><time>2026-05-03T10:48:56.661Z</time></trkpt><trkpt lat="43.4730967" lon="11.5579083"><ele>271.0</ele><time>2026-05-03T10:48:57.66Z</time></trkpt><trkpt lat="43.472945" lon="11.5578317"><ele>271.0</ele><time>2026-05-03T10:48:58.661Z</time></trkpt><trkpt lat="43.4727867" lon="11.5577217"><ele>271.0</ele><time>2026-05-03T10:48:59.661Z</time></trkpt><trkpt lat="43.4726217" lon="11.5576067"><ele>271.0</ele><time>2026-05-03T10:49:00.66Z</time></trkpt><trkpt lat="43.4724617" lon="11.557475"><ele>271.0</ele><time>2026-05-03T10:49:01.66Z</time></trkpt><trkpt lat="43.4722867" lon="11.5573267"><ele>271.0</ele><time>2026-05-03T10:49:02.661Z</time></trkpt><trkpt lat="43.4721267" lon="11.557165"><ele>271.0</ele><time>2026-05-03T10:49:03.66Z</time></trkpt><trkpt lat="43.4719683" lon="11.5569817"><ele>271.0</ele><time>2026-05-03T10:49:04.661Z</time></trkpt><trkpt lat="43.471805" lon="11.5567933"><ele>273.0</ele><time>2026-05-03T10:49:05.661Z</time></trkpt><trkpt lat="43.4716283" lon="11.556595"><ele>275.0</ele><time>2026-05-03T10:49:06.66Z</time></trkpt><trkpt lat="43.47146" lon="11.556395"><ele>275.0</ele><time>2026-05-03T10:49:07.66Z</time></trkpt><trkpt lat="43.4713" lon="11.5562083"><ele>275.0</ele><time>2026-05-03T10:49:08.661Z</time></trkpt><trkpt lat="43.4711417" lon="11.5560517"><ele>275.0</ele><time>2026-05-03T10:49:09.66Z</time></trkpt><trkpt lat="43.4709883" lon="11.555925"><ele>275.0</ele><time>2026-05-03T10:49:10.66Z</time></trkpt><trkpt lat="43.470835" lon="11.5558283"><ele>275.0</ele><time>2026-05-03T10:49:11.661Z</time></trkpt><trkpt lat="43.4706767" lon="11.555755"><ele>275.0</ele><time>2026-05-03T10:49:12.661Z</time></trkpt><trkpt lat="43.4705067" lon="11.555715"><ele>277.0</ele><time>2026-05-03T10:49:13.66Z</time></trkpt><trkpt lat="43.4703333" lon="11.5557033"><ele>279.0</ele><time>2026-05-03T10:49:14.661Z</time></trkpt><trkpt lat="43.47015" lon="11.5557183"><ele>281.0</ele><time>2026-05-03T10:49:15.661Z</time></trkpt><trkpt lat="43.469955" lon="11.55575"><ele>281.0</ele><time>2026-05-03T10:49:16.66Z</time></trkpt><trkpt lat="43.4697533" lon="11.55579"><ele>281.0</ele><time>2026-05-03T10:49:17.661Z</time></trkpt><trkpt lat="43.4695383" lon="11.555815"><ele>281.0</ele><time>2026-05-03T10:49:18.659Z</time></trkpt><trkpt lat="43.4693217" lon="11.55585"><ele>282.6666666666667</ele><time>2026-05-03T10:49:19.659Z</time></trkpt><trkpt lat="43.469125" lon="11.5558767"><ele>284.3333333333333</ele><time>2026-05-03T10:49:20.659Z</time></trkpt><trkpt lat="43.4689467" lon="11.555935"><ele>286.0</ele><time>2026-05-03T10:49:21.659Z</time></trkpt><trkpt lat="43.46877" lon="11.555995"><ele>287.3333333333333</ele><time>2026-05-03T10:49:22.66Z</time></trkpt><trkpt lat="43.4685817" lon="11.55604"><ele>288.6666666666667</ele><time>2026-05-03T10:49:23.659Z</time></trkpt><trkpt lat="43.4683867" lon="11.5561117"><ele>290.0</ele><time>2026-05-03T10:49:24.659Z</time></trkpt><trkpt lat="43.468185" lon="11.5561767"><ele>288.0</ele><time>2026-05-03T10:49:25.659Z</time></trkpt><trkpt lat="43.4679817" lon="11.5562583"><ele>286.0</ele><time>2026-05-03T10:49:26.659Z</time></trkpt><trkpt lat="43.46778" lon="11.55632"><ele>284.0</ele><time>2026-05-03T10:49:27.66Z</time></trkpt><trkpt lat="43.4675783" lon="11.556375"><ele>284.0</ele><time>2026-05-03T10:49:28.659Z</time></trkpt><trkpt lat="43.4674017" lon="11.556445"><ele>284.0</ele><time>2026-05-03T10:49:29.66Z</time></trkpt><trkpt lat="43.46723" lon="11.556495"><ele>284.0</ele><time>2026-05-03T10:49:30.659Z</time></trkpt><trkpt lat="43.4670767" lon="11.55655"><ele>284.33333333333337</ele><time>2026-05-03T10:49:31.659Z</time></trkpt><trkpt lat="43.4669317" lon="11.55659"><ele>284.6666666666667</ele><time>2026-05-03T10:49:32.659Z</time></trkpt><trkpt lat="43.4667967" lon="11.5566"><ele>285.0</ele><time>2026-05-03T10:49:33.66Z</time></trkpt><trkpt lat="43.46663" lon="11.556575"><ele>285.0</ele><time>2026-05-03T10:49:34.66Z</time></trkpt><trkpt lat="43.4664667" lon="11.556535"><ele>285.0</ele><time>2026-05-03T10:49:35.659Z</time></trkpt><trkpt lat="43.4663017" lon="11.556475"><ele>285.0</ele><time>2026-05-03T10:49:36.659Z</time></trkpt><trkpt lat="43.4661367" lon="11.55638"><ele>285.6666666666667</ele><time>2026-05-03T10:49:37.66Z</time></trkpt><trkpt lat="43.4659717" lon="11.55628"><ele>286.33333333333337</ele><time>2026-05-03T10:49:38.66Z</time></trkpt><trkpt lat="43.4657883" lon="11.55617"><ele>287.0</ele><time>2026-05-03T10:49:39.66Z</time></trkpt><trkpt lat="43.4656033" lon="11.5560617"><ele>290.33333333333337</ele><time>2026-05-03T10:49:40.659Z</time></trkpt><trkpt lat="43.4654417" lon="11.55594"><ele>293.6666666666667</ele><time>2026-05-03T10:49:41.659Z</time></trkpt><trkpt lat="43.4652783" lon="11.555855"><ele>297.0</ele><time>2026-05-03T10:49:42.66Z</time></trkpt><trkpt lat="43.46513" lon="11.555785"><ele>297.0</ele><time>2026-05-03T10:49:43.66Z</time></trkpt><trkpt lat="43.4648583" lon="11.5557317"><ele>297.0</ele><time>2026-05-03T10:49:45.659Z</time></trkpt><trkpt lat="43.464725" lon="11.5557583"><ele>297.0</ele><time>2026-05-03T10:49:46.659Z</time></trkpt><trkpt lat="43.4645767" lon="11.5558"><ele>296.3333333333333</ele><time>2026-05-03T10:49:47.659Z</time></trkpt><trkpt lat="43.4644117" lon="11.5558717"><ele>295.66666666666663</ele><time>2026-05-03T10:49:48.66Z</time></trkpt><trkpt lat="43.46425" lon="11.555915"><ele>295.0</ele><time>2026-05-03T10:49:49.659Z</time></trkpt><trkpt lat="43.4640767" lon="11.5559183"><ele>295.0</ele><time>2026-05-03T10:49:50.66Z</time></trkpt><trkpt lat="43.4639067" lon="11.5558967"><ele>295.0</ele><time>2026-05-03T10:49:51.659Z</time></trkpt><trkpt lat="43.4637267" lon="11.555855"><ele>295.0</ele><time>2026-05-03T10:49:52.659Z</time></trkpt><trkpt lat="43.4635267" lon="11.555805"><ele>296.3333333333333</ele><time>2026-05-03T10:49:53.659Z</time></trkpt><trkpt lat="43.463345" lon="11.5557483"><ele>297.6666666666667</ele><time>2026-05-03T10:49:54.659Z</time></trkpt><trkpt lat="43.4631717" lon="11.555705"><ele>299.0</ele><time>2026-05-03T10:49:55.66Z</time></trkpt><trkpt lat="43.46301" lon="11.555675"><ele>299.75</ele><time>2026-05-03T10:49:56.66Z</time></trkpt><trkpt lat="43.462865" lon="11.5556833"><ele>300.5</ele><time>2026-05-03T10:49:57.659Z</time></trkpt><trkpt lat="43.46273" lon="11.555695"><ele>301.25</ele><time>2026-05-03T10:49:58.66Z</time></trkpt><trkpt lat="43.4625933" lon="11.5556817"><ele>302.0</ele><time>2026-05-03T10:49:59.659Z</time></trkpt><trkpt lat="43.462455" lon="11.555625"><ele>302.0</ele><time>2026-05-03T10:50:00.66Z</time></trkpt><trkpt lat="43.4623167" lon="11.5555433"><ele>302.0</ele><time>2026-05-03T10:50:01.659Z</time></trkpt><trkpt lat="43.4621783" lon="11.5554383"><ele>302.0</ele><time>2026-05-03T10:50:02.66Z</time></trkpt><trkpt lat="43.4620417" lon="11.5553183"><ele>304.33333333333337</ele><time>2026-05-03T10:50:03.66Z</time></trkpt><trkpt lat="43.4619117" lon="11.5551767"><ele>306.6666666666667</ele><time>2026-05-03T10:50:04.66Z</time></trkpt><trkpt lat="43.4617867" lon="11.5550217"><ele>309.0</ele><time>2026-05-03T10:50:05.66Z</time></trkpt><trkpt lat="43.4616317" lon="11.5548517"><ele>309.0</ele><time>2026-05-03T10:50:06.659Z</time></trkpt><trkpt lat="43.4614417" lon="11.5547117"><ele>309.0</ele><time>2026-05-03T10:50:07.659Z</time></trkpt><trkpt lat="43.4612817" lon="11.554555"><ele>309.0</ele><time>2026-05-03T10:50:08.659Z</time></trkpt><trkpt lat="43.461135" lon="11.55438"><ele>310.3333333333333</ele><time>2026-05-03T10:50:09.66Z</time></trkpt><trkpt lat="43.4610033" lon="11.5541917"><ele>311.66666666666663</ele><time>2026-05-03T10:50:10.659Z</time></trkpt><trkpt lat="43.4608717" lon="11.5539983"><ele>313.0</ele><time>2026-05-03T10:50:11.66Z</time></trkpt><trkpt lat="43.460765" lon="11.5538267"><ele>315.0</ele><time>2026-05-03T10:50:12.659Z</time></trkpt><trkpt lat="43.4606717" lon="11.5536783"><ele>317.0</ele><time>2026-05-03T10:50:13.659Z</time></trkpt><trkpt lat="43.4606217" lon="11.5535117"><ele>319.0</ele><time>2026-05-03T10:50:14.66Z</time></trkpt><trkpt lat="43.4606067" lon="11.5533317"><ele>321.0</ele><time>2026-05-03T10:50:15.66Z</time></trkpt><trkpt lat="43.4606117" lon="11.5531367"><ele>321.0</ele><time>2026-05-03T10:50:16.66Z</time></trkpt><trkpt lat="43.4605817" lon="11.55296"><ele>321.0</ele><time>2026-05-03T10:50:17.659Z</time></trkpt><trkpt lat="43.4605483" lon="11.5527833"><ele>321.0</ele><time>2026-05-03T10:50:18.659Z</time></trkpt><trkpt lat="43.4605017" lon="11.5526233"><ele>321.0</ele><time>2026-05-03T10:50:19.659Z</time></trkpt><trkpt lat="43.4604133" lon="11.5524883"><ele>321.75</ele><time>2026-05-03T10:50:20.659Z</time></trkpt><trkpt lat="43.4603033" lon="11.5523633"><ele>322.5</ele><time>2026-05-03T10:50:21.659Z</time></trkpt><trkpt lat="43.460195" lon="11.55224"><ele>323.25</ele><time>2026-05-03T10:50:22.66Z</time></trkpt><trkpt lat="43.46009" lon="11.5521033"><ele>324.0</ele><time>2026-05-03T10:50:23.66Z</time></trkpt><trkpt lat="43.4599517" lon="11.5520083"><ele>324.0</ele><time>2026-05-03T10:50:24.66Z</time></trkpt><trkpt lat="43.4598233" lon="11.551905"><ele>324.0</ele><time>2026-05-03T10:50:25.659Z</time></trkpt><trkpt lat="43.4596967" lon="11.5518283"><ele>324.0</ele><time>2026-05-03T10:50:26.659Z</time></trkpt><trkpt lat="43.4595867" lon="11.551725"><ele>324.0</ele><time>2026-05-03T10:50:27.659Z</time></trkpt><trkpt lat="43.459485" lon="11.551605"><ele>323.0</ele><time>2026-05-03T10:50:28.659Z</time></trkpt><trkpt lat="43.459395" lon="11.55147"><ele>322.0</ele><time>2026-05-03T10:50:29.659Z</time></trkpt><trkpt lat="43.4593067" lon="11.55134"><ele>321.0</ele><time>2026-05-03T10:50:30.66Z</time></trkpt><trkpt lat="43.4592117" lon="11.551235"><ele>320.0</ele><time>2026-05-03T10:50:31.66Z</time></trkpt><trkpt lat="43.4591133" lon="11.5511633"><ele>320.0</ele><time>2026-05-03T10:50:32.66Z</time></trkpt><trkpt lat="43.458995" lon="11.5511317"><ele>320.0</ele><time>2026-05-03T10:50:33.659Z</time></trkpt><trkpt lat="43.4588583" lon="11.5511333"><ele>320.0</ele><time>2026-05-03T10:50:34.659Z</time></trkpt><trkpt lat="43.4586983" lon="11.5511383"><ele>320.0</ele><time>2026-05-03T10:50:35.66Z</time></trkpt><trkpt lat="43.458535" lon="11.5511517"><ele>324.33333333333337</ele><time>2026-05-03T10:50:36.66Z</time></trkpt><trkpt lat="43.45839" lon="11.5511217"><ele>328.6666666666667</ele><time>2026-05-03T10:50:37.659Z</time></trkpt><trkpt lat="43.458255" lon="11.5510333"><ele>333.0</ele><time>2026-05-03T10:50:38.659Z</time></trkpt><trkpt lat="43.4581033" lon="11.550955"><ele>333.0</ele><time>2026-05-03T10:50:39.659Z</time></trkpt><trkpt lat="43.4579683" lon="11.5508767"><ele>333.0</ele><time>2026-05-03T10:50:40.659Z</time></trkpt><trkpt lat="43.4578483" lon="11.5508217"><ele>333.0</ele><time>2026-05-03T10:50:41.659Z</time></trkpt><trkpt lat="43.4577283" lon="11.550775"><ele>333.0</ele><time>2026-05-03T10:50:42.659Z</time></trkpt><trkpt lat="43.4576217" lon="11.55071"><ele>333.4</ele><time>2026-05-03T10:50:43.66Z</time></trkpt><trkpt lat="43.4575383" lon="11.55062"><ele>333.79999999999995</ele><time>2026-05-03T10:50:44.659Z</time></trkpt><trkpt lat="43.457465" lon="11.55051"><ele>334.2</ele><time>2026-05-03T10:50:45.659Z</time></trkpt><trkpt lat="43.4574017" lon="11.5503983"><ele>334.6</ele><time>2026-05-03T10:50:46.66Z</time></trkpt><trkpt lat="43.45736" lon="11.55028"><ele>335.0</ele><time>2026-05-03T10:50:47.659Z</time></trkpt><trkpt lat="43.45733" lon="11.5501533"><ele>336.33333333333337</ele><time>2026-05-03T10:50:48.66Z</time></trkpt><trkpt lat="43.457205" lon="11.5499267"><ele>337.6666666666667</ele><time>2026-05-03T10:50:50.659Z</time></trkpt><trkpt lat="43.4570917" lon="11.5498217"><ele>339.0</ele><time>2026-05-03T10:50:51.66Z</time></trkpt><trkpt lat="43.4569633" lon="11.5497117"><ele>339.0</ele><time>2026-05-03T10:50:52.66Z</time></trkpt><trkpt lat="43.45681" lon="11.5496033"><ele>339.0</ele><time>2026-05-03T10:50:53.659Z</time></trkpt><trkpt lat="43.4566583" lon="11.5495017"><ele>339.0</ele><time>2026-05-03T10:50:54.66Z</time></trkpt><trkpt lat="43.45651" lon="11.5493633"><ele>341.0</ele><time>2026-05-03T10:50:55.66Z</time></trkpt><trkpt lat="43.456365" lon="11.5492417"><ele>343.0</ele><time>2026-05-03T10:50:56.659Z</time></trkpt><trkpt lat="43.4562333" lon="11.54912"><ele>345.0</ele><time>2026-05-03T10:50:57.659Z</time></trkpt><trkpt lat="43.45612" lon="11.5489867"><ele>345.0</ele><time>2026-05-03T10:50:58.66Z</time></trkpt><trkpt lat="43.4560183" lon="11.54883"><ele>345.0</ele><time>2026-05-03T10:50:59.66Z</time></trkpt><trkpt lat="43.455905" lon="11.5486833"><ele>345.0</ele><time>2026-05-03T10:51:00.659Z</time></trkpt><trkpt lat="43.4557783" lon="11.5485267"><ele>349.0</ele><time>2026-05-03T10:51:01.66Z</time></trkpt><trkpt lat="43.45566" lon="11.548345"><ele>353.0</ele><time>2026-05-03T10:51:02.659Z</time></trkpt><trkpt lat="43.4555417" lon="11.5481867"><ele>357.0</ele><time>2026-05-03T10:51:03.659Z</time></trkpt><trkpt lat="43.4554167" lon="11.54805"><ele>357.0</ele><time>2026-05-03T10:51:04.66Z</time></trkpt><trkpt lat="43.455285" lon="11.5479333"><ele>357.0</ele><time>2026-05-03T10:51:05.66Z</time></trkpt><trkpt lat="43.45514" lon="11.5477983"><ele>357.0</ele><time>2026-05-03T10:51:06.66Z</time></trkpt><trkpt lat="43.4550217" lon="11.5476867"><ele>363.0</ele><time>2026-05-03T10:51:07.66Z</time></trkpt><trkpt lat="43.4549367" lon="11.5475783"><ele>369.0</ele><time>2026-05-03T10:51:08.659Z</time></trkpt><trkpt lat="43.4548867" lon="11.5474333"><ele>375.0</ele><time>2026-05-03T10:51:09.66Z</time></trkpt><trkpt lat="43.454825" lon="11.5472983"><ele>381.0</ele><time>2026-05-03T10:51:10.659Z</time></trkpt><trkpt lat="43.4547283" lon="11.5472133"><ele>382.75</ele><time>2026-05-03T10:51:11.66Z</time></trkpt><trkpt lat="43.4546167" lon="11.5471333"><ele>384.5</ele><time>2026-05-03T10:51:12.659Z</time></trkpt><trkpt lat="43.4545267" lon="11.5470333"><ele>386.25</ele><time>2026-05-03T10:51:13.66Z</time></trkpt><trkpt lat="43.4544667" lon="11.546915"><ele>388.0</ele><time>2026-05-03T10:51:14.66Z</time></trkpt><trkpt lat="43.45443" lon="11.54678"><ele>388.0</ele><time>2026-05-03T10:51:15.66Z</time></trkpt><trkpt lat="43.4543883" lon="11.54664"><ele>388.0</ele><time>2026-05-03T10:51:16.659Z</time></trkpt><trkpt lat="43.4543317" lon="11.5465017"><ele>388.0</ele><time>2026-05-03T10:51:17.66Z</time></trkpt><trkpt lat="43.4542517" lon="11.5464067"><ele>388.0</ele><time>2026-05-03T10:51:18.659Z</time></trkpt><trkpt lat="43.45415" lon="11.5463267"><ele>388.0</ele><time>2026-05-03T10:51:19.659Z</time></trkpt><trkpt lat="43.4540567" lon="11.5462167"><ele>393.25</ele><time>2026-05-03T10:51:20.66Z</time></trkpt><trkpt lat="43.4539617" lon="11.546105"><ele>398.5</ele><time>2026-05-03T10:51:21.659Z</time></trkpt><trkpt lat="43.4538833" lon="11.5459433"><ele>403.75</ele><time>2026-05-03T10:51:22.659Z</time></trkpt><trkpt lat="43.4538" lon="11.5457683"><ele>409.0</ele><time>2026-05-03T10:51:23.659Z</time></trkpt><trkpt lat="43.4537133" lon="11.5455817"><ele>413.6666666666667</ele><time>2026-05-03T10:51:24.66Z</time></trkpt><trkpt lat="43.4536317" lon="11.5453783"><ele>418.33333333333337</ele><time>2026-05-03T10:51:25.659Z</time></trkpt><trkpt lat="43.4535467" lon="11.5451683"><ele>423.0</ele><time>2026-05-03T10:51:26.66Z</time></trkpt><trkpt lat="43.4534717" lon="11.5449683"><ele>423.0</ele><time>2026-05-03T10:51:27.66Z</time></trkpt><trkpt lat="43.4533983" lon="11.5447983"><ele>423.0</ele><time>2026-05-03T10:51:28.659Z</time></trkpt><trkpt lat="43.4533583" lon="11.5446533"><ele>423.0</ele><time>2026-05-03T10:51:29.659Z</time></trkpt><trkpt lat="43.45332" lon="11.5445267"><ele>423.0</ele><time>2026-05-03T10:51:30.66Z</time></trkpt><trkpt lat="43.4532117" lon="11.5445267"><ele>423.0</ele><time>2026-05-03T10:51:32.659Z</time></trkpt><trkpt lat="43.453135" lon="11.5445717"><ele>423.0</ele><time>2026-05-03T10:51:33.659Z</time></trkpt><trkpt lat="43.4530617" lon="11.54467"><ele>423.0</ele><time>2026-05-03T10:51:34.66Z</time></trkpt><trkpt lat="43.45304" lon="11.5448417"><ele>423.0</ele><time>2026-05-03T10:51:35.659Z</time></trkpt><trkpt lat="43.4530167" lon="11.5450317"><ele>423.0</ele><time>2026-05-03T10:51:36.659Z</time></trkpt><trkpt lat="43.4529833" lon="11.5452483"><ele>423.0</ele><time>2026-05-03T10:51:37.66Z</time></trkpt><trkpt lat="43.45296" lon="11.5454483"><ele>423.0</ele><time>2026-05-03T10:51:38.659Z</time></trkpt><trkpt lat="43.4529233" lon="11.5455967"><ele>423.0</ele><time>2026-05-03T10:51:39.659Z</time></trkpt><trkpt lat="43.4528983" lon="11.5457083"><ele>424.79999999999995</ele><time>2026-05-03T10:51:40.659Z</time></trkpt><trkpt lat="43.4528483" lon="11.5457917"><ele>426.6</ele><time>2026-05-03T10:51:41.66Z</time></trkpt><trkpt lat="43.4527817" lon="11.5458567"><ele>428.40000000000003</ele><time>2026-05-03T10:51:42.66Z</time></trkpt><trkpt lat="43.4527083" lon="11.5459"><ele>430.20000000000005</ele><time>2026-05-03T10:51:43.659Z</time></trkpt><trkpt lat="43.4526033" lon="11.5459033"><ele>432.0</ele><time>2026-05-03T10:51:44.66Z</time></trkpt><trkpt lat="43.4524967" lon="11.5458717"><ele>432.0</ele><time>2026-05-03T10:51:45.66Z</time></trkpt><trkpt lat="43.4523633" lon="11.5458183"><ele>432.0</ele><time>2026-05-03T10:51:46.66Z</time></trkpt><trkpt lat="43.4522383" lon="11.5458"><ele>432.0</ele><time>2026-05-03T10:51:47.659Z</time></trkpt><trkpt lat="43.4521233" lon="11.545845"><ele>432.0</ele><time>2026-05-03T10:51:48.659Z</time></trkpt><trkpt lat="43.4520183" lon="11.5459083"><ele>434.25</ele><time>2026-05-03T10:51:49.659Z</time></trkpt><trkpt lat="43.451915" lon="11.5459533"><ele>436.5</ele><time>2026-05-03T10:51:50.66Z</time></trkpt><trkpt lat="43.4517983" lon="11.54597"><ele>438.75</ele><time>2026-05-03T10:51:51.659Z</time></trkpt><trkpt lat="43.4516683" lon="11.54593"><ele>441.0</ele><time>2026-05-03T10:51:52.659Z</time></trkpt><trkpt lat="43.4515583" lon="11.545855"><ele>441.0</ele><time>2026-05-03T10:51:53.659Z</time></trkpt><trkpt lat="43.4515" lon="11.5458"><ele>441.0</ele><time>2026-05-03T10:51:54.659Z</time></trkpt><trkpt lat="43.45155" lon="11.545685"><ele>441.0</ele><time>2026-05-03T10:51:57.66Z</time></trkpt><trkpt lat="43.4516117" lon="11.5456583"><ele>441.0</ele><time>2026-05-03T10:51:58.66Z</time></trkpt><trkpt lat="43.451695" lon="11.54566"><ele>441.0</ele><time>2026-05-03T10:51:59.66Z</time></trkpt><trkpt lat="43.4518017" lon="11.5456267"><ele>441.0</ele><time>2026-05-03T10:52:00.659Z</time></trkpt><trkpt lat="43.4519067" lon="11.5455483"><ele>441.0</ele><time>2026-05-03T10:52:01.659Z</time></trkpt><trkpt lat="43.452005" lon="11.54544"><ele>441.0</ele><time>2026-05-03T10:52:02.659Z</time></trkpt><trkpt lat="43.4520867" lon="11.54531"><ele>441.0</ele><time>2026-05-03T10:52:03.66Z</time></trkpt><trkpt lat="43.4521683" lon="11.54521"><ele>441.0</ele><time>2026-05-03T10:52:04.66Z</time></trkpt><trkpt lat="43.4522583" lon="11.5451467"><ele>443.6</ele><time>2026-05-03T10:52:05.659Z</time></trkpt><trkpt lat="43.4523483" lon="11.5450933"><ele>446.20000000000005</ele><time>2026-05-03T10:52:06.659Z</time></trkpt><trkpt lat="43.45244" lon="11.545055"><ele>448.79999999999995</ele><time>2026-05-03T10:52:07.659Z</time></trkpt><trkpt lat="43.4525083" lon="11.5449967"><ele>451.4</ele><time>2026-05-03T10:52:08.659Z</time></trkpt><trkpt lat="43.4525467" lon="11.544855"><ele>454.0</ele><time>2026-05-03T10:52:10.659Z</time></trkpt><trkpt lat="43.452495" lon="11.5447767"><ele>454.0</ele><time>2026-05-03T10:52:11.659Z</time></trkpt><trkpt lat="43.45241" lon="11.5447333"><ele>454.0</ele><time>2026-05-03T10:52:12.659Z</time></trkpt><trkpt lat="43.4523267" lon="11.5447117"><ele>454.0</ele><time>2026-05-03T10:52:13.66Z</time></trkpt><trkpt lat="43.4521517" lon="11.5447683"><ele>454.0</ele><time>2026-05-03T10:52:14.66Z</time></trkpt><trkpt lat="43.4520283" lon="11.544835"><ele>456.75</ele><time>2026-05-03T10:52:15.659Z</time></trkpt><trkpt lat="43.4519033" lon="11.54493"><ele>459.5</ele><time>2026-05-03T10:52:16.66Z</time></trkpt><trkpt lat="43.4518" lon="11.5450233"><ele>462.25</ele><time>2026-05-03T10:52:17.659Z</time></trkpt><trkpt lat="43.4516967" lon="11.5450383"><ele>465.0</ele><time>2026-05-03T10:52:18.659Z</time></trkpt><trkpt lat="43.4516067" lon="11.544995"><ele>465.0</ele><time>2026-05-03T10:52:19.659Z</time></trkpt><trkpt lat="43.4515683" lon="11.5449117"><ele>465.0</ele><time>2026-05-03T10:52:20.659Z</time></trkpt><trkpt lat="43.45155" lon="11.5448183"><ele>465.0</ele><time>2026-05-03T10:52:21.659Z</time></trkpt><trkpt lat="43.451555" lon="11.54472"><ele>465.0</ele><time>2026-05-03T10:52:22.66Z</time></trkpt><trkpt lat="43.45162" lon="11.5446383"><ele>465.0</ele><time>2026-05-03T10:52:23.659Z</time></trkpt><trkpt lat="43.4516911" lon="11.5445531"><ele>465.0</ele><time>2026-05-03T10:52:24.659Z</time></trkpt><trkpt lat="43.4518409" lon="11.5444547"><ele>464.5</ele><time>2026-05-03T10:52:25.659Z</time></trkpt><trkpt lat="43.4519672" lon="11.5443633"><ele>464.0</ele><time>2026-05-03T10:52:26.659Z</time></trkpt><trkpt lat="43.4520686" lon="11.5442633"><ele>463.5</ele><time>2026-05-03T10:52:27.66Z</time></trkpt><trkpt lat="43.4521399" lon="11.5441499"><ele>463.0</ele><time>2026-05-03T10:52:28.66Z</time></trkpt><trkpt lat="43.4521903" lon="11.5440243"><ele>463.0</ele><time>2026-05-03T10:52:29.659Z</time></trkpt><trkpt lat="43.4522104" lon="11.5438672"><ele>463.0</ele><time>2026-05-03T10:52:30.659Z</time></trkpt><trkpt lat="43.4521819" lon="11.5436836"><ele>463.0</ele><time>2026-05-03T10:52:31.66Z</time></trkpt><trkpt lat="43.4521264" lon="11.5434938"><ele>463.0</ele><time>2026-05-03T10:52:32.659Z</time></trkpt><trkpt lat="43.4520637" lon="11.5433046"><ele>471.59999999999997</ele><time>2026-05-03T10:52:33.66Z</time></trkpt><trkpt lat="43.4520086" lon="11.5431269"><ele>480.19999999999993</ele><time>2026-05-03T10:52:34.659Z</time></trkpt><trkpt lat="43.4519687" lon="11.5429811"><ele>488.8</ele><time>2026-05-03T10:52:35.659Z</time></trkpt><trkpt lat="43.4519565" lon="11.5428552"><ele>497.4</ele><time>2026-05-03T10:52:36.659Z</time></trkpt><trkpt lat="43.4519674" lon="11.5427325"><ele>506.0</ele><time>2026-05-03T10:52:37.659Z</time></trkpt><trkpt lat="43.4520243" lon="11.5426092"><ele>507.0</ele><time>2026-05-03T10:52:38.66Z</time></trkpt><trkpt lat="43.4520926" lon="11.5424784"><ele>508.0</ele><time>2026-05-03T10:52:39.659Z</time></trkpt><trkpt lat="43.4521604" lon="11.5423269"><ele>509.0</ele><time>2026-05-03T10:52:40.66Z</time></trkpt><trkpt lat="43.4522153" lon="11.5421561"><ele>510.0</ele><time>2026-05-03T10:52:41.659Z</time></trkpt><trkpt lat="43.4522497" lon="11.5419726"><ele>510.0</ele><time>2026-05-03T10:52:42.66Z</time></trkpt><trkpt lat="43.452286" lon="11.5418067"><ele>510.0</ele><time>2026-05-03T10:52:43.659Z</time></trkpt><trkpt lat="43.4523314" lon="11.5416671"><ele>510.0</ele><time>2026-05-03T10:52:44.659Z</time></trkpt><trkpt lat="43.452385" lon="11.5415476"><ele>510.0</ele><time>2026-05-03T10:52:45.66Z</time></trkpt><trkpt lat="43.4524442" lon="11.5414496"><ele>510.0</ele><time>2026-05-03T10:52:46.659Z</time></trkpt><trkpt lat="43.4525089" lon="11.5413797"><ele>510.0</ele><time>2026-05-03T10:52:47.659Z</time></trkpt><trkpt lat="43.4525838" lon="11.5413316"><ele>510.0</ele><time>2026-05-03T10:52:48.66Z</time></trkpt><trkpt lat="43.4526486" lon="11.5413324"><ele>510.0</ele><time>2026-05-03T10:52:49.659Z</time></trkpt><trkpt lat="43.4527144" lon="11.5413484"><ele>510.0</ele><time>2026-05-03T10:52:50.66Z</time></trkpt><trkpt lat="43.4527987" lon="11.541404"><ele>510.0</ele><time>2026-05-03T10:52:51.659Z</time></trkpt><trkpt lat="43.4528983" lon="11.5414646"><ele>510.0</ele><time>2026-05-03T10:52:52.66Z</time></trkpt><trkpt lat="43.4530164" lon="11.5415345"><ele>509.4</ele><time>2026-05-03T10:52:53.659Z</time></trkpt><trkpt lat="43.453133" lon="11.5415904"><ele>508.8</ele><time>2026-05-03T10:52:54.66Z</time></trkpt><trkpt lat="43.4532353" lon="11.5416162"><ele>508.20000000000005</ele><time>2026-05-03T10:52:55.66Z</time></trkpt><trkpt lat="43.4533255" lon="11.5416135"><ele>507.6</ele><time>2026-05-03T10:52:56.659Z</time></trkpt><trkpt lat="43.4533876" lon="11.5415882"><ele>507.0</ele><time>2026-05-03T10:52:57.66Z</time></trkpt><trkpt lat="43.4534596" lon="11.5414676"><ele>507.0</ele><time>2026-05-03T10:52:59.66Z</time></trkpt><trkpt lat="43.4534181" lon="11.5413647"><ele>507.0</ele><time>2026-05-03T10:53:00.66Z</time></trkpt><trkpt lat="43.4533558" lon="11.5412552"><ele>507.0</ele><time>2026-05-03T10:53:01.66Z</time></trkpt><trkpt lat="43.4532459" lon="11.541109"><ele>507.0</ele><time>2026-05-03T10:53:02.659Z</time></trkpt><trkpt lat="43.4531292" lon="11.5409374"><ele>509.0</ele><time>2026-05-03T10:53:03.66Z</time></trkpt><trkpt lat="43.4530348" lon="11.5407613"><ele>511.0</ele><time>2026-05-03T10:53:04.66Z</time></trkpt><trkpt lat="43.4529551" lon="11.5405862"><ele>513.0</ele><time>2026-05-03T10:53:05.659Z</time></trkpt><trkpt lat="43.4528704" lon="11.5404251"><ele>519.4</ele><time>2026-05-03T10:53:06.66Z</time></trkpt><trkpt lat="43.4527951" lon="11.5402848"><ele>525.8</ele><time>2026-05-03T10:53:07.66Z</time></trkpt><trkpt lat="43.4527443" lon="11.5401549"><ele>532.2</ele><time>2026-05-03T10:53:08.659Z</time></trkpt><trkpt lat="43.4527255" lon="11.5400353"><ele>538.6</ele><time>2026-05-03T10:53:09.659Z</time></trkpt><trkpt lat="43.4527325" lon="11.5399093"><ele>545.0</ele><time>2026-05-03T10:53:10.659Z</time></trkpt><trkpt lat="43.4527666" lon="11.5397758"><ele>545.0</ele><time>2026-05-03T10:53:11.659Z</time></trkpt><trkpt lat="43.4528292" lon="11.5396016"><ele>545.0</ele><time>2026-05-03T10:53:12.659Z</time></trkpt><trkpt lat="43.4528939" lon="11.5394059"><ele>545.0</ele><time>2026-05-03T10:53:13.66Z</time></trkpt><trkpt lat="43.4529299" lon="11.5392119"><ele>545.0</ele><time>2026-05-03T10:53:14.66Z</time></trkpt><trkpt lat="43.4529348" lon="11.539029"><ele>547.0</ele><time>2026-05-03T10:53:15.66Z</time></trkpt><trkpt lat="43.4529197" lon="11.5388434"><ele>549.0</ele><time>2026-05-03T10:53:16.659Z</time></trkpt><trkpt lat="43.4528902" lon="11.538663"><ele>551.0</ele><time>2026-05-03T10:53:17.659Z</time></trkpt><trkpt lat="43.4528469" lon="11.5384909"><ele>553.0</ele><time>2026-05-03T10:53:18.659Z</time></trkpt><trkpt lat="43.452789" lon="11.5383439"><ele>554.0</ele><time>2026-05-03T10:53:19.66Z</time></trkpt><trkpt lat="43.4526951" lon="11.5382239"><ele>555.0</ele><time>2026-05-03T10:53:20.66Z</time></trkpt><trkpt lat="43.4525793" lon="11.5381104"><ele>556.0</ele><time>2026-05-03T10:53:21.659Z</time></trkpt><trkpt lat="43.4524793" lon="11.5379886"><ele>557.0</ele><time>2026-05-03T10:53:22.659Z</time></trkpt><trkpt lat="43.4523956" lon="11.5378697"><ele>557.25</ele><time>2026-05-03T10:53:23.659Z</time></trkpt><trkpt lat="43.4523818" lon="11.5377277"><ele>557.5</ele><time>2026-05-03T10:53:24.659Z</time></trkpt><trkpt lat="43.452419" lon="11.5375772"><ele>557.75</ele><time>2026-05-03T10:53:25.659Z</time></trkpt><trkpt lat="43.4524528" lon="11.537424"><ele>558.0</ele><time>2026-05-03T10:53:26.659Z</time></trkpt><trkpt lat="43.4524686" lon="11.5372466"><ele>558.0</ele><time>2026-05-03T10:53:27.659Z</time></trkpt><trkpt lat="43.4524451" lon="11.5370547"><ele>558.0</ele><time>2026-05-03T10:53:28.659Z</time></trkpt><trkpt lat="43.4523929" lon="11.5368557"><ele>558.0</ele><time>2026-05-03T10:53:29.659Z</time></trkpt><trkpt lat="43.4523416" lon="11.5366521"><ele>558.3333333333334</ele><time>2026-05-03T10:53:30.659Z</time></trkpt><trkpt lat="43.452294" lon="11.5364478"><ele>558.6666666666667</ele><time>2026-05-03T10:53:31.659Z</time></trkpt><trkpt lat="43.4522216" lon="11.5362515"><ele>559.0</ele><time>2026-05-03T10:53:32.66Z</time></trkpt><trkpt lat="43.4521247" lon="11.5360644"><ele>563.3333333333334</ele><time>2026-05-03T10:53:33.66Z</time></trkpt><trkpt lat="43.4520243" lon="11.5358607"><ele>567.6666666666666</ele><time>2026-05-03T10:53:34.66Z</time></trkpt><trkpt lat="43.4519368" lon="11.5356667"><ele>572.0</ele><time>2026-05-03T10:53:35.659Z</time></trkpt><trkpt lat="43.4518668" lon="11.5354907"><ele>572.25</ele><time>2026-05-03T10:53:36.659Z</time></trkpt><trkpt lat="43.4518035" lon="11.5353302"><ele>572.5</ele><time>2026-05-03T10:53:37.66Z</time></trkpt><trkpt lat="43.4517761" lon="11.5351724"><ele>572.75</ele><time>2026-05-03T10:53:38.66Z</time></trkpt><trkpt lat="43.4517692" lon="11.5350236"><ele>573.0</ele><time>2026-05-03T10:53:39.66Z</time></trkpt><trkpt lat="43.4517981" lon="11.5348881"><ele>573.0</ele><time>2026-05-03T10:53:40.659Z</time></trkpt><trkpt lat="43.4518524" lon="11.5347724"><ele>573.0</ele><time>2026-05-03T10:53:41.66Z</time></trkpt><trkpt lat="43.4519301" lon="11.5346814"><ele>573.0</ele><time>2026-05-03T10:53:42.66Z</time></trkpt><trkpt lat="43.4520223" lon="11.5346086"><ele>573.0</ele><time>2026-05-03T10:53:43.66Z</time></trkpt><trkpt lat="43.4521288" lon="11.5345304"><ele>573.0</ele><time>2026-05-03T10:53:44.66Z</time></trkpt><trkpt lat="43.4522355" lon="11.5344308"><ele>570.75</ele><time>2026-05-03T10:53:45.659Z</time></trkpt><trkpt lat="43.4523158" lon="11.5343072"><ele>568.5</ele><time>2026-05-03T10:53:46.659Z</time></trkpt><trkpt lat="43.4523484" lon="11.5341511"><ele>566.25</ele><time>2026-05-03T10:53:47.659Z</time></trkpt><trkpt lat="43.4523227" lon="11.5339925"><ele>564.0</ele><time>2026-05-03T10:53:48.66Z</time></trkpt><trkpt lat="43.452239" lon="11.5338616"><ele>565.0</ele><time>2026-05-03T10:53:49.659Z</time></trkpt><trkpt lat="43.4521445" lon="11.5337196"><ele>566.0</ele><time>2026-05-03T10:53:50.659Z</time></trkpt><trkpt lat="43.452039" lon="11.5335839"><ele>567.0</ele><time>2026-05-03T10:53:51.66Z</time></trkpt><trkpt lat="43.451925" lon="11.5334553"><ele>568.0</ele><time>2026-05-03T10:53:52.66Z</time></trkpt><trkpt lat="43.4517998" lon="11.533338"><ele>568.0</ele><time>2026-05-03T10:53:53.659Z</time></trkpt><trkpt lat="43.451689" lon="11.533224"><ele>568.0</ele><time>2026-05-03T10:53:54.659Z</time></trkpt><trkpt lat="43.4515906" lon="11.5330925"><ele>568.0</ele><time>2026-05-03T10:53:55.66Z</time></trkpt><trkpt lat="43.4515089" lon="11.5329357"><ele>568.0</ele><time>2026-05-03T10:53:56.66Z</time></trkpt><trkpt lat="43.4514297" lon="11.532769"><ele>564.0</ele><time>2026-05-03T10:53:57.659Z</time></trkpt><trkpt lat="43.45136" lon="11.5325998"><ele>560.0</ele><time>2026-05-03T10:53:58.659Z</time></trkpt><trkpt lat="43.4524451" lon="11.5370547"><ele>559.6666666666666</ele><time>2026-05-03T10:53:28.659Z</time></trkpt><trkpt lat="43.4523929" lon="11.5368557"><ele>559.3333333333334</ele><time>2026-05-03T10:53:29.659Z</time></trkpt><trkpt lat="43.4523416" lon="11.5366521"><ele>559.0</ele><time>2026-05-03T10:53:30.659Z</time></trkpt><trkpt lat="43.452294" lon="11.5364478"><ele>559.0</ele><time>2026-05-03T10:53:31.659Z</time></trkpt><trkpt lat="43.4522216" lon="11.5362515"><ele>559.0</ele><time>2026-05-03T10:53:32.66Z</time></trkpt><trkpt lat="43.4521247" lon="11.5360644"><ele>559.0</ele><time>2026-05-03T10:53:33.66Z</time></trkpt><trkpt lat="43.4520243" lon="11.5358607"><ele>562.25</ele><time>2026-05-03T10:53:34.66Z</time></trkpt><trkpt lat="43.4519368" lon="11.5356667"><ele>565.5</ele><time>2026-05-03T10:53:35.659Z</time></trkpt><trkpt lat="43.4518668" lon="11.5354907"><ele>568.75</ele><time>2026-05-03T10:53:36.659Z</time></trkpt><trkpt lat="43.4518035" lon="11.5353302"><ele>572.0</ele><time>2026-05-03T10:53:37.66Z</time></trkpt><trkpt lat="43.4517761" lon="11.5351724"><ele>572.2</ele><time>2026-05-03T10:53:38.66Z</time></trkpt><trkpt lat="43.4517692" lon="11.5350236"><ele>572.4000000000001</ele><time>2026-05-03T10:53:39.66Z</time></trkpt><trkpt lat="43.4517981" lon="11.5348881"><ele>572.5999999999999</ele><time>2026-05-03T10:53:40.659Z</time></trkpt><trkpt lat="43.4518524" lon="11.5347724"><ele>572.8</ele><time>2026-05-03T10:53:41.66Z</time></trkpt><trkpt lat="43.4519301" lon="11.5346814"><ele>573.0</ele><time>2026-05-03T10:53:42.66Z</time></trkpt><trkpt lat="43.4520223" lon="11.5346086"><ele>570.75</ele><time>2026-05-03T10:53:43.66Z</time></trkpt><trkpt lat="43.4521288" lon="11.5345304"><ele>568.5</ele><time>2026-05-03T10:53:44.66Z</time></trkpt><trkpt lat="43.4522355" lon="11.5344308"><ele>566.25</ele><time>2026-05-03T10:53:45.659Z</time></trkpt><trkpt lat="43.4523158" lon="11.5343072"><ele>564.0</ele><time>2026-05-03T10:53:46.659Z</time></trkpt><trkpt lat="43.4523484" lon="11.5341511"><ele>564.0</ele><time>2026-05-03T10:53:47.659Z</time></trkpt><trkpt lat="43.4523227" lon="11.5339925"><ele>564.0</ele><time>2026-05-03T10:53:48.66Z</time></trkpt><trkpt lat="43.452239" lon="11.5338616"><ele>564.0</ele><time>2026-05-03T10:53:49.659Z</time></trkpt><trkpt lat="43.4521445" lon="11.5337196"><ele>564.0</ele><time>2026-05-03T10:53:50.659Z</time></trkpt><trkpt lat="43.452039" lon="11.5335839"><ele>565.0</ele><time>2026-05-03T10:53:51.66Z</time></trkpt><trkpt lat="43.451925" lon="11.5334553"><ele>566.0</ele><time>2026-05-03T10:53:52.66Z</time></trkpt><trkpt lat="43.4517998" lon="11.533338"><ele>567.0</ele><time>2026-05-03T10:53:53.659Z</time></trkpt><trkpt lat="43.451689" lon="11.533224"><ele>568.0</ele><time>2026-05-03T10:53:54.659Z</time></trkpt><trkpt lat="43.4515906" lon="11.5330925"><ele>568.0</ele><time>2026-05-03T10:53:55.66Z</time></trkpt><trkpt lat="43.4515089" lon="11.5329357"><ele>568.0</ele><time>2026-05-03T10:53:56.66Z</time></trkpt><trkpt lat="43.4514297" lon="11.532769"><ele>568.0</ele><time>2026-05-03T10:53:57.659Z</time></trkpt><trkpt lat="43.45136" lon="11.5325998"><ele>568.0</ele><time>2026-05-03T10:53:58.659Z</time></trkpt><trkpt lat="43.451283" lon="11.5324395"><ele>566.75</ele><time>2026-05-03T10:53:59.659Z</time></trkpt><trkpt lat="43.4511969" lon="11.5322888"><ele>565.5</ele><time>2026-05-03T10:54:00.659Z</time></trkpt><trkpt lat="43.4510975" lon="11.5321687"><ele>564.25</ele><time>2026-05-03T10:54:01.658Z</time></trkpt><trkpt lat="43.450996" lon="11.5320584"><ele>563.0</ele><time>2026-05-03T10:54:02.658Z</time></trkpt><trkpt lat="43.4508901" lon="11.5319491"><ele>562.25</ele><time>2026-05-03T10:54:03.659Z</time></trkpt><trkpt lat="43.4507809" lon="11.5318491"><ele>561.5</ele><time>2026-05-03T10:54:04.659Z</time></trkpt><trkpt lat="43.4506793" lon="11.5317592"><ele>560.75</ele><time>2026-05-03T10:54:05.658Z</time></trkpt><trkpt lat="43.4505718" lon="11.5316862"><ele>560.0</ele><time>2026-05-03T10:54:06.659Z</time></trkpt><trkpt lat="43.4504666" lon="11.5316296"><ele>559.4</ele><time>2026-05-03T10:54:07.658Z</time></trkpt><trkpt lat="43.4503678" lon="11.5315813"><ele>558.8</ele><time>2026-05-03T10:54:08.658Z</time></trkpt><trkpt lat="43.4502743" lon="11.5315257"><ele>558.2</ele><time>2026-05-03T10:54:09.658Z</time></trkpt><trkpt lat="43.4501919" lon="11.5314695"><ele>557.6</ele><time>2026-05-03T10:54:10.658Z</time></trkpt><trkpt lat="43.4501192" lon="11.5313911"><ele>557.0</ele><time>2026-05-03T10:54:11.658Z</time></trkpt><trkpt lat="43.4500717" lon="11.531296"><ele>556.25</ele><time>2026-05-03T10:54:12.659Z</time></trkpt><trkpt lat="43.4500382" lon="11.5311582"><ele>555.5</ele><time>2026-05-03T10:54:13.659Z</time></trkpt><trkpt lat="43.4500384" lon="11.5309695"><ele>554.75</ele><time>2026-05-03T10:54:14.658Z</time></trkpt><trkpt lat="43.4500449" lon="11.5307537"><ele>554.0</ele><time>2026-05-03T10:54:15.659Z</time></trkpt><trkpt lat="43.4500262" lon="11.5305257"><ele>553.6666666666666</ele><time>2026-05-03T10:54:16.658Z</time></trkpt><trkpt lat="43.4500021" lon="11.5302861"><ele>553.3333333333334</ele><time>2026-05-03T10:54:17.658Z</time></trkpt><trkpt lat="43.4499707" lon="11.5300515"><ele>553.0</ele><time>2026-05-03T10:54:18.658Z</time></trkpt><trkpt lat="43.4499362" lon="11.5298206"><ele>553.0</ele><time>2026-05-03T10:54:19.658Z</time></trkpt><trkpt lat="43.4499003" lon="11.5295918"><ele>553.0</ele><time>2026-05-03T10:54:20.659Z</time></trkpt><trkpt lat="43.4498517" lon="11.5293646"><ele>553.0</ele><time>2026-05-03T10:54:21.658Z</time></trkpt><trkpt lat="43.4497637" lon="11.5291391"><ele>554.0</ele><time>2026-05-03T10:54:22.658Z</time></trkpt><trkpt lat="43.4496519" lon="11.5289168"><ele>555.0</ele><time>2026-05-03T10:54:23.658Z</time></trkpt><trkpt lat="43.449522" lon="11.5286904"><ele>556.0</ele><time>2026-05-03T10:54:24.658Z</time></trkpt><trkpt lat="43.4493881" lon="11.5284593"><ele>561.5</ele><time>2026-05-03T10:54:25.658Z</time></trkpt><trkpt lat="43.4492422" lon="11.5282287"><ele>567.0</ele><time>2026-05-03T10:54:26.658Z</time></trkpt><trkpt lat="43.4490801" lon="11.5280064"><ele>569.0</ele><time>2026-05-03T10:54:27.659Z</time></trkpt><trkpt lat="43.4489037" lon="11.5277912"><ele>571.0</ele><time>2026-05-03T10:54:28.658Z</time></trkpt><trkpt lat="43.4487224" lon="11.5276064"><ele>573.6666666666667</ele><time>2026-05-03T10:54:29.659Z</time></trkpt><trkpt lat="43.4485582" lon="11.5274216"><ele>576.3333333333334</ele><time>2026-05-03T10:54:30.659Z</time></trkpt><trkpt lat="43.448421" lon="11.5272426"><ele>579.0</ele><time>2026-05-03T10:54:31.658Z</time></trkpt><trkpt lat="43.4483101" lon="11.527063"><ele>581.25</ele><time>2026-05-03T10:54:32.658Z</time></trkpt><trkpt lat="43.4482162" lon="11.5269019"><ele>583.5</ele><time>2026-05-03T10:54:33.658Z</time></trkpt><trkpt lat="43.4481213" lon="11.5267629"><ele>585.75</ele><time>2026-05-03T10:54:34.658Z</time></trkpt><trkpt lat="43.4480128" lon="11.5266725"><ele>588.0</ele><time>2026-05-03T10:54:35.658Z</time></trkpt><trkpt lat="43.4478815" lon="11.5266293"><ele>590.0</ele><time>2026-05-03T10:54:36.659Z</time></trkpt><trkpt lat="43.4477501" lon="11.5266323"><ele>592.0</ele><time>2026-05-03T10:54:37.658Z</time></trkpt><trkpt lat="43.4476103" lon="11.5266724"><ele>594.0</ele><time>2026-05-03T10:54:38.659Z</time></trkpt><trkpt lat="43.4474878" lon="11.5266994"><ele>596.0</ele><time>2026-05-03T10:54:39.658Z</time></trkpt><trkpt lat="43.4473618" lon="11.5266895"><ele>596.0</ele><time>2026-05-03T10:54:40.658Z</time></trkpt><trkpt lat="43.4472348" lon="11.5266305"><ele>596.0</ele><time>2026-05-03T10:54:41.658Z</time></trkpt><trkpt lat="43.4471233" lon="11.5265325"><ele>596.0</ele><time>2026-05-03T10:54:42.659Z</time></trkpt><trkpt lat="43.4470318" lon="11.526421"><ele>596.0</ele><time>2026-05-03T10:54:43.659Z</time></trkpt><trkpt lat="43.4469843" lon="11.5262839"><ele>594.75</ele><time>2026-05-03T10:54:44.658Z</time></trkpt><trkpt lat="43.4469978" lon="11.5261203"><ele>593.5</ele><time>2026-05-03T10:54:45.659Z</time></trkpt><trkpt lat="43.4470476" lon="11.5259778"><ele>592.25</ele><time>2026-05-03T10:54:46.658Z</time></trkpt><trkpt lat="43.4471229" lon="11.5258693"><ele>591.0</ele><time>2026-05-03T10:54:47.658Z</time></trkpt><trkpt lat="43.4472242" lon="11.5258168"><ele>595.75</ele><time>2026-05-03T10:54:48.658Z</time></trkpt><trkpt lat="43.4473384" lon="11.5258306"><ele>600.5</ele><time>2026-05-03T10:54:49.658Z</time></trkpt><trkpt lat="43.4474626" lon="11.5258766"><ele>605.25</ele><time>2026-05-03T10:54:50.658Z</time></trkpt><trkpt lat="43.447598" lon="11.5258908"><ele>610.0</ele><time>2026-05-03T10:54:51.658Z</time></trkpt><trkpt lat="43.4477157" lon="11.5258429"><ele>610.0</ele><time>2026-05-03T10:54:52.658Z</time></trkpt><trkpt lat="43.4478035" lon="11.525742"><ele>610.0</ele><time>2026-05-03T10:54:53.659Z</time></trkpt><trkpt lat="43.4478528" lon="11.5256024"><ele>610.0</ele><time>2026-05-03T10:54:54.658Z</time></trkpt><trkpt lat="43.4478575" lon="11.5254382"><ele>610.0</ele><time>2026-05-03T10:54:55.658Z</time></trkpt><trkpt lat="43.4478127" lon="11.5252555"><ele>610.5</ele><time>2026-05-03T10:54:56.658Z</time></trkpt><trkpt lat="43.4477443" lon="11.52508"><ele>611.0</ele><time>2026-05-03T10:54:57.659Z</time></trkpt><trkpt lat="43.4476981" lon="11.5249204"><ele>611.5</ele><time>2026-05-03T10:54:58.658Z</time></trkpt><trkpt lat="43.4476894" lon="11.5247569"><ele>612.0</ele><time>2026-05-03T10:54:59.658Z</time></trkpt><trkpt lat="43.4477161" lon="11.5246035"><ele>612.6666666666666</ele><time>2026-05-03T10:55:00.658Z</time></trkpt><trkpt lat="43.4477778" lon="11.5244393"><ele>613.3333333333333</ele><time>2026-05-03T10:55:01.658Z</time></trkpt><trkpt lat="43.4478485" lon="11.5242498"><ele>614.0</ele><time>2026-05-03T10:55:02.658Z</time></trkpt><trkpt lat="43.4478935" lon="11.5240345"><ele>614.0</ele><time>2026-05-03T10:55:03.658Z</time></trkpt><trkpt lat="43.4479117" lon="11.5238068"><ele>614.0</ele><time>2026-05-03T10:55:04.658Z</time></trkpt><trkpt lat="43.4478888" lon="11.5235756"><ele>614.0</ele><time>2026-05-03T10:55:05.659Z</time></trkpt><trkpt lat="43.4478427" lon="11.5233381"><ele>616.6666666666666</ele><time>2026-05-03T10:55:06.658Z</time></trkpt><trkpt lat="43.4478137" lon="11.5231045"><ele>619.3333333333334</ele><time>2026-05-03T10:55:07.658Z</time></trkpt><trkpt lat="43.4478106" lon="11.5228781"><ele>622.0</ele><time>2026-05-03T10:55:08.658Z</time></trkpt><trkpt lat="43.4478173" lon="11.5226365"><ele>625.0</ele><time>2026-05-03T10:55:09.658Z</time></trkpt><trkpt lat="43.4477993" lon="11.5224163"><ele>628.0</ele><time>2026-05-03T10:55:10.659Z</time></trkpt><trkpt lat="43.4477486" lon="11.5221987"><ele>631.0</ele><time>2026-05-03T10:55:11.658Z</time></trkpt><trkpt lat="43.4476666" lon="11.5219797"><ele>636.6666666666667</ele><time>2026-05-03T10:55:12.659Z</time></trkpt><trkpt lat="43.4475708" lon="11.5217644"><ele>642.3333333333334</ele><time>2026-05-03T10:55:13.659Z</time></trkpt><trkpt lat="43.4474861" lon="11.5215572"><ele>648.0</ele><time>2026-05-03T10:55:14.659Z</time></trkpt><trkpt lat="43.4474278" lon="11.5213511"><ele>650.0</ele><time>2026-05-03T10:55:15.658Z</time></trkpt><trkpt lat="43.4473975" lon="11.521153"><ele>652.0</ele><time>2026-05-03T10:55:16.658Z</time></trkpt><trkpt lat="43.4473945" lon="11.5209526"><ele>654.0</ele><time>2026-05-03T10:55:17.659Z</time></trkpt><trkpt lat="43.4474162" lon="11.5207534"><ele>656.0</ele><time>2026-05-03T10:55:18.658Z</time></trkpt><trkpt lat="43.4474598" lon="11.5205325"><ele>657.6666666666666</ele><time>2026-05-03T10:55:19.659Z</time></trkpt><trkpt lat="43.4475147" lon="11.5203034"><ele>659.3333333333334</ele><time>2026-05-03T10:55:20.659Z</time></trkpt><trkpt lat="43.4475872" lon="11.5200489"><ele>661.0</ele><time>2026-05-03T10:55:21.658Z</time></trkpt><trkpt lat="43.4476588" lon="11.5198196"><ele>661.0</ele><time>2026-05-03T10:55:22.659Z</time></trkpt><trkpt lat="43.4477057" lon="11.5195983"><ele>661.0</ele><time>2026-05-03T10:55:23.658Z</time></trkpt><trkpt lat="43.4477391" lon="11.5193876"><ele>661.0</ele><time>2026-05-03T10:55:24.659Z</time></trkpt><trkpt lat="43.4477421" lon="11.5191841"><ele>664.6666666666667</ele><time>2026-05-03T10:55:25.658Z</time></trkpt><trkpt lat="43.4477111" lon="11.5189875"><ele>668.3333333333334</ele><time>2026-05-03T10:55:26.659Z</time></trkpt><trkpt lat="43.447647" lon="11.5187884"><ele>672.0</ele><time>2026-05-03T10:55:27.659Z</time></trkpt><trkpt lat="43.4475684" lon="11.5185788"><ele>672.3333333333334</ele><time>2026-05-03T10:55:28.658Z</time></trkpt><trkpt lat="43.4474755" lon="11.5183651"><ele>672.6666666666667</ele><time>2026-05-03T10:55:29.659Z</time></trkpt><trkpt lat="43.4473836" lon="11.5181579"><ele>673.0</ele><time>2026-05-03T10:55:30.658Z</time></trkpt><trkpt lat="43.4473021" lon="11.5179666"><ele>672.75</ele><time>2026-05-03T10:55:31.658Z</time></trkpt><trkpt lat="43.4472359" lon="11.5177913"><ele>672.5</ele><time>2026-05-03T10:55:32.658Z</time></trkpt><trkpt lat="43.4471941" lon="11.5176082"><ele>672.25</ele><time>2026-05-03T10:55:33.659Z</time></trkpt><trkpt lat="43.4471752" lon="11.5174209"><ele>672.0</ele><time>2026-05-03T10:55:34.659Z</time></trkpt><trkpt lat="43.447216" lon="11.5167895"><ele>672.5</ele><time>2026-05-03T10:55:37.659Z</time></trkpt><trkpt lat="43.4472229" lon="11.5165915"><ele>673.0</ele><time>2026-05-03T10:55:38.658Z</time></trkpt><trkpt lat="43.447202" lon="11.5164253"><ele>673.5</ele><time>2026-05-03T10:55:39.658Z</time></trkpt><trkpt lat="43.4471455" lon="11.51628"><ele>674.0</ele><time>2026-05-03T10:55:40.658Z</time></trkpt><trkpt lat="43.4470481" lon="11.5161351"><ele>684.6666666666666</ele><time>2026-05-03T10:55:41.659Z</time></trkpt><trkpt lat="43.4469057" lon="11.5159888"><ele>695.3333333333334</ele><time>2026-05-03T10:55:42.659Z</time></trkpt><trkpt lat="43.4467345" lon="11.5158317"><ele>706.0</ele><time>2026-05-03T10:55:43.659Z</time></trkpt><trkpt lat="43.4465665" lon="11.515687"><ele>706.0</ele><time>2026-05-03T10:55:44.658Z</time></trkpt><trkpt lat="43.4464172" lon="11.5155532"><ele>706.0</ele><time>2026-05-03T10:55:45.659Z</time></trkpt><trkpt lat="43.4462913" lon="11.5154311"><ele>706.0</ele><time>2026-05-03T10:55:46.658Z</time></trkpt><trkpt lat="43.4461885" lon="11.5153113"><ele>711.75</ele><time>2026-05-03T10:55:47.659Z</time></trkpt><trkpt lat="43.4461178" lon="11.5151722"><ele>717.5</ele><time>2026-05-03T10:55:48.659Z</time></trkpt><trkpt lat="43.4460795" lon="11.5149817"><ele>723.25</ele><time>2026-05-03T10:55:49.658Z</time></trkpt><trkpt lat="43.446032" lon="11.5147737"><ele>729.0</ele><time>2026-05-03T10:55:50.658Z</time></trkpt><trkpt lat="43.4459663" lon="11.5145802"><ele>725.75</ele><time>2026-05-03T10:55:51.658Z</time></trkpt><trkpt lat="43.4458746" lon="11.5144136"><ele>722.5</ele><time>2026-05-03T10:55:52.658Z</time></trkpt><trkpt lat="43.4457798" lon="11.514264"><ele>719.25</ele><time>2026-05-03T10:55:53.658Z</time></trkpt><trkpt lat="43.4457107" lon="11.5141177"><ele>716.0</ele><time>2026-05-03T10:55:54.658Z</time></trkpt><trkpt lat="43.4456603" lon="11.5139718"><ele>716.0</ele><time>2026-05-03T10:55:55.659Z</time></trkpt><trkpt lat="43.4456405" lon="11.5138178"><ele>716.0</ele><time>2026-05-03T10:55:56.658Z</time></trkpt><trkpt lat="43.4456518" lon="11.5136473"><ele>716.0</ele><time>2026-05-03T10:55:57.658Z</time></trkpt><trkpt lat="43.4457" lon="11.5134604"><ele>716.0</ele><time>2026-05-03T10:55:58.658Z</time></trkpt><trkpt lat="43.4457675" lon="11.513281"><ele>714.75</ele><time>2026-05-03T10:55:59.659Z</time></trkpt><trkpt lat="43.4457901" lon="11.5131217"><ele>713.5</ele><time>2026-05-03T10:56:00.659Z</time></trkpt><trkpt lat="43.4458022" lon="11.512955"><ele>712.25</ele><time>2026-05-03T10:56:01.658Z</time></trkpt><trkpt lat="43.4457636" lon="11.512782"><ele>711.0</ele><time>2026-05-03T10:56:02.658Z</time></trkpt><trkpt lat="43.4456948" lon="11.5126255"><ele>710.75</ele><time>2026-05-03T10:56:03.659Z</time></trkpt><trkpt lat="43.4456204" lon="11.5124674"><ele>710.5</ele><time>2026-05-03T10:56:04.658Z</time></trkpt><trkpt lat="43.4455612" lon="11.5123017"><ele>710.25</ele><time>2026-05-03T10:56:05.659Z</time></trkpt><trkpt lat="43.4455346" lon="11.5121171"><ele>710.0</ele><time>2026-05-03T10:56:06.658Z</time></trkpt><trkpt lat="43.4455373" lon="11.5118973"><ele>712.6666666666666</ele><time>2026-05-03T10:56:07.658Z</time></trkpt><trkpt lat="43.4455525" lon="11.5116509"><ele>715.3333333333334</ele><time>2026-05-03T10:56:08.658Z</time></trkpt><trkpt lat="43.4455753" lon="11.5113836"><ele>718.0</ele><time>2026-05-03T10:56:09.658Z</time></trkpt><trkpt lat="43.4455912" lon="11.5111159"><ele>722.3333333333334</ele><time>2026-05-03T10:56:10.658Z</time></trkpt><trkpt lat="43.4455779" lon="11.510845"><ele>726.6666666666666</ele><time>2026-05-03T10:56:11.659Z</time></trkpt><trkpt lat="43.4455254" lon="11.5105877"><ele>731.0</ele><time>2026-05-03T10:56:12.659Z</time></trkpt><trkpt lat="43.4454599" lon="11.510317"><ele>731.3333333333333</ele><time>2026-05-03T10:56:13.658Z</time></trkpt><trkpt lat="43.4453826" lon="11.5100753"><ele>731.6666666666666</ele><time>2026-05-03T10:56:14.659Z</time></trkpt><trkpt lat="43.4453189" lon="11.509857"><ele>732.0</ele><time>2026-05-03T10:56:15.658Z</time></trkpt><trkpt lat="43.445272" lon="11.5096509"><ele>740.0</ele><time>2026-05-03T10:56:16.659Z</time></trkpt><trkpt lat="43.4452163" lon="11.5094438"><ele>748.0</ele><time>2026-05-03T10:56:17.658Z</time></trkpt><trkpt lat="43.4451334" lon="11.5092421"><ele>756.0</ele><time>2026-05-03T10:56:18.658Z</time></trkpt><trkpt lat="43.4450527" lon="11.5090351"><ele>756.0</ele><time>2026-05-03T10:56:19.658Z</time></trkpt><trkpt lat="43.4449917" lon="11.5088617"><ele>756.0</ele><time>2026-05-03T10:56:20.659Z</time></trkpt><trkpt lat="43.4449083" lon="11.5087317"><ele>756.0</ele><time>2026-05-03T10:56:21.658Z</time></trkpt><trkpt lat="43.4447967" lon="11.5086483"><ele>756.0</ele><time>2026-05-03T10:56:22.658Z</time></trkpt><trkpt lat="43.444685" lon="11.5085717"><ele>762.75</ele><time>2026-05-03T10:56:23.658Z</time></trkpt><trkpt lat="43.4445617" lon="11.5085233"><ele>769.5</ele><time>2026-05-03T10:56:24.659Z</time></trkpt><trkpt lat="43.4444" lon="11.5085617"><ele>776.25</ele><time>2026-05-03T10:56:25.659Z</time></trkpt><trkpt lat="43.4442433" lon="11.5085783"><ele>783.0</ele><time>2026-05-03T10:56:26.658Z</time></trkpt><trkpt lat="43.4441017" lon="11.5086067"><ele>783.0</ele><time>2026-05-03T10:56:27.659Z</time></trkpt><trkpt lat="43.4439833" lon="11.5086"><ele>783.0</ele><time>2026-05-03T10:56:28.659Z</time></trkpt><trkpt lat="43.4438917" lon="11.5085383"><ele>783.0</ele><time>2026-05-03T10:56:29.659Z</time></trkpt><trkpt lat="43.4438067" lon="11.508445"><ele>783.0</ele><time>2026-05-03T10:56:30.658Z</time></trkpt><trkpt lat="43.443715" lon="11.50837"><ele>783.0</ele><time>2026-05-03T10:56:31.658Z</time></trkpt><trkpt lat="43.4436183" lon="11.5083033"><ele>780.5</ele><time>2026-05-03T10:56:32.659Z</time></trkpt><trkpt lat="43.44352" lon="11.50826"><ele>778.0</ele><time>2026-05-03T10:56:33.658Z</time></trkpt><trkpt lat="43.4433883" lon="11.5082383"><ele>775.5</ele><time>2026-05-03T10:56:34.659Z</time></trkpt><trkpt lat="43.44327" lon="11.5081883"><ele>773.0</ele><time>2026-05-03T10:56:35.659Z</time></trkpt><trkpt lat="43.4431667" lon="11.5081383"><ele>773.0</ele><time>2026-05-03T10:56:36.658Z</time></trkpt><trkpt lat="43.4430733" lon="11.5080567"><ele>773.0</ele><time>2026-05-03T10:56:37.658Z</time></trkpt><trkpt lat="43.4429933" lon="11.507965"><ele>773.0</ele><time>2026-05-03T10:56:38.658Z</time></trkpt><trkpt lat="43.4429417" lon="11.507815"><ele>773.0</ele><time>2026-05-03T10:56:39.659Z</time></trkpt><trkpt lat="43.4429083" lon="11.5077"><ele>773.0</ele><time>2026-05-03T10:56:40.658Z</time></trkpt><trkpt lat="43.4428767" lon="11.5076"><ele>776.2</ele><time>2026-05-03T10:56:41.659Z</time></trkpt><trkpt lat="43.4428433" lon="11.5075067"><ele>779.4</ele><time>2026-05-03T10:56:42.659Z</time></trkpt><trkpt lat="43.4428183" lon="11.5074117"><ele>782.6</ele><time>2026-05-03T10:56:43.659Z</time></trkpt><trkpt lat="43.4426383" lon="11.5074017"><ele>785.8000000000001</ele><time>2026-05-03T10:56:46.659Z</time></trkpt><trkpt lat="43.44256" lon="11.5074167"><ele>789.0</ele><time>2026-05-03T10:56:47.658Z</time></trkpt><trkpt lat="43.4424467" lon="11.50743"><ele>789.0</ele><time>2026-05-03T10:56:48.658Z</time></trkpt><trkpt lat="43.4423033" lon="11.507465"><ele>789.0</ele><time>2026-05-03T10:56:49.658Z</time></trkpt><trkpt lat="43.44216" lon="11.50748"><ele>789.0</ele><time>2026-05-03T10:56:50.658Z</time></trkpt><trkpt lat="43.4420317" lon="11.50748"><ele>789.0</ele><time>2026-05-03T10:56:51.658Z</time></trkpt><trkpt lat="43.4419" lon="11.5074633"><ele>784.5</ele><time>2026-05-03T10:56:52.658Z</time></trkpt><trkpt lat="43.441775" lon="11.507425"><ele>780.0</ele><time>2026-05-03T10:56:53.658Z</time></trkpt><trkpt lat="43.441655" lon="11.5073583"><ele>775.5</ele><time>2026-05-03T10:56:54.659Z</time></trkpt><trkpt lat="43.44155" lon="11.5072683"><ele>771.0</ele><time>2026-05-03T10:56:55.659Z</time></trkpt><trkpt lat="43.441455" lon="11.5071383"><ele>773.0</ele><time>2026-05-03T10:56:56.658Z</time></trkpt><trkpt lat="43.4413683" lon="11.50695"><ele>775.0</ele><time>2026-05-03T10:56:57.659Z</time></trkpt><trkpt lat="43.4413" lon="11.5067383"><ele>777.0</ele><time>2026-05-03T10:56:58.659Z</time></trkpt><trkpt lat="43.4412567" lon="11.5065067"><ele>771.3333333333334</ele><time>2026-05-03T10:56:59.659Z</time></trkpt><trkpt lat="43.4411983" lon="11.5063283"><ele>765.6666666666667</ele><time>2026-05-03T10:57:00.658Z</time></trkpt><trkpt lat="43.4411117" lon="11.5061567"><ele>760.0</ele><time>2026-05-03T10:57:01.659Z</time></trkpt><trkpt lat="43.4409917" lon="11.5059767"><ele>760.0</ele><time>2026-05-03T10:57:02.659Z</time></trkpt><trkpt lat="43.44087" lon="11.5057883"><ele>760.0</ele><time>2026-05-03T10:57:03.659Z</time></trkpt><trkpt lat="43.44074" lon="11.5055967"><ele>760.0</ele><time>2026-05-03T10:57:04.658Z</time></trkpt><trkpt lat="43.4406" lon="11.50541"><ele>757.0</ele><time>2026-05-03T10:57:05.658Z</time></trkpt><trkpt lat="43.44046" lon="11.5052367"><ele>754.0</ele><time>2026-05-03T10:57:06.658Z</time></trkpt><trkpt lat="43.4403267" lon="11.5050817"><ele>751.0</ele><time>2026-05-03T10:57:07.658Z</time></trkpt><trkpt lat="43.440175" lon="11.5049517"><ele>751.0</ele><time>2026-05-03T10:57:08.659Z</time></trkpt><trkpt lat="43.4400233" lon="11.5048133"><ele>751.0</ele><time>2026-05-03T10:57:09.658Z</time></trkpt><trkpt lat="43.439865" lon="11.50467"><ele>751.0</ele><time>2026-05-03T10:57:10.658Z</time></trkpt><trkpt lat="43.4397283" lon="11.504555"><ele>746.0</ele><time>2026-05-03T10:57:11.658Z</time></trkpt><trkpt lat="43.4396167" lon="11.5044583"><ele>741.0</ele><time>2026-05-03T10:57:12.658Z</time></trkpt><trkpt lat="43.43953" lon="11.5043317"><ele>736.0</ele><time>2026-05-03T10:57:13.659Z</time></trkpt><trkpt lat="43.43949" lon="11.5041483"><ele>731.0</ele><time>2026-05-03T10:57:14.658Z</time></trkpt><trkpt lat="43.4394667" lon="11.5039633"><ele>731.0</ele><time>2026-05-03T10:57:15.659Z</time></trkpt><trkpt lat="43.43946" lon="11.503765"><ele>731.0</ele><time>2026-05-03T10:57:16.658Z</time></trkpt><trkpt lat="43.439475" lon="11.5035583"><ele>731.0</ele><time>2026-05-03T10:57:17.658Z</time></trkpt><trkpt lat="43.439495" lon="11.5033733"><ele>731.0</ele><time>2026-05-03T10:57:18.659Z</time></trkpt><trkpt lat="43.43953" lon="11.5032033"><ele>731.0</ele><time>2026-05-03T10:57:19.658Z</time></trkpt><trkpt lat="43.4395383" lon="11.5030483"><ele>731.0</ele><time>2026-05-03T10:57:20.658Z</time></trkpt><trkpt lat="43.4395133" lon="11.5029283"><ele>731.0</ele><time>2026-05-03T10:57:21.658Z</time></trkpt><trkpt lat="43.4394733" lon="11.5028283"><ele>731.0</ele><time>2026-05-03T10:57:22.658Z</time></trkpt><trkpt lat="43.4394" lon="11.5027683"><ele>731.0</ele><time>2026-05-03T10:57:23.659Z</time></trkpt><trkpt lat="43.4392967" lon="11.5027317"><ele>727.3333333333333</ele><time>2026-05-03T10:57:24.659Z</time></trkpt><trkpt lat="43.4391617" lon="11.50275"><ele>723.6666666666666</ele><time>2026-05-03T10:57:25.658Z</time></trkpt><trkpt lat="43.4390067" lon="11.50282"><ele>720.0</ele><time>2026-05-03T10:57:26.659Z</time></trkpt><trkpt lat="43.4388567" lon="11.502905"><ele>717.25</ele><time>2026-05-03T10:57:27.659Z</time></trkpt><trkpt lat="43.4387322" lon="11.5029733"><ele>714.5</ele><time>2026-05-03T10:57:28.659Z</time></trkpt><trkpt lat="43.4386225" lon="11.5030255"><ele>711.75</ele><time>2026-05-03T10:57:29.658Z</time></trkpt><trkpt lat="43.4385123" lon="11.5030425"><ele>709.0</ele><time>2026-05-03T10:57:30.658Z</time></trkpt><trkpt lat="43.4384134" lon="11.503009"><ele>709.0</ele><time>2026-05-03T10:57:31.658Z</time></trkpt><trkpt lat="43.4383263" lon="11.5029207"><ele>709.0</ele><time>2026-05-03T10:57:32.659Z</time></trkpt><trkpt lat="43.438272" lon="11.5027778"><ele>709.0</ele><time>2026-05-03T10:57:33.658Z</time></trkpt><trkpt lat="43.4382314" lon="11.5026144"><ele>709.0</ele><time>2026-05-03T10:57:34.658Z</time></trkpt><trkpt lat="43.438217" lon="11.5024355"><ele>709.0</ele><time>2026-05-03T10:57:35.659Z</time></trkpt><trkpt lat="43.438224" lon="11.5022651"><ele>709.0</ele><time>2026-05-03T10:57:36.659Z</time></trkpt><trkpt lat="43.4382658" lon="11.502104"><ele>709.0</ele><time>2026-05-03T10:57:37.659Z</time></trkpt><trkpt lat="43.4383403" lon="11.5019541"><ele>709.0</ele><time>2026-05-03T10:57:38.659Z</time></trkpt><trkpt lat="43.4384227" lon="11.5018262"><ele>705.75</ele><time>2026-05-03T10:57:39.659Z</time></trkpt><trkpt lat="43.4384827" lon="11.5016917"><ele>702.5</ele><time>2026-05-03T10:57:40.658Z</time></trkpt><trkpt lat="43.4385106" lon="11.5015548"><ele>699.25</ele><time>2026-05-03T10:57:41.659Z</time></trkpt><trkpt lat="43.4385101" lon="11.5014099"><ele>696.0</ele><time>2026-05-03T10:57:42.659Z</time></trkpt><trkpt lat="43.4384449" lon="11.5012471"><ele>695.6666666666666</ele><time>2026-05-03T10:57:43.658Z</time></trkpt><trkpt lat="43.4383546" lon="11.5010788"><ele>695.3333333333333</ele><time>2026-05-03T10:57:44.658Z</time></trkpt><trkpt lat="43.4382435" lon="11.500894"><ele>695.0</ele><time>2026-05-03T10:57:45.658Z</time></trkpt><trkpt lat="43.4381397" lon="11.500696"><ele>695.0</ele><time>2026-05-03T10:57:46.659Z</time></trkpt><trkpt lat="43.4380498" lon="11.5004775"><ele>695.0</ele><time>2026-05-03T10:57:47.659Z</time></trkpt><trkpt lat="43.4379754" lon="11.5002539"><ele>695.0</ele><time>2026-05-03T10:57:48.659Z</time></trkpt><trkpt lat="43.4379002" lon="11.5000298"><ele>698.0</ele><time>2026-05-03T10:57:49.659Z</time></trkpt><trkpt lat="43.4378157" lon="11.4998254"><ele>701.0</ele><time>2026-05-03T10:57:50.658Z</time></trkpt><trkpt lat="43.4377137" lon="11.4996687"><ele>704.0</ele><time>2026-05-03T10:57:51.658Z</time></trkpt><trkpt lat="43.437609" lon="11.499543"><ele>704.0</ele><time>2026-05-03T10:57:52.658Z</time></trkpt><trkpt lat="43.4374997" lon="11.4994499"><ele>704.0</ele><time>2026-05-03T10:57:53.659Z</time></trkpt><trkpt lat="43.4373978" lon="11.4994009"><ele>704.0</ele><time>2026-05-03T10:57:54.659Z</time></trkpt><trkpt lat="43.437234" lon="11.499507"><ele>704.0</ele><time>2026-05-03T10:57:56.658Z</time></trkpt><trkpt lat="43.4371711" lon="11.4996887"><ele>710.0</ele><time>2026-05-03T10:57:57.658Z</time></trkpt><trkpt lat="43.4371099" lon="11.4998813"><ele>716.0</ele><time>2026-05-03T10:57:58.659Z</time></trkpt><trkpt lat="43.4370483" lon="11.5000746"><ele>722.0</ele><time>2026-05-03T10:57:59.659Z</time></trkpt><trkpt lat="43.4369873" lon="11.5002514"><ele>728.0</ele><time>2026-05-03T10:58:00.659Z</time></trkpt><trkpt lat="43.4368929" lon="11.5003844"><ele>722.0</ele><time>2026-05-03T10:58:01.658Z</time></trkpt><trkpt lat="43.4367705" lon="11.5004856"><ele>716.0</ele><time>2026-05-03T10:58:02.658Z</time></trkpt><trkpt lat="43.436631" lon="11.5005417"><ele>710.0</ele><time>2026-05-03T10:58:03.659Z</time></trkpt><trkpt lat="43.4364982" lon="11.5005481"><ele>704.0</ele><time>2026-05-03T10:58:04.658Z</time></trkpt><trkpt lat="43.4363783" lon="11.5005376"><ele>707.75</ele><time>2026-05-03T10:58:05.659Z</time></trkpt><trkpt lat="43.4362582" lon="11.5005606"><ele>711.5</ele><time>2026-05-03T10:58:06.659Z</time></trkpt><trkpt lat="43.4361361" lon="11.5006336"><ele>715.25</ele><time>2026-05-03T10:58:07.658Z</time></trkpt><trkpt lat="43.4360063" lon="11.5007499"><ele>719.0</ele><time>2026-05-03T10:58:08.658Z</time></trkpt><trkpt lat="43.4358583" lon="11.5008896"><ele>719.0</ele><time>2026-05-03T10:58:09.659Z</time></trkpt><trkpt lat="43.4357049" lon="11.5010289"><ele>719.0</ele><time>2026-05-03T10:58:10.658Z</time></trkpt><trkpt lat="43.4355622" lon="11.5011713"><ele>719.0</ele><time>2026-05-03T10:58:11.658Z</time></trkpt><trkpt lat="43.4354325" lon="11.5013146"><ele>715.0</ele><time>2026-05-03T10:58:12.658Z</time></trkpt><trkpt lat="43.4353131" lon="11.501419"><ele>711.0</ele><time>2026-05-03T10:58:13.658Z</time></trkpt><trkpt lat="43.4352098" lon="11.5014593"><ele>707.0</ele><time>2026-05-03T10:58:14.658Z</time></trkpt><trkpt lat="43.435103" lon="11.5014373"><ele>703.0</ele><time>2026-05-03T10:58:15.658Z</time></trkpt><trkpt lat="43.4349885" lon="11.5013756"><ele>703.0</ele><time>2026-05-03T10:58:16.658Z</time></trkpt><trkpt lat="43.4348858" lon="11.5012697"><ele>703.0</ele><time>2026-05-03T10:58:17.658Z</time></trkpt><trkpt lat="43.4347978" lon="11.5011409"><ele>703.0</ele><time>2026-05-03T10:58:18.659Z</time></trkpt><trkpt lat="43.4347202" lon="11.5009701"><ele>703.0</ele><time>2026-05-03T10:58:19.658Z</time></trkpt><trkpt lat="43.4346567" lon="11.5007843"><ele>701.0</ele><time>2026-05-03T10:58:20.659Z</time></trkpt><trkpt lat="43.434626" lon="11.5005869"><ele>699.0</ele><time>2026-05-03T10:58:21.659Z</time></trkpt><trkpt lat="43.4346286" lon="11.5003889"><ele>697.0</ele><time>2026-05-03T10:58:22.659Z</time></trkpt><trkpt lat="43.4346524" lon="11.5001849"><ele>695.0</ele><time>2026-05-03T10:58:23.659Z</time></trkpt><trkpt lat="43.4346607" lon="11.4999569"><ele>697.0</ele><time>2026-05-03T10:58:24.659Z</time></trkpt><trkpt lat="43.4346382" lon="11.4997201"><ele>699.0</ele><time>2026-05-03T10:58:25.658Z</time></trkpt><trkpt lat="43.4345937" lon="11.499474"><ele>701.0</ele><time>2026-05-03T10:58:26.658Z</time></trkpt><trkpt lat="43.4345435" lon="11.4992353"><ele>701.0</ele><time>2026-05-03T10:58:27.659Z</time></trkpt><trkpt lat="43.4344922" lon="11.4990226"><ele>701.0</ele><time>2026-05-03T10:58:28.658Z</time></trkpt><trkpt lat="43.4344103" lon="11.4988503"><ele>701.0</ele><time>2026-05-03T10:58:29.658Z</time></trkpt><trkpt lat="43.4343095" lon="11.4987071"><ele>704.25</ele><time>2026-05-03T10:58:30.658Z</time></trkpt><trkpt lat="43.4341954" lon="11.4985895"><ele>707.5</ele><time>2026-05-03T10:58:31.658Z</time></trkpt><trkpt lat="43.434093" lon="11.4984446"><ele>710.75</ele><time>2026-05-03T10:58:32.658Z</time></trkpt><trkpt lat="43.4340083" lon="11.4982916"><ele>714.0</ele><time>2026-05-03T10:58:33.659Z</time></trkpt><trkpt lat="43.4339635" lon="11.4981012"><ele>717.0</ele><time>2026-05-03T10:58:34.659Z</time></trkpt><trkpt lat="43.433936" lon="11.4978754"><ele>720.0</ele><time>2026-05-03T10:58:35.658Z</time></trkpt><trkpt lat="43.4339111" lon="11.497644"><ele>723.0</ele><time>2026-05-03T10:58:36.659Z</time></trkpt><trkpt lat="43.4338897" lon="11.4974071"><ele>723.0</ele><time>2026-05-03T10:58:37.658Z</time></trkpt><trkpt lat="43.4338667" lon="11.4971857"><ele>723.0</ele><time>2026-05-03T10:58:38.659Z</time></trkpt><trkpt lat="43.4338383" lon="11.4969718"><ele>723.0</ele><time>2026-05-03T10:58:39.658Z</time></trkpt><trkpt lat="43.4337801" lon="11.4967694"><ele>717.6666666666666</ele><time>2026-05-03T10:58:40.658Z</time></trkpt><trkpt lat="43.4336784" lon="11.4965872"><ele>712.3333333333333</ele><time>2026-05-03T10:58:41.658Z</time></trkpt><trkpt lat="43.4335471" lon="11.4964236"><ele>707.0</ele><time>2026-05-03T10:58:42.658Z</time></trkpt><trkpt lat="43.4333798" lon="11.4962835"><ele>706.3333333333333</ele><time>2026-05-03T10:58:43.659Z</time></trkpt><trkpt lat="43.4332123" lon="11.4961705"><ele>705.6666666666666</ele><time>2026-05-03T10:58:44.659Z</time></trkpt><trkpt lat="43.4330361" lon="11.4961"><ele>705.0</ele><time>2026-05-03T10:58:45.658Z</time></trkpt><trkpt lat="43.4328768" lon="11.4960386"><ele>705.0</ele><time>2026-05-03T10:58:46.658Z</time></trkpt><trkpt lat="43.4327447" lon="11.4959645"><ele>705.0</ele><time>2026-05-03T10:58:47.659Z</time></trkpt><trkpt lat="43.4326535" lon="11.4958602"><ele>705.0</ele><time>2026-05-03T10:58:48.658Z</time></trkpt><trkpt lat="43.4325791" lon="11.4957146"><ele>705.0</ele><time>2026-05-03T10:58:49.657Z</time></trkpt><trkpt lat="43.4325213" lon="11.4955324"><ele>706.0</ele><time>2026-05-03T10:58:50.657Z</time></trkpt><trkpt lat="43.432499" lon="11.495319"><ele>707.0</ele><time>2026-05-03T10:58:51.657Z</time></trkpt><trkpt lat="43.432476" lon="11.4951044"><ele>708.0</ele><time>2026-05-03T10:58:52.657Z</time></trkpt><trkpt lat="43.4324391" lon="11.4948996"><ele>708.0</ele><time>2026-05-03T10:58:53.657Z</time></trkpt><trkpt lat="43.4323884" lon="11.494708"><ele>708.0</ele><time>2026-05-03T10:58:54.657Z</time></trkpt><trkpt lat="43.4323379" lon="11.494537"><ele>708.0</ele><time>2026-05-03T10:58:55.658Z</time></trkpt><trkpt lat="43.4322927" lon="11.4943808"><ele>708.0</ele><time>2026-05-03T10:58:56.657Z</time></trkpt><trkpt lat="43.4322685" lon="11.4942358"><ele>707.5</ele><time>2026-05-03T10:58:57.657Z</time></trkpt><trkpt lat="43.4323029" lon="11.4940954"><ele>707.0</ele><time>2026-05-03T10:58:58.657Z</time></trkpt><trkpt lat="43.4323669" lon="11.4939632"><ele>706.5</ele><time>2026-05-03T10:58:59.657Z</time></trkpt><trkpt lat="43.4324438" lon="11.493836"><ele>706.0</ele><time>2026-05-03T10:59:00.657Z</time></trkpt><trkpt lat="43.4325026" lon="11.4937115"><ele>704.4</ele><time>2026-05-03T10:59:01.657Z</time></trkpt><trkpt lat="43.4325378" lon="11.493583"><ele>702.8</ele><time>2026-05-03T10:59:02.657Z</time></trkpt><trkpt lat="43.4325362" lon="11.4934803"><ele>701.1999999999999</ele><time>2026-05-03T10:59:03.657Z</time></trkpt><trkpt lat="43.432464" lon="11.493418"><ele>699.5999999999999</ele><time>2026-05-03T10:59:04.657Z</time></trkpt><trkpt lat="43.4323727" lon="11.4933961"><ele>698.0</ele><time>2026-05-03T10:59:05.657Z</time></trkpt><trkpt lat="43.4321782" lon="11.4934371"><ele>693.8</ele><time>2026-05-03T10:59:07.657Z</time></trkpt><trkpt lat="43.432082" lon="11.4934962"><ele>689.5999999999999</ele><time>2026-05-03T10:59:08.658Z</time></trkpt><trkpt lat="43.4319925" lon="11.4935362"><ele>685.4000000000001</ele><time>2026-05-03T10:59:09.657Z</time></trkpt><trkpt lat="43.4319096" lon="11.4935472"><ele>681.2</ele><time>2026-05-03T10:59:10.657Z</time></trkpt><trkpt lat="43.4318398" lon="11.49353"><ele>677.0</ele><time>2026-05-03T10:59:11.657Z</time></trkpt><trkpt lat="43.4317661" lon="11.4933948"><ele>677.0</ele><time>2026-05-03T10:59:13.657Z</time></trkpt><trkpt lat="43.4317658" lon="11.4932725"><ele>677.0</ele><time>2026-05-03T10:59:14.657Z</time></trkpt><trkpt lat="43.431806" lon="11.4930989"><ele>677.0</ele><time>2026-05-03T10:59:15.658Z</time></trkpt><trkpt lat="43.4318853" lon="11.4929054"><ele>677.0</ele><time>2026-05-03T10:59:16.658Z</time></trkpt><trkpt lat="43.4319948" lon="11.4926936"><ele>675.3333333333333</ele><time>2026-05-03T10:59:17.657Z</time></trkpt><trkpt lat="43.4320895" lon="11.4924896"><ele>673.6666666666666</ele><time>2026-05-03T10:59:18.658Z</time></trkpt><trkpt lat="43.4321594" lon="11.492278"><ele>672.0</ele><time>2026-05-03T10:59:19.657Z</time></trkpt><trkpt lat="43.4321953" lon="11.4920776"><ele>672.0</ele><time>2026-05-03T10:59:20.658Z</time></trkpt><trkpt lat="43.4321843" lon="11.4918985"><ele>672.0</ele><time>2026-05-03T10:59:21.657Z</time></trkpt><trkpt lat="43.4321428" lon="11.4916978"><ele>672.0</ele><time>2026-05-03T10:59:22.657Z</time></trkpt><trkpt lat="43.432097" lon="11.4914788"><ele>672.0</ele><time>2026-05-03T10:59:23.658Z</time></trkpt><trkpt lat="43.4320693" lon="11.4912581"><ele>673.0</ele><time>2026-05-03T10:59:24.658Z</time></trkpt><trkpt lat="43.432078" lon="11.4910346"><ele>674.0</ele><time>2026-05-03T10:59:25.657Z</time></trkpt><trkpt lat="43.4321341" lon="11.4908082"><ele>675.0</ele><time>2026-05-03T10:59:26.657Z</time></trkpt><trkpt lat="43.4322093" lon="11.4905873"><ele>673.3333333333334</ele><time>2026-05-03T10:59:27.658Z</time></trkpt><trkpt lat="43.4322963" lon="11.490374"><ele>671.6666666666667</ele><time>2026-05-03T10:59:28.658Z</time></trkpt><trkpt lat="43.4323752" lon="11.4901787"><ele>670.0</ele><time>2026-05-03T10:59:29.657Z</time></trkpt><trkpt lat="43.4324562" lon="11.4900047"><ele>670.0</ele><time>2026-05-03T10:59:30.657Z</time></trkpt><trkpt lat="43.4325315" lon="11.4898717"><ele>670.0</ele><time>2026-05-03T10:59:31.657Z</time></trkpt><trkpt lat="43.4326059" lon="11.48974"><ele>670.0</ele><time>2026-05-03T10:59:32.657Z</time></trkpt><trkpt lat="43.4326463" lon="11.4895938"><ele>670.0</ele><time>2026-05-03T10:59:33.658Z</time></trkpt><trkpt lat="43.4326507" lon="11.4894387"><ele>669.5</ele><time>2026-05-03T10:59:34.658Z</time></trkpt><trkpt lat="43.4326215" lon="11.4892676"><ele>669.0</ele><time>2026-05-03T10:59:35.657Z</time></trkpt><trkpt lat="43.4325631" lon="11.4890853"><ele>668.5</ele><time>2026-05-03T10:59:36.658Z</time></trkpt><trkpt lat="43.4324777" lon="11.4889101"><ele>668.0</ele><time>2026-05-03T10:59:37.657Z</time></trkpt><trkpt lat="43.4323722" lon="11.4887537"><ele>665.6666666666666</ele><time>2026-05-03T10:59:38.657Z</time></trkpt><trkpt lat="43.432232" lon="11.4886087"><ele>663.3333333333334</ele><time>2026-05-03T10:59:39.657Z</time></trkpt><trkpt lat="43.4320889" lon="11.4884941"><ele>661.0</ele><time>2026-05-03T10:59:40.657Z</time></trkpt><trkpt lat="43.431923" lon="11.4883718"><ele>666.6666666666667</ele><time>2026-05-03T10:59:41.658Z</time></trkpt><trkpt lat="43.4317363" lon="11.4882666"><ele>672.3333333333334</ele><time>2026-05-03T10:59:42.657Z</time></trkpt><trkpt lat="43.4315532" lon="11.4881773"><ele>678.0</ele><time>2026-05-03T10:59:43.658Z</time></trkpt><trkpt lat="43.4314012" lon="11.4880917"><ele>676.0</ele><time>2026-05-03T10:59:44.658Z</time></trkpt><trkpt lat="43.4312798" lon="11.4879821"><ele>674.0</ele><time>2026-05-03T10:59:45.657Z</time></trkpt><trkpt lat="43.4312105" lon="11.4878567"><ele>672.0</ele><time>2026-05-03T10:59:46.658Z</time></trkpt><trkpt lat="43.4311777" lon="11.4877209"><ele>670.0</ele><time>2026-05-03T10:59:47.658Z</time></trkpt><trkpt lat="43.4311708" lon="11.4875674"><ele>668.75</ele><time>2026-05-03T10:59:48.658Z</time></trkpt><trkpt lat="43.4311838" lon="11.4873917"><ele>667.5</ele><time>2026-05-03T10:59:49.658Z</time></trkpt><trkpt lat="43.4311913" lon="11.4872003"><ele>666.25</ele><time>2026-05-03T10:59:50.657Z</time></trkpt><trkpt lat="43.4311889" lon="11.486993"><ele>665.0</ele><time>2026-05-03T10:59:51.657Z</time></trkpt><trkpt lat="43.4311479" lon="11.486782"><ele>668.6666666666666</ele><time>2026-05-03T10:59:52.657Z</time></trkpt><trkpt lat="43.4310834" lon="11.4865616"><ele>672.3333333333334</ele><time>2026-05-03T10:59:53.658Z</time></trkpt><trkpt lat="43.430995" lon="11.4863524"><ele>676.0</ele><time>2026-05-03T10:59:54.657Z</time></trkpt><trkpt lat="43.4308926" lon="11.4861836"><ele>678.5</ele><time>2026-05-03T10:59:55.657Z</time></trkpt><trkpt lat="43.4307912" lon="11.4860501"><ele>681.0</ele><time>2026-05-03T10:59:56.658Z</time></trkpt><trkpt lat="43.4306889" lon="11.485957"><ele>683.5</ele><time>2026-05-03T10:59:57.658Z</time></trkpt><trkpt lat="43.4305684" lon="11.4859033"><ele>686.0</ele><time>2026-05-03T10:59:58.658Z</time></trkpt><trkpt lat="43.4304446" lon="11.4859163"><ele>686.0</ele><time>2026-05-03T10:59:59.657Z</time></trkpt><trkpt lat="43.4303183" lon="11.4859718"><ele>686.0</ele><time>2026-05-03T11:00:00.657Z</time></trkpt><trkpt lat="43.4301745" lon="11.4859901"><ele>686.0</ele><time>2026-05-03T11:00:01.657Z</time></trkpt><trkpt lat="43.4300236" lon="11.4859682"><ele>686.0</ele><time>2026-05-03T11:00:02.658Z</time></trkpt><trkpt lat="43.4298776" lon="11.485895"><ele>686.0</ele><time>2026-05-03T11:00:03.657Z</time></trkpt><trkpt lat="43.4297335" lon="11.4857828"><ele>686.0</ele><time>2026-05-03T11:00:04.657Z</time></trkpt><trkpt lat="43.4295774" lon="11.4856455"><ele>686.0</ele><time>2026-05-03T11:00:05.657Z</time></trkpt><trkpt lat="43.4294092" lon="11.4855177"><ele>684.0</ele><time>2026-05-03T11:00:06.658Z</time></trkpt><trkpt lat="43.429247" lon="11.4854012"><ele>682.0</ele><time>2026-05-03T11:00:07.657Z</time></trkpt><trkpt lat="43.4290883" lon="11.4853166"><ele>680.0</ele><time>2026-05-03T11:00:08.657Z</time></trkpt><trkpt lat="43.4289276" lon="11.4852607"><ele>680.0</ele><time>2026-05-03T11:00:09.658Z</time></trkpt><trkpt lat="43.4287599" lon="11.4852538"><ele>680.0</ele><time>2026-05-03T11:00:10.657Z</time></trkpt><trkpt lat="43.4286009" lon="11.4852486"><ele>680.0</ele><time>2026-05-03T11:00:11.657Z</time></trkpt><trkpt lat="43.4284396" lon="11.4852362"><ele>680.0</ele><time>2026-05-03T11:00:12.658Z</time></trkpt><trkpt lat="43.4282702" lon="11.4852034"><ele>680.0</ele><time>2026-05-03T11:00:13.658Z</time></trkpt><trkpt lat="43.4281014" lon="11.4851719"><ele>680.0</ele><time>2026-05-03T11:00:14.657Z</time></trkpt><trkpt lat="43.4279514" lon="11.4851775"><ele>681.6666666666666</ele><time>2026-05-03T11:00:15.657Z</time></trkpt><trkpt lat="43.427816" lon="11.48524"><ele>683.3333333333334</ele><time>2026-05-03T11:00:16.658Z</time></trkpt><trkpt lat="43.427688" lon="11.4853542"><ele>685.0</ele><time>2026-05-03T11:00:17.658Z</time></trkpt><trkpt lat="43.4275572" lon="11.4855082"><ele>685.0</ele><time>2026-05-03T11:00:18.657Z</time></trkpt><trkpt lat="43.4274268" lon="11.485663"><ele>685.0</ele><time>2026-05-03T11:00:19.657Z</time></trkpt><trkpt lat="43.4273026" lon="11.4858163"><ele>685.0</ele><time>2026-05-03T11:00:20.657Z</time></trkpt><trkpt lat="43.4272009" lon="11.4859744"><ele>688.3333333333334</ele><time>2026-05-03T11:00:21.658Z</time></trkpt><trkpt lat="43.4271294" lon="11.4861499"><ele>691.6666666666666</ele><time>2026-05-03T11:00:22.658Z</time></trkpt><trkpt lat="43.4270713" lon="11.4863585"><ele>695.0</ele><time>2026-05-03T11:00:23.658Z</time></trkpt><trkpt lat="43.4270152" lon="11.4865938"><ele>695.0</ele><time>2026-05-03T11:00:24.657Z</time></trkpt><trkpt lat="43.4269519" lon="11.486814"><ele>695.0</ele><time>2026-05-03T11:00:25.658Z</time></trkpt><trkpt lat="43.4268865" lon="11.4870273"><ele>695.0</ele><time>2026-05-03T11:00:26.657Z</time></trkpt><trkpt lat="43.4268325" lon="11.4872364"><ele>691.75</ele><time>2026-05-03T11:00:27.657Z</time></trkpt><trkpt lat="43.4268025" lon="11.4874386"><ele>688.5</ele><time>2026-05-03T11:00:28.657Z</time></trkpt><trkpt lat="43.426785" lon="11.4876223"><ele>685.25</ele><time>2026-05-03T11:00:29.657Z</time></trkpt><trkpt lat="43.4267554" lon="11.4878057"><ele>682.0</ele><time>2026-05-03T11:00:30.657Z</time></trkpt><trkpt lat="43.4266977" lon="11.4879906"><ele>678.5</ele><time>2026-05-03T11:00:31.657Z</time></trkpt><trkpt lat="43.4266341" lon="11.4881809"><ele>675.0</ele><time>2026-05-03T11:00:32.658Z</time></trkpt><trkpt lat="43.426568" lon="11.4883608"><ele>671.5</ele><time>2026-05-03T11:00:33.657Z</time></trkpt><trkpt lat="43.4265008" lon="11.4885135"><ele>668.0</ele><time>2026-05-03T11:00:34.657Z</time></trkpt><trkpt lat="43.4264328" lon="11.4886403"><ele>668.0</ele><time>2026-05-03T11:00:35.657Z</time></trkpt><trkpt lat="43.4263632" lon="11.4887257"><ele>668.0</ele><time>2026-05-03T11:00:36.658Z</time></trkpt><trkpt lat="43.4262709" lon="11.4887184"><ele>668.0</ele><time>2026-05-03T11:00:37.657Z</time></trkpt><trkpt lat="43.4261678" lon="11.4886847"><ele>668.0</ele><time>2026-05-03T11:00:38.658Z</time></trkpt><trkpt lat="43.4260695" lon="11.488629"><ele>668.0</ele><time>2026-05-03T11:00:39.658Z</time></trkpt><trkpt lat="43.425984" lon="11.4885198"><ele>669.75</ele><time>2026-05-03T11:00:40.658Z</time></trkpt><trkpt lat="43.4259199" lon="11.4883499"><ele>671.5</ele><time>2026-05-03T11:00:41.658Z</time></trkpt><trkpt lat="43.4258785" lon="11.4881705"><ele>673.25</ele><time>2026-05-03T11:00:42.658Z</time></trkpt><trkpt lat="43.4258297" lon="11.4879961"><ele>675.0</ele><time>2026-05-03T11:00:43.658Z</time></trkpt><trkpt lat="43.4257598" lon="11.4878347"><ele>675.0</ele><time>2026-05-03T11:00:44.657Z</time></trkpt><trkpt lat="43.4256633" lon="11.4877162"><ele>675.0</ele><time>2026-05-03T11:00:45.658Z</time></trkpt><trkpt lat="43.4255406" lon="11.4876566"><ele>675.0</ele><time>2026-05-03T11:00:46.657Z</time></trkpt><trkpt lat="43.4254008" lon="11.4876314"><ele>675.0</ele><time>2026-05-03T11:00:47.657Z</time></trkpt><trkpt lat="43.4252544" lon="11.4875904"><ele>670.75</ele><time>2026-05-03T11:00:48.658Z</time></trkpt><trkpt lat="43.4250992" lon="11.4875491"><ele>666.5</ele><time>2026-05-03T11:00:49.658Z</time></trkpt><trkpt lat="43.4249624" lon="11.4874854"><ele>662.25</ele><time>2026-05-03T11:00:50.657Z</time></trkpt><trkpt lat="43.4248464" lon="11.4874265"><ele>658.0</ele><time>2026-05-03T11:00:51.658Z</time></trkpt><trkpt lat="43.4247489" lon="11.4873868"><ele>658.0</ele><time>2026-05-03T11:00:52.658Z</time></trkpt><trkpt lat="43.4246735" lon="11.4873633"><ele>658.0</ele><time>2026-05-03T11:00:53.657Z</time></trkpt><trkpt lat="43.4246101" lon="11.4873496"><ele>658.0</ele><time>2026-05-03T11:00:54.657Z</time></trkpt><trkpt lat="43.424524" lon="11.4873432"><ele>658.0</ele><time>2026-05-03T11:00:56.657Z</time></trkpt><trkpt lat="43.424469" lon="11.4873926"><ele>658.0</ele><time>2026-05-03T11:00:59.657Z</time></trkpt><trkpt lat="43.4244083" lon="11.4875083"><ele>658.0</ele><time>2026-05-03T11:02:03.658Z</time></trkpt><trkpt lat="43.424325" lon="11.4875933"><ele>656.25</ele><time>2026-05-03T11:02:04.657Z</time></trkpt><trkpt lat="43.42424" lon="11.4876867"><ele>654.5</ele><time>2026-05-03T11:02:05.658Z</time></trkpt><trkpt lat="43.42413" lon="11.487805"><ele>652.75</ele><time>2026-05-03T11:02:06.657Z</time></trkpt><trkpt lat="43.4240133" lon="11.487915"><ele>651.0</ele><time>2026-05-03T11:02:07.658Z</time></trkpt><trkpt lat="43.4238967" lon="11.4880067"><ele>650.5</ele><time>2026-05-03T11:02:08.657Z</time></trkpt><trkpt lat="43.423775" lon="11.48809"><ele>650.0</ele><time>2026-05-03T11:02:09.657Z</time></trkpt><trkpt lat="43.4236417" lon="11.48817"><ele>649.5</ele><time>2026-05-03T11:02:10.658Z</time></trkpt><trkpt lat="43.4235133" lon="11.4882383"><ele>649.0</ele><time>2026-05-03T11:02:11.657Z</time></trkpt><trkpt lat="43.423395" lon="11.48831"><ele>649.0</ele><time>2026-05-03T11:02:12.657Z</time></trkpt><trkpt lat="43.4232867" lon="11.4883867"><ele>649.0</ele><time>2026-05-03T11:02:13.657Z</time></trkpt><trkpt lat="43.4231683" lon="11.4884633"><ele>649.0</ele><time>2026-05-03T11:02:14.657Z</time></trkpt><trkpt lat="43.42301" lon="11.4885233"><ele>649.0</ele><time>2026-05-03T11:02:15.657Z</time></trkpt><trkpt lat="43.4228433" lon="11.4886017"><ele>647.6666666666667</ele><time>2026-05-03T11:02:16.658Z</time></trkpt><trkpt lat="43.4226733" lon="11.488695"><ele>646.3333333333334</ele><time>2026-05-03T11:02:17.657Z</time></trkpt><trkpt lat="43.4224967" lon="11.4888017"><ele>645.0</ele><time>2026-05-03T11:02:18.658Z</time></trkpt><trkpt lat="43.4223283" lon="11.48889"><ele>644.6666666666666</ele><time>2026-05-03T11:02:19.658Z</time></trkpt><trkpt lat="43.4221583" lon="11.4889867"><ele>644.3333333333333</ele><time>2026-05-03T11:02:20.657Z</time></trkpt><trkpt lat="43.4219967" lon="11.48908"><ele>644.0</ele><time>2026-05-03T11:02:21.657Z</time></trkpt><trkpt lat="43.42184" lon="11.489185"><ele>643.0</ele><time>2026-05-03T11:02:22.658Z</time></trkpt><trkpt lat="43.42168" lon="11.4892733"><ele>642.0</ele><time>2026-05-03T11:02:23.658Z</time></trkpt><trkpt lat="43.4215133" lon="11.489315"><ele>641.0</ele><time>2026-05-03T11:02:24.658Z</time></trkpt><trkpt lat="43.42133" lon="11.489335"><ele>638.6666666666666</ele><time>2026-05-03T11:02:25.657Z</time></trkpt><trkpt lat="43.4211533" lon="11.4893667"><ele>636.3333333333334</ele><time>2026-05-03T11:02:26.657Z</time></trkpt><trkpt lat="43.420985" lon="11.48938"><ele>634.0</ele><time>2026-05-03T11:02:27.657Z</time></trkpt><trkpt lat="43.4208433" lon="11.4894133"><ele>634.0</ele><time>2026-05-03T11:02:28.657Z</time></trkpt><trkpt lat="43.420715" lon="11.489495"><ele>634.0</ele><time>2026-05-03T11:02:29.657Z</time></trkpt><trkpt lat="43.4205933" lon="11.4896267"><ele>634.0</ele><time>2026-05-03T11:02:30.657Z</time></trkpt><trkpt lat="43.4204917" lon="11.4898067"><ele>638.3333333333334</ele><time>2026-05-03T11:02:31.657Z</time></trkpt><trkpt lat="43.420395" lon="11.4900317"><ele>642.6666666666666</ele><time>2026-05-03T11:02:32.658Z</time></trkpt><trkpt lat="43.4203217" lon="11.4902667"><ele>647.0</ele><time>2026-05-03T11:02:33.657Z</time></trkpt><trkpt lat="43.4202317" lon="11.49047"><ele>650.0</ele><time>2026-05-03T11:02:34.657Z</time></trkpt><trkpt lat="43.4201467" lon="11.4906667"><ele>653.0</ele><time>2026-05-03T11:02:35.657Z</time></trkpt><trkpt lat="43.42003" lon="11.4908467"><ele>656.0</ele><time>2026-05-03T11:02:36.657Z</time></trkpt><trkpt lat="43.4199133" lon="11.49103"><ele>656.0</ele><time>2026-05-03T11:02:37.657Z</time></trkpt><trkpt lat="43.41981" lon="11.4912067"><ele>656.0</ele><time>2026-05-03T11:02:38.657Z</time></trkpt><trkpt lat="43.41971" lon="11.491385"><ele>656.0</ele><time>2026-05-03T11:02:39.658Z</time></trkpt><trkpt lat="43.419605" lon="11.4915283"><ele>655.75</ele><time>2026-05-03T11:02:40.657Z</time></trkpt><trkpt lat="43.4194883" lon="11.49162"><ele>655.5</ele><time>2026-05-03T11:02:41.658Z</time></trkpt><trkpt lat="43.4193717" lon="11.4916567"><ele>655.25</ele><time>2026-05-03T11:02:42.658Z</time></trkpt><trkpt lat="43.41925" lon="11.49163"><ele>655.0</ele><time>2026-05-03T11:02:43.657Z</time></trkpt><trkpt lat="43.4191217" lon="11.491565"><ele>655.0</ele><time>2026-05-03T11:02:44.657Z</time></trkpt><trkpt lat="43.4189867" lon="11.491495"><ele>655.0</ele><time>2026-05-03T11:02:45.658Z</time></trkpt><trkpt lat="43.41885" lon="11.49146"><ele>655.0</ele><time>2026-05-03T11:02:46.657Z</time></trkpt><trkpt lat="43.4187017" lon="11.4914717"><ele>655.0</ele><time>2026-05-03T11:02:47.658Z</time></trkpt><trkpt lat="43.4185617" lon="11.491545"><ele>656.0</ele><time>2026-05-03T11:02:48.657Z</time></trkpt><trkpt lat="43.4184417" lon="11.491655"><ele>657.0</ele><time>2026-05-03T11:02:49.658Z</time></trkpt><trkpt lat="43.4183283" lon="11.49177"><ele>658.0</ele><time>2026-05-03T11:02:50.657Z</time></trkpt><trkpt lat="43.4182233" lon="11.4918433"><ele>659.0</ele><time>2026-05-03T11:02:51.657Z</time></trkpt><trkpt lat="43.418135" lon="11.49184"><ele>659.0</ele><time>2026-05-03T11:02:52.658Z</time></trkpt><trkpt lat="43.4180617" lon="11.4917833"><ele>659.0</ele><time>2026-05-03T11:02:53.658Z</time></trkpt><trkpt lat="43.4180217" lon="11.4916567"><ele>659.0</ele><time>2026-05-03T11:02:54.657Z</time></trkpt><trkpt lat="43.4179867" lon="11.4915233"><ele>659.0</ele><time>2026-05-03T11:02:55.658Z</time></trkpt><trkpt lat="43.4179383" lon="11.49138"><ele>659.0</ele><time>2026-05-03T11:02:56.658Z</time></trkpt><trkpt lat="43.4178683" lon="11.49123"><ele>660.0</ele><time>2026-05-03T11:02:57.658Z</time></trkpt><trkpt lat="43.4177483" lon="11.4911"><ele>661.0</ele><time>2026-05-03T11:02:58.658Z</time></trkpt><trkpt lat="43.4176217" lon="11.49097"><ele>662.0</ele><time>2026-05-03T11:02:59.657Z</time></trkpt><trkpt lat="43.4175217" lon="11.4908533"><ele>663.0</ele><time>2026-05-03T11:03:00.657Z</time></trkpt><trkpt lat="43.41745" lon="11.4907117"><ele>663.0</ele><time>2026-05-03T11:03:01.657Z</time></trkpt><trkpt lat="43.4174083" lon="11.49054"><ele>663.0</ele><time>2026-05-03T11:03:02.657Z</time></trkpt><trkpt lat="43.417345" lon="11.4903833"><ele>663.0</ele><time>2026-05-03T11:03:03.657Z</time></trkpt><trkpt lat="43.417275" lon="11.490235"><ele>663.0</ele><time>2026-05-03T11:03:04.657Z</time></trkpt><trkpt lat="43.4171867" lon="11.490135"><ele>665.4</ele><time>2026-05-03T11:03:05.657Z</time></trkpt><trkpt lat="43.4170917" lon="11.4900767"><ele>667.8</ele><time>2026-05-03T11:03:06.657Z</time></trkpt><trkpt lat="43.4170067" lon="11.490075"><ele>670.2</ele><time>2026-05-03T11:03:07.658Z</time></trkpt><trkpt lat="43.41692" lon="11.49013"><ele>672.6</ele><time>2026-05-03T11:03:08.658Z</time></trkpt><trkpt lat="43.4168183" lon="11.4902967"><ele>675.0</ele><time>2026-05-03T11:03:09.657Z</time></trkpt><trkpt lat="43.4167133" lon="11.4904067"><ele>674.0</ele><time>2026-05-03T11:03:10.657Z</time></trkpt><trkpt lat="43.416605" lon="11.49048"><ele>673.0</ele><time>2026-05-03T11:03:11.658Z</time></trkpt><trkpt lat="43.4164833" lon="11.490515"><ele>672.0</ele><time>2026-05-03T11:03:12.657Z</time></trkpt><trkpt lat="43.4163483" lon="11.4905317"><ele>671.0</ele><time>2026-05-03T11:03:13.657Z</time></trkpt><trkpt lat="43.4162167" lon="11.49052"><ele>671.0</ele><time>2026-05-03T11:03:14.657Z</time></trkpt><trkpt lat="43.4161083" lon="11.4905383"><ele>671.0</ele><time>2026-05-03T11:03:15.657Z</time></trkpt><trkpt lat="43.4160017" lon="11.4906117"><ele>671.0</ele><time>2026-05-03T11:03:16.657Z</time></trkpt><trkpt lat="43.415935" lon="11.4907667"><ele>671.0</ele><time>2026-05-03T11:03:17.658Z</time></trkpt><trkpt lat="43.4158817" lon="11.49095"><ele>671.0</ele><time>2026-05-03T11:03:18.657Z</time></trkpt><trkpt lat="43.41584" lon="11.4911367"><ele>671.0</ele><time>2026-05-03T11:03:19.658Z</time></trkpt><trkpt lat="43.415785" lon="11.4913017"><ele>671.0</ele><time>2026-05-03T11:03:20.658Z</time></trkpt><trkpt lat="43.4157183" lon="11.4914133"><ele>671.0</ele><time>2026-05-03T11:03:21.657Z</time></trkpt><trkpt lat="43.41565" lon="11.4915133"><ele>666.0</ele><time>2026-05-03T11:03:22.657Z</time></trkpt><trkpt lat="43.4155717" lon="11.4915683"><ele>661.0</ele><time>2026-05-03T11:03:23.657Z</time></trkpt><trkpt lat="43.41548" lon="11.4915933"><ele>656.0</ele><time>2026-05-03T11:03:24.657Z</time></trkpt><trkpt lat="43.415375" lon="11.49158"><ele>651.0</ele><time>2026-05-03T11:03:25.657Z</time></trkpt><trkpt lat="43.4152033" lon="11.4914567"><ele>650.0</ele><time>2026-05-03T11:03:26.657Z</time></trkpt><trkpt lat="43.415055" lon="11.4913833"><ele>649.0</ele><time>2026-05-03T11:03:27.658Z</time></trkpt><trkpt lat="43.414925" lon="11.4913233"><ele>648.0</ele><time>2026-05-03T11:03:28.658Z</time></trkpt><trkpt lat="43.4147983" lon="11.4913117"><ele>647.0</ele><time>2026-05-03T11:03:29.658Z</time></trkpt><trkpt lat="43.4146883" lon="11.4912817"><ele>646.0</ele><time>2026-05-03T11:03:30.657Z</time></trkpt><trkpt lat="43.414595" lon="11.491235"><ele>645.0</ele><time>2026-05-03T11:03:31.657Z</time></trkpt><trkpt lat="43.4145183" lon="11.4911267"><ele>644.0</ele><time>2026-05-03T11:03:32.658Z</time></trkpt><trkpt lat="43.41444" lon="11.4909933"><ele>643.0</ele><time>2026-05-03T11:03:33.657Z</time></trkpt><trkpt lat="43.4143417" lon="11.49087"><ele>643.0</ele><time>2026-05-03T11:03:34.657Z</time></trkpt><trkpt lat="43.4142317" lon="11.49079"><ele>643.0</ele><time>2026-05-03T11:03:35.657Z</time></trkpt><trkpt lat="43.4141117" lon="11.4907183"><ele>643.0</ele><time>2026-05-03T11:03:36.658Z</time></trkpt><trkpt lat="43.4139883" lon="11.4906867"><ele>643.0</ele><time>2026-05-03T11:03:37.657Z</time></trkpt><trkpt lat="43.4138783" lon="11.4906833"><ele>642.75</ele><time>2026-05-03T11:03:38.657Z</time></trkpt><trkpt lat="43.4137733" lon="11.4907133"><ele>642.5</ele><time>2026-05-03T11:03:39.657Z</time></trkpt><trkpt lat="43.41368" lon="11.490805"><ele>642.25</ele><time>2026-05-03T11:03:40.657Z</time></trkpt><trkpt lat="43.413615" lon="11.4909333"><ele>642.0</ele><time>2026-05-03T11:03:41.658Z</time></trkpt><trkpt lat="43.4135467" lon="11.4910933"><ele>642.0</ele><time>2026-05-03T11:03:42.658Z</time></trkpt><trkpt lat="43.4134817" lon="11.4912417"><ele>642.0</ele><time>2026-05-03T11:03:43.657Z</time></trkpt><trkpt lat="43.4134" lon="11.4913733"><ele>642.0</ele><time>2026-05-03T11:03:44.656Z</time></trkpt><trkpt lat="43.4133067" lon="11.4914783"><ele>642.0</ele><time>2026-05-03T11:03:45.656Z</time></trkpt><trkpt lat="43.4132017" lon="11.4915767"><ele>641.0</ele><time>2026-05-03T11:03:46.656Z</time></trkpt><trkpt lat="43.4130817" lon="11.491665"><ele>640.0</ele><time>2026-05-03T11:03:47.656Z</time></trkpt><trkpt lat="43.4129467" lon="11.4917417"><ele>639.0</ele><time>2026-05-03T11:03:48.656Z</time></trkpt><trkpt lat="43.4128133" lon="11.4917833"><ele>638.0</ele><time>2026-05-03T11:03:49.657Z</time></trkpt><trkpt lat="43.412665" lon="11.49178"><ele>637.25</ele><time>2026-05-03T11:03:50.656Z</time></trkpt><trkpt lat="43.41252" lon="11.4917517"><ele>636.5</ele><time>2026-05-03T11:03:51.656Z</time></trkpt><trkpt lat="43.412375" lon="11.4916883"><ele>635.75</ele><time>2026-05-03T11:03:52.656Z</time></trkpt><trkpt lat="43.41224" lon="11.4916317"><ele>635.0</ele><time>2026-05-03T11:03:53.656Z</time></trkpt><trkpt lat="43.412115" lon="11.49157"><ele>633.25</ele><time>2026-05-03T11:03:54.656Z</time></trkpt><trkpt lat="43.412005" lon="11.4914767"><ele>631.5</ele><time>2026-05-03T11:03:55.657Z</time></trkpt><trkpt lat="43.4118917" lon="11.4913733"><ele>629.75</ele><time>2026-05-03T11:03:56.657Z</time></trkpt><trkpt lat="43.41176" lon="11.4912583"><ele>628.0</ele><time>2026-05-03T11:03:57.657Z</time></trkpt><trkpt lat="43.4116317" lon="11.4911367"><ele>628.0</ele><time>2026-05-03T11:03:58.657Z</time></trkpt><trkpt lat="43.4114933" lon="11.491"><ele>628.0</ele><time>2026-05-03T11:03:59.656Z</time></trkpt><trkpt lat="43.4113567" lon="11.4908433"><ele>628.0</ele><time>2026-05-03T11:04:00.656Z</time></trkpt><trkpt lat="43.4112333" lon="11.4906867"><ele>627.25</ele><time>2026-05-03T11:04:01.656Z</time></trkpt><trkpt lat="43.4111283" lon="11.490545"><ele>626.5</ele><time>2026-05-03T11:04:02.656Z</time></trkpt><trkpt lat="43.41104" lon="11.49039"><ele>625.75</ele><time>2026-05-03T11:04:03.656Z</time></trkpt><trkpt lat="43.4109533" lon="11.4902533"><ele>625.0</ele><time>2026-05-03T11:04:04.656Z</time></trkpt><trkpt lat="43.410835" lon="11.49015"><ele>625.0</ele><time>2026-05-03T11:04:05.656Z</time></trkpt><trkpt lat="43.4106683" lon="11.4900683"><ele>625.0</ele><time>2026-05-03T11:04:06.656Z</time></trkpt><trkpt lat="43.4104983" lon="11.4899883"><ele>625.0</ele><time>2026-05-03T11:04:07.656Z</time></trkpt><trkpt lat="43.4103233" lon="11.4899117"><ele>622.0</ele><time>2026-05-03T11:04:08.657Z</time></trkpt><trkpt lat="43.410145" lon="11.489825"><ele>619.0</ele><time>2026-05-03T11:04:09.657Z</time></trkpt><trkpt lat="43.4099667" lon="11.48973"><ele>616.0</ele><time>2026-05-03T11:04:10.657Z</time></trkpt><trkpt lat="43.40979" lon="11.4896083"><ele>617.0</ele><time>2026-05-03T11:04:11.656Z</time></trkpt><trkpt lat="43.409625" lon="11.48947"><ele>618.0</ele><time>2026-05-03T11:04:12.657Z</time></trkpt><trkpt lat="43.40948" lon="11.4893017"><ele>619.0</ele><time>2026-05-03T11:04:13.656Z</time></trkpt><trkpt lat="43.4093517" lon="11.4891617"><ele>619.0</ele><time>2026-05-03T11:04:14.656Z</time></trkpt><trkpt lat="43.4092083" lon="11.4890667"><ele>619.0</ele><time>2026-05-03T11:04:15.656Z</time></trkpt><trkpt lat="43.40906" lon="11.4890183"><ele>619.0</ele><time>2026-05-03T11:04:16.657Z</time></trkpt><trkpt lat="43.4088867" lon="11.4890267"><ele>618.0</ele><time>2026-05-03T11:04:17.656Z</time></trkpt><trkpt lat="43.4087233" lon="11.4890433"><ele>617.0</ele><time>2026-05-03T11:04:18.656Z</time></trkpt><trkpt lat="43.40856" lon="11.4890383"><ele>616.0</ele><time>2026-05-03T11:04:19.656Z</time></trkpt><trkpt lat="43.4084017" lon="11.4889983"><ele>616.0</ele><time>2026-05-03T11:04:20.657Z</time></trkpt><trkpt lat="43.4082583" lon="11.4889217"><ele>616.0</ele><time>2026-05-03T11:04:21.656Z</time></trkpt><trkpt lat="43.408125" lon="11.48881"><ele>616.0</ele><time>2026-05-03T11:04:22.656Z</time></trkpt><trkpt lat="43.4079917" lon="11.4886967"><ele>621.75</ele><time>2026-05-03T11:04:23.656Z</time></trkpt><trkpt lat="43.4078683" lon="11.4886183"><ele>627.5</ele><time>2026-05-03T11:04:24.656Z</time></trkpt><trkpt lat="43.4077333" lon="11.4885867"><ele>633.25</ele><time>2026-05-03T11:04:25.657Z</time></trkpt><trkpt lat="43.4075967" lon="11.4886167"><ele>639.0</ele><time>2026-05-03T11:04:26.656Z</time></trkpt><trkpt lat="43.40748" lon="11.4887233"><ele>635.25</ele><time>2026-05-03T11:04:27.656Z</time></trkpt><trkpt lat="43.4073583" lon="11.4888733"><ele>631.5</ele><time>2026-05-03T11:04:28.656Z</time></trkpt><trkpt lat="43.4072933" lon="11.4890333"><ele>627.75</ele><time>2026-05-03T11:04:29.657Z</time></trkpt><trkpt lat="43.4072167" lon="11.4891467"><ele>624.0</ele><time>2026-05-03T11:04:30.657Z</time></trkpt><trkpt lat="43.4071233" lon="11.4892367"><ele>624.0</ele><time>2026-05-03T11:04:31.656Z</time></trkpt><trkpt lat="43.4070217" lon="11.4892783"><ele>624.0</ele><time>2026-05-03T11:04:32.657Z</time></trkpt><trkpt lat="43.4069083" lon="11.4892467"><ele>624.0</ele><time>2026-05-03T11:04:33.656Z</time></trkpt><trkpt lat="43.4067917" lon="11.4891767"><ele>624.0</ele><time>2026-05-03T11:04:34.656Z</time></trkpt><trkpt lat="43.40667" lon="11.4890767"><ele>624.0</ele><time>2026-05-03T11:04:35.656Z</time></trkpt><trkpt lat="43.4065417" lon="11.48895"><ele>624.0</ele><time>2026-05-03T11:04:36.656Z</time></trkpt><trkpt lat="43.40641" lon="11.488795"><ele>624.0</ele><time>2026-05-03T11:04:37.656Z</time></trkpt><trkpt lat="43.406275" lon="11.4886417"><ele>625.6666666666666</ele><time>2026-05-03T11:04:38.657Z</time></trkpt><trkpt lat="43.40615" lon="11.4884833"><ele>627.3333333333333</ele><time>2026-05-03T11:04:39.656Z</time></trkpt><trkpt lat="43.40604" lon="11.488335"><ele>629.0</ele><time>2026-05-03T11:04:40.657Z</time></trkpt><trkpt lat="43.4059483" lon="11.4882033"><ele>629.0</ele><time>2026-05-03T11:04:41.656Z</time></trkpt><trkpt lat="43.4058717" lon="11.4881033"><ele>629.0</ele><time>2026-05-03T11:04:42.657Z</time></trkpt><trkpt lat="43.4057967" lon="11.488035"><ele>629.0</ele><time>2026-05-03T11:04:43.656Z</time></trkpt><trkpt lat="43.4057017" lon="11.487955"><ele>629.0</ele><time>2026-05-03T11:04:45.657Z</time></trkpt><trkpt lat="43.4056367" lon="11.487945"><ele>629.0</ele><time>2026-05-03T11:04:47.656Z</time></trkpt><trkpt lat="43.4055683" lon="11.4879783"><ele>629.0</ele><time>2026-05-03T11:05:46.657Z</time></trkpt><trkpt lat="43.4054283" lon="11.4880283"><ele>628.0</ele><time>2026-05-03T11:05:48.657Z</time></trkpt><trkpt lat="43.4053383" lon="11.4880617"><ele>627.0</ele><time>2026-05-03T11:05:49.657Z</time></trkpt><trkpt lat="43.4052517" lon="11.48812"><ele>626.0</ele><time>2026-05-03T11:05:50.657Z</time></trkpt><trkpt lat="43.4051517" lon="11.4882017"><ele>625.0</ele><time>2026-05-03T11:05:51.657Z</time></trkpt><trkpt lat="43.4050483" lon="11.4883133"><ele>624.0</ele><time>2026-05-03T11:05:52.656Z</time></trkpt><trkpt lat="43.4049417" lon="11.4884317"><ele>624.0</ele><time>2026-05-03T11:05:53.656Z</time></trkpt><trkpt lat="43.4048233" lon="11.4885417"><ele>624.0</ele><time>2026-05-03T11:05:54.657Z</time></trkpt><trkpt lat="43.4046917" lon="11.4886667"><ele>624.0</ele><time>2026-05-03T11:05:55.656Z</time></trkpt><trkpt lat="43.4045633" lon="11.4887917"><ele>623.5</ele><time>2026-05-03T11:05:56.656Z</time></trkpt><trkpt lat="43.4042817" lon="11.4890833"><ele>623.0</ele><time>2026-05-03T11:05:58.657Z</time></trkpt><trkpt lat="43.4041383" lon="11.4892317"><ele>623.0</ele><time>2026-05-03T11:05:59.657Z</time></trkpt><trkpt lat="43.4039867" lon="11.48937"><ele>623.0</ele><time>2026-05-03T11:06:00.657Z</time></trkpt><trkpt lat="43.403835" lon="11.4895167"><ele>623.0</ele><time>2026-05-03T11:06:01.656Z</time></trkpt><trkpt lat="43.403685" lon="11.489675"><ele>622.3333333333333</ele><time>2026-05-03T11:06:02.656Z</time></trkpt><trkpt lat="43.4035283" lon="11.4898283"><ele>621.6666666666666</ele><time>2026-05-03T11:06:03.656Z</time></trkpt><trkpt lat="43.40338" lon="11.48998"><ele>621.0</ele><time>2026-05-03T11:06:04.656Z</time></trkpt><trkpt lat="43.4032233" lon="11.4901433"><ele>621.0</ele><time>2026-05-03T11:06:05.657Z</time></trkpt><trkpt lat="43.40307" lon="11.4902983"><ele>621.0</ele><time>2026-05-03T11:06:06.657Z</time></trkpt><trkpt lat="43.4029233" lon="11.490455"><ele>621.0</ele><time>2026-05-03T11:06:07.656Z</time></trkpt><trkpt lat="43.402785" lon="11.49063"><ele>620.6666666666666</ele><time>2026-05-03T11:06:08.657Z</time></trkpt><trkpt lat="43.4026583" lon="11.4908083"><ele>620.3333333333333</ele><time>2026-05-03T11:06:09.656Z</time></trkpt><trkpt lat="43.4025517" lon="11.4910183"><ele>620.0</ele><time>2026-05-03T11:06:10.657Z</time></trkpt><trkpt lat="43.4024567" lon="11.49126"><ele>619.0</ele><time>2026-05-03T11:06:11.656Z</time></trkpt><trkpt lat="43.4023867" lon="11.4914967"><ele>618.0</ele><time>2026-05-03T11:06:12.657Z</time></trkpt><trkpt lat="43.4023317" lon="11.491725"><ele>617.0</ele><time>2026-05-03T11:06:13.657Z</time></trkpt><trkpt lat="43.4022683" lon="11.4919317"><ele>614.6666666666666</ele><time>2026-05-03T11:06:14.656Z</time></trkpt><trkpt lat="43.4022017" lon="11.49212"><ele>612.3333333333334</ele><time>2026-05-03T11:06:15.656Z</time></trkpt><trkpt lat="43.4021067" lon="11.4922917"><ele>610.0</ele><time>2026-05-03T11:06:16.657Z</time></trkpt><trkpt lat="43.40201" lon="11.4924633"><ele>611.3333333333334</ele><time>2026-05-03T11:06:17.657Z</time></trkpt><trkpt lat="43.4019" lon="11.4926383"><ele>612.6666666666666</ele><time>2026-05-03T11:06:18.657Z</time></trkpt><trkpt lat="43.4018083" lon="11.4928333"><ele>614.0</ele><time>2026-05-03T11:06:19.657Z</time></trkpt><trkpt lat="43.4017433" lon="11.493005"><ele>614.0</ele><time>2026-05-03T11:06:20.657Z</time></trkpt><trkpt lat="43.4016883" lon="11.4931467"><ele>614.0</ele><time>2026-05-03T11:06:21.657Z</time></trkpt><trkpt lat="43.4015983" lon="11.49324"><ele>614.0</ele><time>2026-05-03T11:06:22.656Z</time></trkpt><trkpt lat="43.4014917" lon="11.49329"><ele>614.0</ele><time>2026-05-03T11:06:23.656Z</time></trkpt><trkpt lat="43.4013483" lon="11.493325"><ele>616.0</ele><time>2026-05-03T11:06:24.657Z</time></trkpt><trkpt lat="43.4012017" lon="11.4933517"><ele>618.0</ele><time>2026-05-03T11:06:25.657Z</time></trkpt><trkpt lat="43.4010683" lon="11.4933883"><ele>620.0</ele><time>2026-05-03T11:06:26.657Z</time></trkpt><trkpt lat="43.40096" lon="11.4934383"><ele>622.0</ele><time>2026-05-03T11:06:27.657Z</time></trkpt><trkpt lat="43.4008683" lon="11.493545"><ele>622.0</ele><time>2026-05-03T11:06:28.656Z</time></trkpt><trkpt lat="43.4008067" lon="11.4936883"><ele>622.0</ele><time>2026-05-03T11:06:29.656Z</time></trkpt><trkpt lat="43.4007817" lon="11.4938617"><ele>622.0</ele><time>2026-05-03T11:06:30.657Z</time></trkpt><trkpt lat="43.4007917" lon="11.49405"><ele>622.0</ele><time>2026-05-03T11:06:31.656Z</time></trkpt><trkpt lat="43.4008233" lon="11.4942183"><ele>620.8000000000001</ele><time>2026-05-03T11:06:32.657Z</time></trkpt><trkpt lat="43.400825" lon="11.49438"><ele>619.6</ele><time>2026-05-03T11:06:33.656Z</time></trkpt><trkpt lat="43.4008167" lon="11.4945367"><ele>618.4000000000001</ele><time>2026-05-03T11:06:34.657Z</time></trkpt><trkpt lat="43.4007833" lon="11.49467"><ele>617.2</ele><time>2026-05-03T11:06:35.657Z</time></trkpt><trkpt lat="43.4007317" lon="11.49479"><ele>616.0</ele><time>2026-05-03T11:06:36.656Z</time></trkpt><trkpt lat="43.4006467" lon="11.494895"><ele>614.0</ele><time>2026-05-03T11:06:37.656Z</time></trkpt><trkpt lat="43.400545" lon="11.4949667"><ele>612.0</ele><time>2026-05-03T11:06:38.656Z</time></trkpt><trkpt lat="43.4004133" lon="11.4949533"><ele>610.0</ele><time>2026-05-03T11:06:39.657Z</time></trkpt><trkpt lat="43.4002767" lon="11.4949133"><ele>608.0</ele><time>2026-05-03T11:06:40.656Z</time></trkpt><trkpt lat="43.4001317" lon="11.4948383"><ele>605.6666666666666</ele><time>2026-05-03T11:06:41.656Z</time></trkpt><trkpt lat="43.39999" lon="11.4947583"><ele>603.3333333333334</ele><time>2026-05-03T11:06:42.657Z</time></trkpt><trkpt lat="43.3998317" lon="11.494685"><ele>601.0</ele><time>2026-05-03T11:06:43.656Z</time></trkpt><trkpt lat="43.3996783" lon="11.4946183"><ele>596.6666666666667</ele><time>2026-05-03T11:06:44.656Z</time></trkpt><trkpt lat="43.3995217" lon="11.4945467"><ele>592.3333333333334</ele><time>2026-05-03T11:06:45.657Z</time></trkpt><trkpt lat="43.39939" lon="11.4944367"><ele>588.0</ele><time>2026-05-03T11:06:46.657Z</time></trkpt><trkpt lat="43.3992717" lon="11.494305"><ele>588.0</ele><time>2026-05-03T11:06:47.656Z</time></trkpt><trkpt lat="43.39916" lon="11.4941633"><ele>588.0</ele><time>2026-05-03T11:06:48.656Z</time></trkpt><trkpt lat="43.3990717" lon="11.49401"><ele>588.0</ele><time>2026-05-03T11:06:49.657Z</time></trkpt><trkpt lat="43.3990133" lon="11.4938283"><ele>588.0</ele><time>2026-05-03T11:06:50.656Z</time></trkpt><trkpt lat="43.3989567" lon="11.4936733"><ele>588.3333333333334</ele><time>2026-05-03T11:06:51.657Z</time></trkpt><trkpt lat="43.3988883" lon="11.49356"><ele>588.6666666666666</ele><time>2026-05-03T11:06:52.656Z</time></trkpt><trkpt lat="43.3988133" lon="11.49351"><ele>589.0</ele><time>2026-05-03T11:06:53.657Z</time></trkpt><trkpt lat="43.398735" lon="11.4935017"><ele>589.3333333333333</ele><time>2026-05-03T11:06:54.656Z</time></trkpt><trkpt lat="43.3986567" lon="11.49352"><ele>589.6666666666666</ele><time>2026-05-03T11:06:55.656Z</time></trkpt><trkpt lat="43.398595" lon="11.49363"><ele>590.0</ele><time>2026-05-03T11:06:56.657Z</time></trkpt><trkpt lat="43.39854" lon="11.4937733"><ele>584.75</ele><time>2026-05-03T11:06:57.656Z</time></trkpt><trkpt lat="43.3984817" lon="11.493895"><ele>579.5</ele><time>2026-05-03T11:06:58.656Z</time></trkpt><trkpt lat="43.3983942" lon="11.4939979"><ele>574.25</ele><time>2026-05-03T11:06:59.656Z</time></trkpt><trkpt lat="43.3982753" lon="11.4940629"><ele>569.0</ele><time>2026-05-03T11:07:00.656Z</time></trkpt><trkpt lat="43.3981351" lon="11.4940903"><ele>566.0</ele><time>2026-05-03T11:07:01.657Z</time></trkpt><trkpt lat="43.3979855" lon="11.4941041"><ele>563.0</ele><time>2026-05-03T11:07:02.656Z</time></trkpt><trkpt lat="43.3978284" lon="11.4941117"><ele>560.0</ele><time>2026-05-03T11:07:03.657Z</time></trkpt><trkpt lat="43.397662" lon="11.4941166"><ele>560.0</ele><time>2026-05-03T11:07:04.657Z</time></trkpt><trkpt lat="43.3974939" lon="11.4941213"><ele>560.0</ele><time>2026-05-03T11:07:05.657Z</time></trkpt><trkpt lat="43.3973209" lon="11.4941288"><ele>560.0</ele><time>2026-05-03T11:07:06.657Z</time></trkpt><trkpt lat="43.3971521" lon="11.4941396"><ele>555.0</ele><time>2026-05-03T11:07:07.657Z</time></trkpt><trkpt lat="43.3968382" lon="11.4941924"><ele>550.0</ele><time>2026-05-03T11:07:09.656Z</time></trkpt><trkpt lat="43.3965187" lon="11.4942703"><ele>550.0</ele><time>2026-05-03T11:07:11.657Z</time></trkpt><trkpt lat="43.3963475" lon="11.4942853"><ele>550.0</ele><time>2026-05-03T11:07:12.656Z</time></trkpt><trkpt lat="43.3961653" lon="11.4942679"><ele>550.0</ele><time>2026-05-03T11:07:13.657Z</time></trkpt><trkpt lat="43.3959834" lon="11.4942342"><ele>547.0</ele><time>2026-05-03T11:07:14.656Z</time></trkpt><trkpt lat="43.3957955" lon="11.4941881"><ele>544.0</ele><time>2026-05-03T11:07:15.656Z</time></trkpt><trkpt lat="43.3955969" lon="11.4941435"><ele>541.0</ele><time>2026-05-03T11:07:16.657Z</time></trkpt><trkpt lat="43.3953976" lon="11.4940997"><ele>537.6666666666667</ele><time>2026-05-03T11:07:17.656Z</time></trkpt><trkpt lat="43.3952042" lon="11.494072"><ele>534.3333333333334</ele><time>2026-05-03T11:07:18.657Z</time></trkpt><trkpt lat="43.3950109" lon="11.4940774"><ele>531.0</ele><time>2026-05-03T11:07:19.656Z</time></trkpt><trkpt lat="43.3948255" lon="11.4941245"><ele>527.3333333333334</ele><time>2026-05-03T11:07:20.657Z</time></trkpt><trkpt lat="43.3946414" lon="11.4942132"><ele>523.6666666666667</ele><time>2026-05-03T11:07:21.657Z</time></trkpt><trkpt lat="43.3944465" lon="11.4943336"><ele>520.0</ele><time>2026-05-03T11:07:22.656Z</time></trkpt><trkpt lat="43.3942495" lon="11.4944667"><ele>520.0</ele><time>2026-05-03T11:07:23.657Z</time></trkpt><trkpt lat="43.3940591" lon="11.4945839"><ele>520.0</ele><time>2026-05-03T11:07:24.656Z</time></trkpt><trkpt lat="43.3938975" lon="11.4946998"><ele>520.0</ele><time>2026-05-03T11:07:25.657Z</time></trkpt><trkpt lat="43.3937646" lon="11.4948382"><ele>519.3333333333334</ele><time>2026-05-03T11:07:26.656Z</time></trkpt><trkpt lat="43.3936507" lon="11.4950183"><ele>518.6666666666666</ele><time>2026-05-03T11:07:27.656Z</time></trkpt><trkpt lat="43.3935452" lon="11.4952297"><ele>518.0</ele><time>2026-05-03T11:07:28.657Z</time></trkpt><trkpt lat="43.3934429" lon="11.4954747"><ele>518.0</ele><time>2026-05-03T11:07:29.656Z</time></trkpt><trkpt lat="43.3933299" lon="11.495724"><ele>518.0</ele><time>2026-05-03T11:07:30.657Z</time></trkpt><trkpt lat="43.3931997" lon="11.4959487"><ele>518.0</ele><time>2026-05-03T11:07:31.656Z</time></trkpt><trkpt lat="43.3930762" lon="11.4961517"><ele>515.6666666666666</ele><time>2026-05-03T11:07:32.656Z</time></trkpt><trkpt lat="43.3929608" lon="11.4963407"><ele>513.3333333333334</ele><time>2026-05-03T11:07:33.657Z</time></trkpt><trkpt lat="43.3928552" lon="11.4964853"><ele>511.0</ele><time>2026-05-03T11:07:34.656Z</time></trkpt><trkpt lat="43.3927487" lon="11.4966003"><ele>511.0</ele><time>2026-05-03T11:07:35.657Z</time></trkpt><trkpt lat="43.3926313" lon="11.4966952"><ele>511.0</ele><time>2026-05-03T11:07:36.657Z</time></trkpt><trkpt lat="43.392496" lon="11.4967887"><ele>511.0</ele><time>2026-05-03T11:07:37.656Z</time></trkpt><trkpt lat="43.3923798" lon="11.4968827"><ele>511.0</ele><time>2026-05-03T11:07:38.656Z</time></trkpt><trkpt lat="43.3922822" lon="11.496976"><ele>511.0</ele><time>2026-05-03T11:07:39.657Z</time></trkpt><trkpt lat="43.3922013" lon="11.4970729"><ele>511.0</ele><time>2026-05-03T11:07:40.657Z</time></trkpt><trkpt lat="43.3921181" lon="11.4971618"><ele>511.0</ele><time>2026-05-03T11:07:41.656Z</time></trkpt><trkpt lat="43.392028" lon="11.4972378"><ele>511.0</ele><time>2026-05-03T11:07:42.656Z</time></trkpt><trkpt lat="43.391935" lon="11.4973003"><ele>511.0</ele><time>2026-05-03T11:07:43.656Z</time></trkpt><trkpt lat="43.3918215" lon="11.4973423"><ele>508.0</ele><time>2026-05-03T11:07:44.656Z</time></trkpt><trkpt lat="43.3916907" lon="11.4973775"><ele>505.0</ele><time>2026-05-03T11:07:45.656Z</time></trkpt><trkpt lat="43.3915423" lon="11.4974044"><ele>502.0</ele><time>2026-05-03T11:07:46.657Z</time></trkpt><trkpt lat="43.3913952" lon="11.4974151"><ele>499.0</ele><time>2026-05-03T11:07:47.657Z</time></trkpt><trkpt lat="43.3912612" lon="11.4974213"><ele>496.0</ele><time>2026-05-03T11:07:48.657Z</time></trkpt><trkpt lat="43.3911453" lon="11.4974498"><ele>493.0</ele><time>2026-05-03T11:07:49.656Z</time></trkpt><trkpt lat="43.3910421" lon="11.4975269"><ele>490.0</ele><time>2026-05-03T11:07:50.657Z</time></trkpt><trkpt lat="43.3909396" lon="11.4976261"><ele>487.0</ele><time>2026-05-03T11:07:51.657Z</time></trkpt><trkpt lat="43.3908303" lon="11.4977292"><ele>487.0</ele><time>2026-05-03T11:07:52.656Z</time></trkpt><trkpt lat="43.3907093" lon="11.4978204"><ele>487.0</ele><time>2026-05-03T11:07:53.657Z</time></trkpt><trkpt lat="43.3905753" lon="11.4978914"><ele>487.0</ele><time>2026-05-03T11:07:54.657Z</time></trkpt><trkpt lat="43.3904376" lon="11.4979334"><ele>487.0</ele><time>2026-05-03T11:07:55.657Z</time></trkpt><trkpt lat="43.3902926" lon="11.497951"><ele>483.6666666666667</ele><time>2026-05-03T11:07:56.656Z</time></trkpt><trkpt lat="43.39014" lon="11.4979593"><ele>480.33333333333337</ele><time>2026-05-03T11:07:57.656Z</time></trkpt><trkpt lat="43.3899732" lon="11.4979569"><ele>477.0</ele><time>2026-05-03T11:07:58.657Z</time></trkpt><trkpt lat="43.3898109" lon="11.4979612"><ele>474.33333333333337</ele><time>2026-05-03T11:07:59.656Z</time></trkpt><trkpt lat="43.389647" lon="11.4979646"><ele>471.6666666666667</ele><time>2026-05-03T11:08:00.656Z</time></trkpt><trkpt lat="43.3894795" lon="11.4979686"><ele>469.0</ele><time>2026-05-03T11:08:01.656Z</time></trkpt><trkpt lat="43.3893198" lon="11.4979662"><ele>469.0</ele><time>2026-05-03T11:08:02.656Z</time></trkpt><trkpt lat="43.3891657" lon="11.4979407"><ele>469.0</ele><time>2026-05-03T11:08:03.657Z</time></trkpt><trkpt lat="43.3890273" lon="11.497901"><ele>469.0</ele><time>2026-05-03T11:08:04.657Z</time></trkpt><trkpt lat="43.3889093" lon="11.4978616"><ele>469.0</ele><time>2026-05-03T11:08:05.657Z</time></trkpt><trkpt lat="43.3888072" lon="11.4978451"><ele>467.83333333333337</ele><time>2026-05-03T11:08:06.657Z</time></trkpt><trkpt lat="43.3887187" lon="11.4978544"><ele>466.6666666666667</ele><time>2026-05-03T11:08:07.656Z</time></trkpt><trkpt lat="43.3886419" lon="11.4978744"><ele>465.5</ele><time>2026-05-03T11:08:08.656Z</time></trkpt><trkpt lat="43.3885682" lon="11.497895"><ele>464.33333333333337</ele><time>2026-05-03T11:08:09.656Z</time></trkpt><trkpt lat="43.3884909" lon="11.4978887"><ele>463.1666666666667</ele><time>2026-05-03T11:08:10.656Z</time></trkpt><trkpt lat="43.388415" lon="11.4978502"><ele>462.0</ele><time>2026-05-03T11:08:11.656Z</time></trkpt><trkpt lat="43.3883302" lon="11.4978039"><ele>462.0</ele><time>2026-05-03T11:08:12.656Z</time></trkpt><trkpt lat="43.3882401" lon="11.497754"><ele>462.00000000000006</ele><time>2026-05-03T11:08:13.657Z</time></trkpt><trkpt lat="43.3881504" lon="11.4976712"><ele>462.00000000000006</ele><time>2026-05-03T11:08:14.657Z</time></trkpt><trkpt lat="43.3880738" lon="11.4975774"><ele>462.0</ele><time>2026-05-03T11:08:15.656Z</time></trkpt><trkpt lat="43.388014" lon="11.4974728"><ele>462.0</ele><time>2026-05-03T11:08:16.657Z</time></trkpt><trkpt lat="43.387971" lon="11.4973531"><ele>461.0</ele><time>2026-05-03T11:08:17.656Z</time></trkpt><trkpt lat="43.3879531" lon="11.4972075"><ele>460.0</ele><time>2026-05-03T11:08:18.656Z</time></trkpt><trkpt lat="43.387952" lon="11.4970371"><ele>459.0</ele><time>2026-05-03T11:08:19.656Z</time></trkpt><trkpt lat="43.3879589" lon="11.4968644"><ele>458.0</ele><time>2026-05-03T11:08:20.656Z</time></trkpt><trkpt lat="43.3879324" lon="11.4967119"><ele>455.5</ele><time>2026-05-03T11:08:21.656Z</time></trkpt><trkpt lat="43.3878776" lon="11.4965703"><ele>453.0</ele><time>2026-05-03T11:08:22.657Z</time></trkpt><trkpt lat="43.3877838" lon="11.4964475"><ele>450.5</ele><time>2026-05-03T11:08:23.656Z</time></trkpt><trkpt lat="43.3876669" lon="11.4963325"><ele>448.0</ele><time>2026-05-03T11:08:24.656Z</time></trkpt><trkpt lat="43.3875398" lon="11.4962158"><ele>448.0</ele><time>2026-05-03T11:08:25.657Z</time></trkpt><trkpt lat="43.3874059" lon="11.4960942"><ele>448.0</ele><time>2026-05-03T11:08:26.656Z</time></trkpt><trkpt lat="43.3872747" lon="11.4959789"><ele>448.0</ele><time>2026-05-03T11:08:27.656Z</time></trkpt><trkpt lat="43.3871516" lon="11.4958499"><ele>445.25</ele><time>2026-05-03T11:08:28.656Z</time></trkpt><trkpt lat="43.3870379" lon="11.4957251"><ele>442.5</ele><time>2026-05-03T11:08:29.657Z</time></trkpt><trkpt lat="43.3869241" lon="11.4956192"><ele>439.75</ele><time>2026-05-03T11:08:30.657Z</time></trkpt><trkpt lat="43.3868024" lon="11.4955227"><ele>437.0</ele><time>2026-05-03T11:08:31.656Z</time></trkpt><trkpt lat="43.3866767" lon="11.4954441"><ele>436.25</ele><time>2026-05-03T11:08:32.656Z</time></trkpt><trkpt lat="43.3865464" lon="11.4953946"><ele>435.5</ele><time>2026-05-03T11:08:33.656Z</time></trkpt><trkpt lat="43.3864028" lon="11.495384"><ele>434.75</ele><time>2026-05-03T11:08:34.656Z</time></trkpt><trkpt lat="43.3862464" lon="11.4954054"><ele>434.0</ele><time>2026-05-03T11:08:35.657Z</time></trkpt><trkpt lat="43.3860758" lon="11.4954521"><ele>433.0</ele><time>2026-05-03T11:08:36.657Z</time></trkpt><trkpt lat="43.3859009" lon="11.4954908"><ele>432.0</ele><time>2026-05-03T11:08:37.655Z</time></trkpt><trkpt lat="43.3857239" lon="11.4955315"><ele>431.0</ele><time>2026-05-03T11:08:38.656Z</time></trkpt><trkpt lat="43.3855405" lon="11.4955628"><ele>428.3333333333333</ele><time>2026-05-03T11:08:39.655Z</time></trkpt><trkpt lat="43.385348" lon="11.4955972"><ele>425.66666666666663</ele><time>2026-05-03T11:08:40.656Z</time></trkpt><trkpt lat="43.3851534" lon="11.495649"><ele>423.0</ele><time>2026-05-03T11:08:41.655Z</time></trkpt><trkpt lat="43.3849538" lon="11.495705"><ele>423.0</ele><time>2026-05-03T11:08:42.655Z</time></trkpt><trkpt lat="43.3847639" lon="11.4957445"><ele>423.0</ele><time>2026-05-03T11:08:43.655Z</time></trkpt><trkpt lat="43.3845746" lon="11.4957756"><ele>423.0</ele><time>2026-05-03T11:08:44.655Z</time></trkpt><trkpt lat="43.3843809" lon="11.4958002"><ele>421.33333333333337</ele><time>2026-05-03T11:08:45.656Z</time></trkpt><trkpt lat="43.3841925" lon="11.4958363"><ele>419.6666666666667</ele><time>2026-05-03T11:08:46.655Z</time></trkpt><trkpt lat="43.3840124" lon="11.4958872"><ele>418.0</ele><time>2026-05-03T11:08:47.656Z</time></trkpt><trkpt lat="43.3838394" lon="11.4959299"><ele>416.6666666666667</ele><time>2026-05-03T11:08:48.655Z</time></trkpt><trkpt lat="43.3836682" lon="11.4959682"><ele>415.33333333333337</ele><time>2026-05-03T11:08:49.655Z</time></trkpt><trkpt lat="43.3835035" lon="11.4960023"><ele>414.0</ele><time>2026-05-03T11:08:50.655Z</time></trkpt><trkpt lat="43.3833488" lon="11.496021"><ele>414.0</ele><time>2026-05-03T11:08:51.655Z</time></trkpt><trkpt lat="43.3832144" lon="11.4960202"><ele>414.0</ele><time>2026-05-03T11:08:52.655Z</time></trkpt><trkpt lat="43.3830732" lon="11.4959993"><ele>414.0</ele><time>2026-05-03T11:08:53.656Z</time></trkpt><trkpt lat="43.3829408" lon="11.4959481"><ele>414.0</ele><time>2026-05-03T11:08:54.655Z</time></trkpt><trkpt lat="43.3828139" lon="11.4958717"><ele>413.75</ele><time>2026-05-03T11:08:55.655Z</time></trkpt><trkpt lat="43.3827109" lon="11.4957721"><ele>413.5</ele><time>2026-05-03T11:08:56.656Z</time></trkpt><trkpt lat="43.3826159" lon="11.4956679"><ele>413.25</ele><time>2026-05-03T11:08:57.656Z</time></trkpt><trkpt lat="43.3825272" lon="11.4955728"><ele>413.0</ele><time>2026-05-03T11:08:58.656Z</time></trkpt><trkpt lat="43.3824449" lon="11.4954836"><ele>411.8333333333333</ele><time>2026-05-03T11:08:59.655Z</time></trkpt><trkpt lat="43.3823769" lon="11.4954104"><ele>410.66666666666663</ele><time>2026-05-03T11:09:00.655Z</time></trkpt><trkpt lat="43.3823228" lon="11.4953516"><ele>409.5</ele><time>2026-05-03T11:09:01.655Z</time></trkpt><trkpt lat="43.3822545" lon="11.4952756"><ele>408.33333333333337</ele><time>2026-05-03T11:09:03.656Z</time></trkpt><trkpt lat="43.3821729" lon="11.4951878"><ele>407.1666666666667</ele><time>2026-05-03T11:09:05.655Z</time></trkpt><trkpt lat="43.3820977" lon="11.4951193"><ele>406.0</ele><time>2026-05-03T11:09:06.655Z</time></trkpt><trkpt lat="43.3819947" lon="11.495029"><ele>406.0</ele><time>2026-05-03T11:09:07.656Z</time></trkpt><trkpt lat="43.3818642" lon="11.4949047"><ele>406.0</ele><time>2026-05-03T11:09:08.656Z</time></trkpt><trkpt lat="43.3817176" lon="11.4947647"><ele>406.0</ele><time>2026-05-03T11:09:09.656Z</time></trkpt><trkpt lat="43.3815597" lon="11.4946125"><ele>404.33333333333337</ele><time>2026-05-03T11:09:10.656Z</time></trkpt><trkpt lat="43.3814013" lon="11.4944546"><ele>402.66666666666663</ele><time>2026-05-03T11:09:11.656Z</time></trkpt><trkpt lat="43.3812424" lon="11.4942972"><ele>401.0</ele><time>2026-05-03T11:09:12.656Z</time></trkpt><trkpt lat="43.381081" lon="11.4941458"><ele>401.0</ele><time>2026-05-03T11:09:13.655Z</time></trkpt><trkpt lat="43.3809229" lon="11.4939928"><ele>401.0</ele><time>2026-05-03T11:09:14.656Z</time></trkpt><trkpt lat="43.3807636" lon="11.4938361"><ele>401.0</ele><time>2026-05-03T11:09:15.655Z</time></trkpt><trkpt lat="43.3806089" lon="11.4936803"><ele>400.66666666666663</ele><time>2026-05-03T11:09:16.655Z</time></trkpt><trkpt lat="43.3804529" lon="11.4935299"><ele>400.33333333333337</ele><time>2026-05-03T11:09:17.655Z</time></trkpt><trkpt lat="43.380302" lon="11.4933732"><ele>400.0</ele><time>2026-05-03T11:09:18.655Z</time></trkpt><trkpt lat="43.3801576" lon="11.4932369"><ele>400.0</ele><time>2026-05-03T11:09:19.656Z</time></trkpt><trkpt lat="43.3800167" lon="11.4931108"><ele>400.0</ele><time>2026-05-03T11:09:20.655Z</time></trkpt><trkpt lat="43.3798689" lon="11.4930033"><ele>400.0</ele><time>2026-05-03T11:09:21.656Z</time></trkpt><trkpt lat="43.3797218" lon="11.492905"><ele>401.33333333333337</ele><time>2026-05-03T11:09:22.656Z</time></trkpt><trkpt lat="43.3795872" lon="11.4928045"><ele>402.66666666666663</ele><time>2026-05-03T11:09:23.656Z</time></trkpt><trkpt lat="43.3794573" lon="11.4926864"><ele>404.0</ele><time>2026-05-03T11:09:24.655Z</time></trkpt><trkpt lat="43.3793225" lon="11.4925529"><ele>404.0</ele><time>2026-05-03T11:09:25.656Z</time></trkpt><trkpt lat="43.3791878" lon="11.4923993"><ele>404.0</ele><time>2026-05-03T11:09:26.655Z</time></trkpt><trkpt lat="43.3790541" lon="11.492247"><ele>404.0</ele><time>2026-05-03T11:09:27.656Z</time></trkpt><trkpt lat="43.3789114" lon="11.4920939"><ele>399.5</ele><time>2026-05-03T11:09:28.655Z</time></trkpt><trkpt lat="43.3786149" lon="11.4918155"><ele>395.0</ele><time>2026-05-03T11:09:30.655Z</time></trkpt><trkpt lat="43.3784712" lon="11.4916916"><ele>395.0</ele><time>2026-05-03T11:09:31.656Z</time></trkpt><trkpt lat="43.3783238" lon="11.4915665"><ele>395.0</ele><time>2026-05-03T11:09:32.655Z</time></trkpt><trkpt lat="43.3781693" lon="11.4914326"><ele>395.0</ele><time>2026-05-03T11:09:33.655Z</time></trkpt><trkpt lat="43.3780055" lon="11.4912932"><ele>393.3333333333333</ele><time>2026-05-03T11:09:34.656Z</time></trkpt><trkpt lat="43.3778334" lon="11.4911524"><ele>391.66666666666663</ele><time>2026-05-03T11:09:35.656Z</time></trkpt><trkpt lat="43.3776601" lon="11.4910193"><ele>390.0</ele><time>2026-05-03T11:09:36.655Z</time></trkpt><trkpt lat="43.377492" lon="11.4908815"><ele>390.0</ele><time>2026-05-03T11:09:37.655Z</time></trkpt><trkpt lat="43.3773287" lon="11.49077"><ele>390.0</ele><time>2026-05-03T11:09:38.655Z</time></trkpt><trkpt lat="43.3771776" lon="11.4906729"><ele>390.0</ele><time>2026-05-03T11:09:39.655Z</time></trkpt><trkpt lat="43.3770261" lon="11.4905793"><ele>389.0</ele><time>2026-05-03T11:09:40.656Z</time></trkpt><trkpt lat="43.3768699" lon="11.4904777"><ele>388.0</ele><time>2026-05-03T11:09:41.655Z</time></trkpt><trkpt lat="43.3767132" lon="11.490349"><ele>387.0</ele><time>2026-05-03T11:09:42.655Z</time></trkpt><trkpt lat="43.3765659" lon="11.4902092"><ele>387.0</ele><time>2026-05-03T11:09:43.655Z</time></trkpt><trkpt lat="43.3764297" lon="11.4900551"><ele>387.0</ele><time>2026-05-03T11:09:44.655Z</time></trkpt><trkpt lat="43.3763134" lon="11.4898817"><ele>387.0</ele><time>2026-05-03T11:09:45.656Z</time></trkpt><trkpt lat="43.3762229" lon="11.4896953"><ele>388.0</ele><time>2026-05-03T11:09:46.656Z</time></trkpt><trkpt lat="43.3761617" lon="11.489495"><ele>389.0</ele><time>2026-05-03T11:09:47.656Z</time></trkpt><trkpt lat="43.376105" lon="11.489305"><ele>390.0</ele><time>2026-05-03T11:09:48.656Z</time></trkpt><trkpt lat="43.3760717" lon="11.489125"><ele>391.0</ele><time>2026-05-03T11:09:49.656Z</time></trkpt><trkpt lat="43.3760317" lon="11.4889517"><ele>391.0</ele><time>2026-05-03T11:09:50.655Z</time></trkpt><trkpt lat="43.3759683" lon="11.4887867"><ele>391.0</ele><time>2026-05-03T11:09:51.656Z</time></trkpt><trkpt lat="43.3758833" lon="11.4886083"><ele>391.0</ele><time>2026-05-03T11:09:52.655Z</time></trkpt><trkpt lat="43.3757383" lon="11.488405"><ele>391.0</ele><time>2026-05-03T11:09:53.655Z</time></trkpt><trkpt lat="43.3756267" lon="11.4882083"><ele>391.0</ele><time>2026-05-03T11:09:54.656Z</time></trkpt><trkpt lat="43.375525" lon="11.4879767"><ele>391.0</ele><time>2026-05-03T11:09:55.656Z</time></trkpt><trkpt lat="43.3754167" lon="11.4877333"><ele>391.33333333333337</ele><time>2026-05-03T11:09:56.655Z</time></trkpt><trkpt lat="43.3753" lon="11.487505"><ele>391.66666666666663</ele><time>2026-05-03T11:09:57.656Z</time></trkpt><trkpt lat="43.3751833" lon="11.4872833"><ele>392.0</ele><time>2026-05-03T11:09:58.655Z</time></trkpt><trkpt lat="43.3750667" lon="11.48708"><ele>392.0</ele><time>2026-05-03T11:09:59.656Z</time></trkpt><trkpt lat="43.37495" lon="11.4869033"><ele>392.0</ele><time>2026-05-03T11:10:00.655Z</time></trkpt><trkpt lat="43.3748433" lon="11.4867283"><ele>392.0</ele><time>2026-05-03T11:10:01.655Z</time></trkpt><trkpt lat="43.3747483" lon="11.4865233"><ele>392.66666666666663</ele><time>2026-05-03T11:10:02.655Z</time></trkpt><trkpt lat="43.3746667" lon="11.486295"><ele>393.33333333333337</ele><time>2026-05-03T11:10:03.656Z</time></trkpt><trkpt lat="43.3746083" lon="11.4860483"><ele>394.0</ele><time>2026-05-03T11:10:04.656Z</time></trkpt><trkpt lat="43.3745383" lon="11.4858083"><ele>394.0</ele><time>2026-05-03T11:10:05.656Z</time></trkpt><trkpt lat="43.3744683" lon="11.4855667"><ele>394.0</ele><time>2026-05-03T11:10:06.655Z</time></trkpt><trkpt lat="43.3743817" lon="11.485325"><ele>394.0</ele><time>2026-05-03T11:10:07.656Z</time></trkpt><trkpt lat="43.37427" lon="11.4850933"><ele>394.0</ele><time>2026-05-03T11:10:08.655Z</time></trkpt><trkpt lat="43.3741333" lon="11.4848433"><ele>394.0</ele><time>2026-05-03T11:10:09.655Z</time></trkpt><trkpt lat="43.37398" lon="11.4846383"><ele>394.0</ele><time>2026-05-03T11:10:10.655Z</time></trkpt><trkpt lat="43.3738283" lon="11.4844483"><ele>392.6666666666667</ele><time>2026-05-03T11:10:11.656Z</time></trkpt><trkpt lat="43.3736583" lon="11.4842533"><ele>391.33333333333337</ele><time>2026-05-03T11:10:12.656Z</time></trkpt><trkpt lat="43.3734717" lon="11.48409"><ele>390.0</ele><time>2026-05-03T11:10:13.655Z</time></trkpt><trkpt lat="43.37329" lon="11.48394"><ele>390.0</ele><time>2026-05-03T11:10:14.656Z</time></trkpt><trkpt lat="43.3731183" lon="11.483805"><ele>390.0</ele><time>2026-05-03T11:10:15.655Z</time></trkpt><trkpt lat="43.3729683" lon="11.4836467"><ele>390.0</ele><time>2026-05-03T11:10:16.655Z</time></trkpt><trkpt lat="43.3728433" lon="11.483455"><ele>387.3333333333333</ele><time>2026-05-03T11:10:17.655Z</time></trkpt><trkpt lat="43.372725" lon="11.483245"><ele>384.66666666666663</ele><time>2026-05-03T11:10:18.655Z</time></trkpt><trkpt lat="43.3726117" lon="11.4830183"><ele>382.0</ele><time>2026-05-03T11:10:19.656Z</time></trkpt><trkpt lat="43.372485" lon="11.48281"><ele>381.0</ele><time>2026-05-03T11:10:20.656Z</time></trkpt><trkpt lat="43.3723483" lon="11.482595"><ele>380.0</ele><time>2026-05-03T11:10:21.655Z</time></trkpt><trkpt lat="43.3721933" lon="11.4824017"><ele>379.0</ele><time>2026-05-03T11:10:22.655Z</time></trkpt><trkpt lat="43.3720217" lon="11.4822167"><ele>374.0</ele><time>2026-05-03T11:10:23.655Z</time></trkpt><trkpt lat="43.371825" lon="11.4820267"><ele>369.0</ele><time>2026-05-03T11:10:24.656Z</time></trkpt><trkpt lat="43.37163" lon="11.481855"><ele>369.0</ele><time>2026-05-03T11:10:25.656Z</time></trkpt><trkpt lat="43.3714517" lon="11.481715"><ele>369.0</ele><time>2026-05-03T11:10:26.656Z</time></trkpt><trkpt lat="43.371295" lon="11.4815767"><ele>369.0</ele><time>2026-05-03T11:10:27.656Z</time></trkpt><trkpt lat="43.3711483" lon="11.4814533"><ele>369.0</ele><time>2026-05-03T11:10:28.655Z</time></trkpt><trkpt lat="43.37098" lon="11.4813567"><ele>369.0</ele><time>2026-05-03T11:10:29.656Z</time></trkpt><trkpt lat="43.3708" lon="11.4813"><ele>369.0</ele><time>2026-05-03T11:10:30.655Z</time></trkpt><trkpt lat="43.37062" lon="11.48125"><ele>367.0</ele><time>2026-05-03T11:10:31.656Z</time></trkpt><trkpt lat="43.370445" lon="11.4811983"><ele>365.0</ele><time>2026-05-03T11:10:32.655Z</time></trkpt><trkpt lat="43.3702783" lon="11.481105"><ele>363.0</ele><time>2026-05-03T11:10:33.656Z</time></trkpt><trkpt lat="43.3701233" lon="11.480995"><ele>363.0</ele><time>2026-05-03T11:10:34.656Z</time></trkpt><trkpt lat="43.3699433" lon="11.4808833"><ele>363.0</ele><time>2026-05-03T11:10:35.655Z</time></trkpt><trkpt lat="43.3697717" lon="11.4807717"><ele>363.0</ele><time>2026-05-03T11:10:36.656Z</time></trkpt><trkpt lat="43.369605" lon="11.48067"><ele>360.0</ele><time>2026-05-03T11:10:37.655Z</time></trkpt><trkpt lat="43.3694683" lon="11.4805533"><ele>357.0</ele><time>2026-05-03T11:10:38.656Z</time></trkpt><trkpt lat="43.3691583" lon="11.4801033"><ele>357.0</ele><time>2026-05-03T11:10:41.655Z</time></trkpt><trkpt lat="43.36911" lon="11.47992"><ele>357.0</ele><time>2026-05-03T11:10:42.655Z</time></trkpt><trkpt lat="43.369095" lon="11.479715"><ele>357.0</ele><time>2026-05-03T11:10:43.656Z</time></trkpt><trkpt lat="43.3691183" lon="11.4794967"><ele>356.0</ele><time>2026-05-03T11:10:44.655Z</time></trkpt><trkpt lat="43.36916" lon="11.4792833"><ele>355.0</ele><time>2026-05-03T11:10:45.656Z</time></trkpt><trkpt lat="43.3692183" lon="11.47906"><ele>354.0</ele><time>2026-05-03T11:10:46.656Z</time></trkpt><trkpt lat="43.3692667" lon="11.4788433"><ele>353.3333333333333</ele><time>2026-05-03T11:10:47.655Z</time></trkpt><trkpt lat="43.36931" lon="11.478605"><ele>352.66666666666663</ele><time>2026-05-03T11:10:48.655Z</time></trkpt><trkpt lat="43.3693333" lon="11.4783867"><ele>352.0</ele><time>2026-05-03T11:10:49.656Z</time></trkpt><trkpt lat="43.3693333" lon="11.4781717"><ele>352.0</ele><time>2026-05-03T11:10:50.655Z</time></trkpt><trkpt lat="43.3692917" lon="11.4779383"><ele>352.0</ele><time>2026-05-03T11:10:51.655Z</time></trkpt><trkpt lat="43.369225" lon="11.4777083"><ele>352.0</ele><time>2026-05-03T11:10:52.656Z</time></trkpt><trkpt lat="43.36914" lon="11.4775033"><ele>349.66666666666663</ele><time>2026-05-03T11:10:53.655Z</time></trkpt><trkpt lat="43.3690167" lon="11.4773017"><ele>347.3333333333333</ele><time>2026-05-03T11:10:54.655Z</time></trkpt><trkpt lat="43.3688983" lon="11.477095"><ele>345.0</ele><time>2026-05-03T11:10:55.655Z</time></trkpt><trkpt lat="43.3687617" lon="11.4768833"><ele>339.5</ele><time>2026-05-03T11:10:56.655Z</time></trkpt><trkpt lat="43.3686117" lon="11.476675"><ele>334.0</ele><time>2026-05-03T11:10:57.655Z</time></trkpt><trkpt lat="43.3684317" lon="11.4764567"><ele>330.0</ele><time>2026-05-03T11:10:58.655Z</time></trkpt><trkpt lat="43.368255" lon="11.4762567"><ele>326.0</ele><time>2026-05-03T11:10:59.656Z</time></trkpt><trkpt lat="43.36809" lon="11.476045"><ele>324.6666666666667</ele><time>2026-05-03T11:11:00.655Z</time></trkpt><trkpt lat="43.3679483" lon="11.4758617"><ele>323.3333333333333</ele><time>2026-05-03T11:11:01.655Z</time></trkpt><trkpt lat="43.3678167" lon="11.4757"><ele>322.0</ele><time>2026-05-03T11:11:02.656Z</time></trkpt><trkpt lat="43.3677" lon="11.4755583"><ele>320.0</ele><time>2026-05-03T11:11:03.656Z</time></trkpt><trkpt lat="43.367605" lon="11.475405"><ele>318.0</ele><time>2026-05-03T11:11:04.655Z</time></trkpt><trkpt lat="43.3675383" lon="11.4752333"><ele>316.0</ele><time>2026-05-03T11:11:05.655Z</time></trkpt><trkpt lat="43.3675033" lon="11.4750267"><ele>314.0</ele><time>2026-05-03T11:11:06.656Z</time></trkpt><trkpt lat="43.36749" lon="11.4748167"><ele>314.0</ele><time>2026-05-03T11:11:07.656Z</time></trkpt><trkpt lat="43.367495" lon="11.4746517"><ele>314.0</ele><time>2026-05-03T11:11:08.655Z</time></trkpt><trkpt lat="43.3675333" lon="11.4745283"><ele>314.0</ele><time>2026-05-03T11:11:09.655Z</time></trkpt><trkpt lat="43.3675833" lon="11.474445"><ele>314.0</ele><time>2026-05-03T11:11:10.655Z</time></trkpt><trkpt lat="43.36765" lon="11.4743883"><ele>314.0</ele><time>2026-05-03T11:11:11.656Z</time></trkpt><trkpt lat="43.367735" lon="11.4743867"><ele>314.0</ele><time>2026-05-03T11:11:12.656Z</time></trkpt><trkpt lat="43.3678483" lon="11.4744483"><ele>314.0</ele><time>2026-05-03T11:11:13.656Z</time></trkpt><trkpt lat="43.367955" lon="11.4745433"><ele>314.0</ele><time>2026-05-03T11:11:14.655Z</time></trkpt><trkpt lat="43.36806" lon="11.4746333"><ele>314.0</ele><time>2026-05-03T11:11:15.655Z</time></trkpt><trkpt lat="43.3681617" lon="11.4746683"><ele>314.0</ele><time>2026-05-03T11:11:16.655Z</time></trkpt><trkpt lat="43.3682367" lon="11.474625"><ele>314.0</ele><time>2026-05-03T11:11:17.655Z</time></trkpt><trkpt lat="43.3683233" lon="11.474545"><ele>314.0</ele><time>2026-05-03T11:11:18.656Z</time></trkpt><trkpt lat="43.3683583" lon="11.4744267"><ele>314.0</ele><time>2026-05-03T11:11:19.656Z</time></trkpt><trkpt lat="43.36836" lon="11.4743067"><ele>314.0</ele><time>2026-05-03T11:11:20.655Z</time></trkpt><trkpt lat="43.368345" lon="11.4741967"><ele>314.0</ele><time>2026-05-03T11:11:21.656Z</time></trkpt><trkpt lat="43.36824" lon="11.4740667"><ele>310.33333333333337</ele><time>2026-05-03T11:11:22.656Z</time></trkpt><trkpt lat="43.368135" lon="11.47393"><ele>306.6666666666667</ele><time>2026-05-03T11:11:23.656Z</time></trkpt><trkpt lat="43.368025" lon="11.4737767"><ele>303.0</ele><time>2026-05-03T11:11:24.655Z</time></trkpt><trkpt lat="43.3678933" lon="11.4736283"><ele>300.25</ele><time>2026-05-03T11:11:25.656Z</time></trkpt><trkpt lat="43.3677683" lon="11.4735167"><ele>297.5</ele><time>2026-05-03T11:11:26.655Z</time></trkpt><trkpt lat="43.3676483" lon="11.4734433"><ele>294.75</ele><time>2026-05-03T11:11:27.656Z</time></trkpt><trkpt lat="43.3675117" lon="11.47339"><ele>292.0</ele><time>2026-05-03T11:11:28.656Z</time></trkpt><trkpt lat="43.3673795" lon="11.473331"><ele>292.0</ele><time>2026-05-03T11:11:29.655Z</time></trkpt><trkpt lat="43.3672694" lon="11.4732538"><ele>292.0</ele><time>2026-05-03T11:11:30.655Z</time></trkpt><trkpt lat="43.3671916" lon="11.4731618"><ele>292.0</ele><time>2026-05-03T11:11:31.656Z</time></trkpt><trkpt lat="43.3671633" lon="11.4730389"><ele>292.0</ele><time>2026-05-03T11:11:32.655Z</time></trkpt><trkpt lat="43.3671657" lon="11.4728983"><ele>292.0</ele><time>2026-05-03T11:11:33.656Z</time></trkpt><trkpt lat="43.3671969" lon="11.4727428"><ele>290.3333333333333</ele><time>2026-05-03T11:11:34.656Z</time></trkpt><trkpt lat="43.3672763" lon="11.4725372"><ele>288.6666666666667</ele><time>2026-05-03T11:11:35.655Z</time></trkpt><trkpt lat="43.3673748" lon="11.4723338"><ele>287.0</ele><time>2026-05-03T11:11:36.656Z</time></trkpt><trkpt lat="43.3674988" lon="11.4721362"><ele>286.6666666666667</ele><time>2026-05-03T11:11:37.656Z</time></trkpt><trkpt lat="43.3676445" lon="11.4719526"><ele>286.3333333333333</ele><time>2026-05-03T11:11:38.656Z</time></trkpt><trkpt lat="43.3677786" lon="11.4717802"><ele>286.0</ele><time>2026-05-03T11:11:39.655Z</time></trkpt><trkpt lat="43.3678796" lon="11.471598"><ele>286.0</ele><time>2026-05-03T11:11:40.656Z</time></trkpt><trkpt lat="43.3679489" lon="11.4714014"><ele>286.0</ele><time>2026-05-03T11:11:41.656Z</time></trkpt><trkpt lat="43.3679785" lon="11.4712111"><ele>286.0</ele><time>2026-05-03T11:11:42.655Z</time></trkpt><trkpt lat="43.3679858" lon="11.4710275"><ele>286.0</ele><time>2026-05-03T11:11:43.655Z</time></trkpt><trkpt lat="43.3679715" lon="11.4708354"><ele>285.0</ele><time>2026-05-03T11:11:44.656Z</time></trkpt><trkpt lat="43.3678566" lon="11.4705817"><ele>284.0</ele><time>2026-05-03T11:11:45.656Z</time></trkpt><trkpt lat="43.3677348" lon="11.4702783"><ele>279.5</ele><time>2026-05-03T11:11:46.655Z</time></trkpt><trkpt lat="43.3675858" lon="11.4699162"><ele>275.0</ele><time>2026-05-03T11:11:47.655Z</time></trkpt><trkpt lat="43.3674473" lon="11.4695673"><ele>274.0</ele><time>2026-05-03T11:11:48.656Z</time></trkpt><trkpt lat="43.3673244" lon="11.4692553"><ele>273.0</ele><time>2026-05-03T11:11:49.655Z</time></trkpt><trkpt lat="43.3672365" lon="11.4689786"><ele>275.6666666666667</ele><time>2026-05-03T11:11:50.656Z</time></trkpt><trkpt lat="43.3671893" lon="11.4687502"><ele>278.33333333333337</ele><time>2026-05-03T11:11:51.656Z</time></trkpt><trkpt lat="43.3671689" lon="11.4685523"><ele>281.0</ele><time>2026-05-03T11:11:52.656Z</time></trkpt><trkpt lat="43.3671766" lon="11.4683641"><ele>277.75</ele><time>2026-05-03T11:11:53.656Z</time></trkpt><trkpt lat="43.3672084" lon="11.4682035"><ele>274.5</ele><time>2026-05-03T11:11:54.656Z</time></trkpt><trkpt lat="43.3672836" lon="11.4680414"><ele>271.25</ele><time>2026-05-03T11:11:55.656Z</time></trkpt><trkpt lat="43.3674002" lon="11.4678726"><ele>268.0</ele><time>2026-05-03T11:11:56.656Z</time></trkpt><trkpt lat="43.3675342" lon="11.4677046"><ele>267.0</ele><time>2026-05-03T11:11:57.655Z</time></trkpt><trkpt lat="43.3676637" lon="11.4675519"><ele>266.0</ele><time>2026-05-03T11:11:58.655Z</time></trkpt><trkpt lat="43.3677626" lon="11.4673999"><ele>265.0</ele><time>2026-05-03T11:11:59.656Z</time></trkpt><trkpt lat="43.3678081" lon="11.4672271"><ele>264.66666666666663</ele><time>2026-05-03T11:12:00.655Z</time></trkpt><trkpt lat="43.3678068" lon="11.4670482"><ele>264.3333333333333</ele><time>2026-05-03T11:12:01.655Z</time></trkpt><trkpt lat="43.3677581" lon="11.4668287"><ele>264.0</ele><time>2026-05-03T11:12:02.656Z</time></trkpt><trkpt lat="43.3676827" lon="11.4665894"><ele>264.0</ele><time>2026-05-03T11:12:03.656Z</time></trkpt><trkpt lat="43.3675848" lon="11.4663244"><ele>264.0</ele><time>2026-05-03T11:12:04.656Z</time></trkpt><trkpt lat="43.3674749" lon="11.4660207"><ele>264.0</ele><time>2026-05-03T11:12:05.656Z</time></trkpt><trkpt lat="43.3673527" lon="11.4657061"><ele>264.0</ele><time>2026-05-03T11:12:06.655Z</time></trkpt><trkpt lat="43.3672205" lon="11.4653928"><ele>263.5</ele><time>2026-05-03T11:12:07.655Z</time></trkpt><trkpt lat="43.3670848" lon="11.4650814"><ele>263.0</ele><time>2026-05-03T11:12:08.655Z</time></trkpt><trkpt lat="43.3669538" lon="11.4647639"><ele>262.5</ele><time>2026-05-03T11:12:09.655Z</time></trkpt><trkpt lat="43.3668328" lon="11.4644131"><ele>262.0</ele><time>2026-05-03T11:12:10.655Z</time></trkpt><trkpt lat="43.3667313" lon="11.4640004"><ele>261.5</ele><time>2026-05-03T11:12:11.656Z</time></trkpt><trkpt lat="43.3666279" lon="11.4635399"><ele>261.0</ele><time>2026-05-03T11:12:12.655Z</time></trkpt><trkpt lat="43.3665135" lon="11.4630612"><ele>261.0</ele><time>2026-05-03T11:12:13.655Z</time></trkpt><trkpt lat="43.3664063" lon="11.4625849"><ele>261.0</ele><time>2026-05-03T11:12:14.655Z</time></trkpt><trkpt lat="43.3663042" lon="11.4621526"><ele>258.0</ele><time>2026-05-03T11:12:15.655Z</time></trkpt><trkpt lat="43.3662156" lon="11.4617595"><ele>255.0</ele><time>2026-05-03T11:12:16.656Z</time></trkpt><trkpt lat="43.3661202" lon="11.4613986"><ele>255.0</ele><time>2026-05-03T11:12:17.655Z</time></trkpt><trkpt lat="43.3660181" lon="11.4610387"><ele>255.0</ele><time>2026-05-03T11:12:18.656Z</time></trkpt><trkpt lat="43.3659369" lon="11.4606815"><ele>256.0</ele><time>2026-05-03T11:12:19.656Z</time></trkpt><trkpt lat="43.3658661" lon="11.4603187"><ele>257.0</ele><time>2026-05-03T11:12:20.655Z</time></trkpt><trkpt lat="43.365808" lon="11.4599531"><ele>257.5</ele><time>2026-05-03T11:12:21.655Z</time></trkpt><trkpt lat="43.3657567" lon="11.4596117"><ele>258.0</ele><time>2026-05-03T11:12:22.656Z</time></trkpt><trkpt lat="43.3657108" lon="11.4592857"><ele>258.0</ele><time>2026-05-03T11:12:23.656Z</time></trkpt><trkpt lat="43.3656732" lon="11.4589726"><ele>258.0</ele><time>2026-05-03T11:12:24.656Z</time></trkpt><trkpt lat="43.3656179" lon="11.4586744"><ele>258.0</ele><time>2026-05-03T11:12:25.655Z</time></trkpt><trkpt lat="43.365562" lon="11.4583867"><ele>258.0</ele><time>2026-05-03T11:12:26.655Z</time></trkpt><trkpt lat="43.3654946" lon="11.4581063"><ele>258.0</ele><time>2026-05-03T11:12:27.656Z</time></trkpt><trkpt lat="43.3653994" lon="11.4578556"><ele>258.0</ele><time>2026-05-03T11:12:28.656Z</time></trkpt><trkpt lat="43.3652859" lon="11.4576202"><ele>258.0</ele><time>2026-05-03T11:12:29.655Z</time></trkpt><trkpt lat="43.3651693" lon="11.4574022"><ele>258.0</ele><time>2026-05-03T11:12:30.655Z</time></trkpt><trkpt lat="43.3650752" lon="11.457205"><ele>257.5</ele><time>2026-05-03T11:12:31.655Z</time></trkpt><trkpt lat="43.3650113" lon="11.4570339"><ele>257.0</ele><time>2026-05-03T11:12:32.656Z</time></trkpt><trkpt lat="43.3649951" lon="11.4568505"><ele>256.5</ele><time>2026-05-03T11:12:33.655Z</time></trkpt><trkpt lat="43.3650069" lon="11.4566472"><ele>256.0</ele><time>2026-05-03T11:12:34.655Z</time></trkpt><trkpt lat="43.3650315" lon="11.4564119"><ele>257.3333333333333</ele><time>2026-05-03T11:12:35.655Z</time></trkpt><trkpt lat="43.3650329" lon="11.45616"><ele>258.6666666666667</ele><time>2026-05-03T11:12:36.656Z</time></trkpt><trkpt lat="43.3649813" lon="11.455921"><ele>260.0</ele><time>2026-05-03T11:12:37.656Z</time></trkpt><trkpt lat="43.3648702" lon="11.455668"><ele>259.0</ele><time>2026-05-03T11:12:38.656Z</time></trkpt><trkpt lat="43.3647255" lon="11.4554055"><ele>258.0</ele><time>2026-05-03T11:12:39.656Z</time></trkpt><trkpt lat="43.3645313" lon="11.4551261"><ele>258.0</ele><time>2026-05-03T11:12:40.656Z</time></trkpt><trkpt lat="43.3643215" lon="11.454842"><ele>258.0</ele><time>2026-05-03T11:12:41.655Z</time></trkpt><trkpt lat="43.3641327" lon="11.454577"><ele>256.5</ele><time>2026-05-03T11:12:42.655Z</time></trkpt><trkpt lat="43.3639657" lon="11.4543277"><ele>255.0</ele><time>2026-05-03T11:12:43.655Z</time></trkpt><trkpt lat="43.363811" lon="11.4541117"><ele>255.0</ele><time>2026-05-03T11:12:44.655Z</time></trkpt><trkpt lat="43.3636799" lon="11.4538897"><ele>255.0</ele><time>2026-05-03T11:12:45.656Z</time></trkpt><trkpt lat="43.3635637" lon="11.4537217"><ele>255.0</ele><time>2026-05-03T11:12:46.656Z</time></trkpt><trkpt lat="43.3634543" lon="11.4535994"><ele>259.25</ele><time>2026-05-03T11:12:47.655Z</time></trkpt><trkpt lat="43.3633241" lon="11.4535309"><ele>263.5</ele><time>2026-05-03T11:12:48.656Z</time></trkpt><trkpt lat="43.3631925" lon="11.4535071"><ele>267.75</ele><time>2026-05-03T11:12:49.655Z</time></trkpt><trkpt lat="43.3630528" lon="11.4535282"><ele>272.0</ele><time>2026-05-03T11:12:50.655Z</time></trkpt><trkpt lat="43.3628855" lon="11.4535923"><ele>274.33333333333337</ele><time>2026-05-03T11:12:51.655Z</time></trkpt><trkpt lat="43.3626966" lon="11.4536615"><ele>276.6666666666667</ele><time>2026-05-03T11:12:52.655Z</time></trkpt><trkpt lat="43.3625014" lon="11.4536901"><ele>279.0</ele><time>2026-05-03T11:12:53.656Z</time></trkpt><trkpt lat="43.3623111" lon="11.4536806"><ele>276.0</ele><time>2026-05-03T11:12:54.655Z</time></trkpt><trkpt lat="43.3621238" lon="11.4536214"><ele>273.0</ele><time>2026-05-03T11:12:55.655Z</time></trkpt><trkpt lat="43.3619364" lon="11.4535275"><ele>270.0</ele><time>2026-05-03T11:12:56.655Z</time></trkpt><trkpt lat="43.361757" lon="11.4533982"><ele>270.0</ele><time>2026-05-03T11:12:57.655Z</time></trkpt><trkpt lat="43.3615611" lon="11.4532494"><ele>270.0</ele><time>2026-05-03T11:12:58.656Z</time></trkpt><trkpt lat="43.3612026" lon="11.4530291"><ele>269.3333333333333</ele><time>2026-05-03T11:13:00.655Z</time></trkpt><trkpt lat="43.3610374" lon="11.4529971"><ele>268.66666666666663</ele><time>2026-05-03T11:13:01.655Z</time></trkpt><trkpt lat="43.360886" lon="11.4530316"><ele>268.0</ele><time>2026-05-03T11:13:02.655Z</time></trkpt><trkpt lat="43.3607477" lon="11.4531138"><ele>268.0</ele><time>2026-05-03T11:13:03.655Z</time></trkpt><trkpt lat="43.3606239" lon="11.4531568"><ele>268.0</ele><time>2026-05-03T11:13:04.655Z</time></trkpt><trkpt lat="43.3605234" lon="11.4531575"><ele>268.0</ele><time>2026-05-03T11:13:05.656Z</time></trkpt><trkpt lat="43.3604411" lon="11.4530879"><ele>268.0</ele><time>2026-05-03T11:13:06.656Z</time></trkpt><trkpt lat="43.3603692" lon="11.4529739"><ele>268.0</ele><time>2026-05-03T11:13:07.655Z</time></trkpt><trkpt lat="43.3602985" lon="11.4527953"><ele>268.66666666666663</ele><time>2026-05-03T11:13:08.656Z</time></trkpt><trkpt lat="43.3602172" lon="11.4525736"><ele>269.3333333333333</ele><time>2026-05-03T11:13:09.656Z</time></trkpt><trkpt lat="43.3601151" lon="11.4523542"><ele>270.0</ele><time>2026-05-03T11:13:10.656Z</time></trkpt><trkpt lat="43.360015" lon="11.4521583"><ele>274.0</ele><time>2026-05-03T11:13:11.656Z</time></trkpt><trkpt lat="43.3599264" lon="11.4519809"><ele>278.0</ele><time>2026-05-03T11:13:12.655Z</time></trkpt><trkpt lat="43.3598675" lon="11.4517909"><ele>282.0</ele><time>2026-05-03T11:13:13.655Z</time></trkpt><trkpt lat="43.3598538" lon="11.4515801"><ele>282.0</ele><time>2026-05-03T11:13:14.655Z</time></trkpt><trkpt lat="43.3598631" lon="11.4513826"><ele>282.0</ele><time>2026-05-03T11:13:15.656Z</time></trkpt><trkpt lat="43.3598926" lon="11.4511778"><ele>282.0</ele><time>2026-05-03T11:13:16.655Z</time></trkpt><trkpt lat="43.3599558" lon="11.4509681"><ele>282.0</ele><time>2026-05-03T11:13:17.656Z</time></trkpt><trkpt lat="43.360034" lon="11.4507387"><ele>282.0</ele><time>2026-05-03T11:13:18.655Z</time></trkpt><trkpt lat="43.3601074" lon="11.4504834"><ele>282.0</ele><time>2026-05-03T11:13:19.656Z</time></trkpt><trkpt lat="43.360176" lon="11.4501897"><ele>282.0</ele><time>2026-05-03T11:13:20.655Z</time></trkpt><trkpt lat="43.3602328" lon="11.4498635"><ele>282.0</ele><time>2026-05-03T11:13:21.656Z</time></trkpt><trkpt lat="43.3602807" lon="11.4494831"><ele>284.0</ele><time>2026-05-03T11:13:22.655Z</time></trkpt><trkpt lat="43.3603251" lon="11.4490886"><ele>286.0</ele><time>2026-05-03T11:13:23.655Z</time></trkpt><trkpt lat="43.3603739" lon="11.4487302"><ele>289.3333333333333</ele><time>2026-05-03T11:13:24.655Z</time></trkpt><trkpt lat="43.3604258" lon="11.448417"><ele>292.6666666666667</ele><time>2026-05-03T11:13:25.655Z</time></trkpt><trkpt lat="43.3604643" lon="11.4481629"><ele>296.0</ele><time>2026-05-03T11:13:26.656Z</time></trkpt><trkpt lat="43.3604526" lon="11.4479691"><ele>297.0</ele><time>2026-05-03T11:13:27.655Z</time></trkpt><trkpt lat="43.3604172" lon="11.4477909"><ele>298.0</ele><time>2026-05-03T11:13:28.656Z</time></trkpt><trkpt lat="43.3603523" lon="11.4476081"><ele>299.0</ele><time>2026-05-03T11:13:29.655Z</time></trkpt><trkpt lat="43.3602568" lon="11.4474284"><ele>300.0</ele><time>2026-05-03T11:13:30.655Z</time></trkpt><trkpt lat="43.3601354" lon="11.447258"><ele>300.6666666666667</ele><time>2026-05-03T11:13:31.655Z</time></trkpt><trkpt lat="43.3600589" lon="11.4470631"><ele>301.33333333333337</ele><time>2026-05-03T11:13:32.655Z</time></trkpt><trkpt lat="43.3600061" lon="11.4468584"><ele>302.0</ele><time>2026-05-03T11:13:33.655Z</time></trkpt><trkpt lat="43.3599898" lon="11.4466603"><ele>302.0</ele><time>2026-05-03T11:13:34.655Z</time></trkpt><trkpt lat="43.3600061" lon="11.4464806"><ele>302.0</ele><time>2026-05-03T11:13:35.655Z</time></trkpt><trkpt lat="43.3600508" lon="11.4463179"><ele>302.0</ele><time>2026-05-03T11:13:36.655Z</time></trkpt><trkpt lat="43.3601255" lon="11.4461931"><ele>302.0</ele><time>2026-05-03T11:13:37.655Z</time></trkpt><trkpt lat="43.3602387" lon="11.4461268"><ele>303.0</ele><time>2026-05-03T11:13:38.655Z</time></trkpt><trkpt lat="43.3603931" lon="11.4461043"><ele>304.0</ele><time>2026-05-03T11:13:39.655Z</time></trkpt><trkpt lat="43.3605937" lon="11.4461087"><ele>305.0</ele><time>2026-05-03T11:13:40.654Z</time></trkpt><trkpt lat="43.3608047" lon="11.4460899"><ele>305.0</ele><time>2026-05-03T11:13:41.655Z</time></trkpt><trkpt lat="43.3610281" lon="11.4460463"><ele>305.0</ele><time>2026-05-03T11:13:42.654Z</time></trkpt><trkpt lat="43.3612992" lon="11.4459538"><ele>309.5</ele><time>2026-05-03T11:13:43.654Z</time></trkpt><trkpt lat="43.3615724" lon="11.4458394"><ele>314.0</ele><time>2026-05-03T11:13:44.654Z</time></trkpt><trkpt lat="43.3618167" lon="11.4457455"><ele>314.0</ele><time>2026-05-03T11:13:45.654Z</time></trkpt><trkpt lat="43.3620258" lon="11.4456572"><ele>314.0</ele><time>2026-05-03T11:13:46.655Z</time></trkpt><trkpt lat="43.3622002" lon="11.44556"><ele>314.0</ele><time>2026-05-03T11:13:47.655Z</time></trkpt><trkpt lat="43.3623573" lon="11.4454622"><ele>313.6666666666667</ele><time>2026-05-03T11:13:48.655Z</time></trkpt><trkpt lat="43.3624803" lon="11.445327"><ele>313.3333333333333</ele><time>2026-05-03T11:13:49.654Z</time></trkpt><trkpt lat="43.3625699" lon="11.4451321"><ele>313.0</ele><time>2026-05-03T11:13:50.655Z</time></trkpt><trkpt lat="43.3626345" lon="11.4448891"><ele>311.3333333333333</ele><time>2026-05-03T11:13:51.654Z</time></trkpt><trkpt lat="43.3626569" lon="11.4446021"><ele>309.6666666666667</ele><time>2026-05-03T11:13:52.654Z</time></trkpt><trkpt lat="43.3626345" lon="11.4442818"><ele>308.0</ele><time>2026-05-03T11:13:53.654Z</time></trkpt><trkpt lat="43.3625933" lon="11.4439751"><ele>307.0</ele><time>2026-05-03T11:13:54.654Z</time></trkpt><trkpt lat="43.3625448" lon="11.4436965"><ele>306.0</ele><time>2026-05-03T11:13:55.655Z</time></trkpt><trkpt lat="43.3625359" lon="11.4434523"><ele>305.0</ele><time>2026-05-03T11:13:56.655Z</time></trkpt><trkpt lat="43.3625569" lon="11.4432068"><ele>302.33333333333337</ele><time>2026-05-03T11:13:57.655Z</time></trkpt><trkpt lat="43.3625947" lon="11.4429449"><ele>299.6666666666667</ele><time>2026-05-03T11:13:58.654Z</time></trkpt><trkpt lat="43.362636" lon="11.4426757"><ele>297.0</ele><time>2026-05-03T11:13:59.654Z</time></trkpt><trkpt lat="43.3626835" lon="11.4423981"><ele>295.6666666666667</ele><time>2026-05-03T11:14:00.654Z</time></trkpt><trkpt lat="43.362716" lon="11.442098"><ele>294.33333333333337</ele><time>2026-05-03T11:14:01.654Z</time></trkpt><trkpt lat="43.3627166" lon="11.441792"><ele>293.0</ele><time>2026-05-03T11:14:02.655Z</time></trkpt><trkpt lat="43.3627143" lon="11.4414734"><ele>290.6666666666667</ele><time>2026-05-03T11:14:03.654Z</time></trkpt><trkpt lat="43.3627033" lon="11.4411858"><ele>288.3333333333333</ele><time>2026-05-03T11:14:04.654Z</time></trkpt><trkpt lat="43.362689" lon="11.4409232"><ele>286.0</ele><time>2026-05-03T11:14:05.655Z</time></trkpt><trkpt lat="43.3626548" lon="11.4407029"><ele>286.0</ele><time>2026-05-03T11:14:06.655Z</time></trkpt><trkpt lat="43.3626062" lon="11.4405258"><ele>286.0</ele><time>2026-05-03T11:14:07.654Z</time></trkpt><trkpt lat="43.3625415" lon="11.4403489"><ele>286.0</ele><time>2026-05-03T11:14:08.654Z</time></trkpt><trkpt lat="43.3624416" lon="11.4402028"><ele>286.0</ele><time>2026-05-03T11:14:09.654Z</time></trkpt><trkpt lat="43.362311" lon="11.4401"><ele>284.0</ele><time>2026-05-03T11:14:10.655Z</time></trkpt><trkpt lat="43.362132" lon="11.4400242"><ele>282.0</ele><time>2026-05-03T11:14:11.654Z</time></trkpt><trkpt lat="43.3619238" lon="11.4399647"><ele>280.0</ele><time>2026-05-03T11:14:12.655Z</time></trkpt><trkpt lat="43.3617238" lon="11.439918"><ele>280.0</ele><time>2026-05-03T11:14:13.654Z</time></trkpt><trkpt lat="43.3615304" lon="11.4398845"><ele>280.0</ele><time>2026-05-03T11:14:14.654Z</time></trkpt><trkpt lat="43.3613429" lon="11.4398499"><ele>280.0</ele><time>2026-05-03T11:14:15.654Z</time></trkpt><trkpt lat="43.3611629" lon="11.4398184"><ele>279.0</ele><time>2026-05-03T11:14:16.654Z</time></trkpt><trkpt lat="43.3609882" lon="11.4397829"><ele>278.0</ele><time>2026-05-03T11:14:17.654Z</time></trkpt><trkpt lat="43.3608103" lon="11.439751"><ele>277.0</ele><time>2026-05-03T11:14:18.655Z</time></trkpt><trkpt lat="43.3606415" lon="11.4397167"><ele>276.66666666666663</ele><time>2026-05-03T11:14:19.654Z</time></trkpt><trkpt lat="43.3604746" lon="11.4396828"><ele>276.3333333333333</ele><time>2026-05-03T11:14:20.655Z</time></trkpt><trkpt lat="43.3603264" lon="11.4396274"><ele>276.0</ele><time>2026-05-03T11:14:21.655Z</time></trkpt><trkpt lat="43.3601979" lon="11.4395367"><ele>276.0</ele><time>2026-05-03T11:14:22.654Z</time></trkpt><trkpt lat="43.3601047" lon="11.4394192"><ele>276.0</ele><time>2026-05-03T11:14:23.654Z</time></trkpt><trkpt lat="43.3600345" lon="11.4392653"><ele>276.0</ele><time>2026-05-03T11:14:24.655Z</time></trkpt><trkpt lat="43.3599751" lon="11.4390881"><ele>276.0</ele><time>2026-05-03T11:14:25.655Z</time></trkpt><trkpt lat="43.3599162" lon="11.4388942"><ele>274.6666666666667</ele><time>2026-05-03T11:14:26.655Z</time></trkpt><trkpt lat="43.3598552" lon="11.4386899"><ele>273.33333333333337</ele><time>2026-05-03T11:14:27.655Z</time></trkpt><trkpt lat="43.359793" lon="11.4384898"><ele>272.0</ele><time>2026-05-03T11:14:28.654Z</time></trkpt><trkpt lat="43.3597343" lon="11.4383009"><ele>272.75</ele><time>2026-05-03T11:14:29.655Z</time></trkpt><trkpt lat="43.3596821" lon="11.4381182"><ele>273.5</ele><time>2026-05-03T11:14:30.654Z</time></trkpt><trkpt lat="43.359637" lon="11.4379416"><ele>274.25</ele><time>2026-05-03T11:14:31.654Z</time></trkpt><trkpt lat="43.3595898" lon="11.4377691"><ele>275.0</ele><time>2026-05-03T11:14:32.654Z</time></trkpt><trkpt lat="43.3595333" lon="11.4375971"><ele>275.5</ele><time>2026-05-03T11:14:33.654Z</time></trkpt><trkpt lat="43.3594698" lon="11.437429"><ele>276.0</ele><time>2026-05-03T11:14:34.654Z</time></trkpt><trkpt lat="43.3594107" lon="11.4372618"><ele>276.5</ele><time>2026-05-03T11:14:35.654Z</time></trkpt><trkpt lat="43.3593616" lon="11.4370979"><ele>277.0</ele><time>2026-05-03T11:14:36.654Z</time></trkpt><trkpt lat="43.3593067" lon="11.4369512"><ele>275.5</ele><time>2026-05-03T11:14:37.654Z</time></trkpt><trkpt lat="43.3592269" lon="11.4368304"><ele>274.0</ele><time>2026-05-03T11:14:38.655Z</time></trkpt><trkpt lat="43.3591106" lon="11.4367349"><ele>272.5</ele><time>2026-05-03T11:14:39.655Z</time></trkpt><trkpt lat="43.358976" lon="11.4366587"><ele>271.0</ele><time>2026-05-03T11:14:40.654Z</time></trkpt><trkpt lat="43.3588384" lon="11.4365875"><ele>270.5</ele><time>2026-05-03T11:14:41.655Z</time></trkpt><trkpt lat="43.3587043" lon="11.4364962"><ele>270.0</ele><time>2026-05-03T11:14:42.655Z</time></trkpt><trkpt lat="43.3585998" lon="11.4363975"><ele>269.5</ele><time>2026-05-03T11:14:43.655Z</time></trkpt><trkpt lat="43.3585319" lon="11.4362973"><ele>269.0</ele><time>2026-05-03T11:14:44.654Z</time></trkpt><trkpt lat="43.3584864" lon="11.4361906"><ele>269.0</ele><time>2026-05-03T11:14:45.654Z</time></trkpt><trkpt lat="43.3584661" lon="11.4360725"><ele>269.0</ele><time>2026-05-03T11:14:46.654Z</time></trkpt><trkpt lat="43.3584756" lon="11.4359152"><ele>269.0</ele><time>2026-05-03T11:14:47.655Z</time></trkpt><trkpt lat="43.3585191" lon="11.4357273"><ele>269.0</ele><time>2026-05-03T11:14:48.654Z</time></trkpt><trkpt lat="43.358579" lon="11.4355139"><ele>269.6666666666667</ele><time>2026-05-03T11:14:49.654Z</time></trkpt><trkpt lat="43.3586498" lon="11.43529"><ele>270.3333333333333</ele><time>2026-05-03T11:14:50.654Z</time></trkpt><trkpt lat="43.3587322" lon="11.4350731"><ele>271.0</ele><time>2026-05-03T11:14:51.655Z</time></trkpt><trkpt lat="43.3588107" lon="11.4348548"><ele>268.3333333333333</ele><time>2026-05-03T11:14:52.654Z</time></trkpt><trkpt lat="43.3588891" lon="11.4346315"><ele>265.6666666666667</ele><time>2026-05-03T11:14:53.654Z</time></trkpt><trkpt lat="43.3589409" lon="11.4343953"><ele>263.0</ele><time>2026-05-03T11:14:54.654Z</time></trkpt><trkpt lat="43.3589641" lon="11.4341502"><ele>263.0</ele><time>2026-05-03T11:14:55.655Z</time></trkpt><trkpt lat="43.3589608" lon="11.4339012"><ele>263.0</ele><time>2026-05-03T11:14:56.655Z</time></trkpt><trkpt lat="43.3589262" lon="11.4336333"><ele>263.0</ele><time>2026-05-03T11:14:57.655Z</time></trkpt><trkpt lat="43.3588784" lon="11.4333499"><ele>263.0</ele><time>2026-05-03T11:14:58.655Z</time></trkpt><trkpt lat="43.3588308" lon="11.4330589"><ele>263.0</ele><time>2026-05-03T11:14:59.654Z</time></trkpt><trkpt lat="43.3587917" lon="11.4327733"><ele>263.0</ele><time>2026-05-03T11:15:00.654Z</time></trkpt><trkpt lat="43.3587841" lon="11.432497"><ele>263.0</ele><time>2026-05-03T11:15:01.654Z</time></trkpt><trkpt lat="43.3588025" lon="11.4322312"><ele>263.0</ele><time>2026-05-03T11:15:02.654Z</time></trkpt><trkpt lat="43.3588427" lon="11.4319719"><ele>263.0</ele><time>2026-05-03T11:15:03.655Z</time></trkpt><trkpt lat="43.3588991" lon="11.4316997"><ele>263.33333333333337</ele><time>2026-05-03T11:15:04.654Z</time></trkpt><trkpt lat="43.3589632" lon="11.4314119"><ele>263.6666666666667</ele><time>2026-05-03T11:15:05.654Z</time></trkpt><trkpt lat="43.3590268" lon="11.4311197"><ele>264.0</ele><time>2026-05-03T11:15:06.654Z</time></trkpt><trkpt lat="43.3590763" lon="11.4308453"><ele>264.0</ele><time>2026-05-03T11:15:07.654Z</time></trkpt><trkpt lat="43.3591056" lon="11.430574"><ele>264.0</ele><time>2026-05-03T11:15:08.654Z</time></trkpt><trkpt lat="43.3591317" lon="11.4303158"><ele>264.0</ele><time>2026-05-03T11:15:09.655Z</time></trkpt><trkpt lat="43.3591334" lon="11.4300443"><ele>264.3333333333333</ele><time>2026-05-03T11:15:10.655Z</time></trkpt><trkpt lat="43.3591175" lon="11.4297737"><ele>264.66666666666663</ele><time>2026-05-03T11:15:11.654Z</time></trkpt><trkpt lat="43.3590845" lon="11.4294985"><ele>265.0</ele><time>2026-05-03T11:15:12.654Z</time></trkpt><trkpt lat="43.3590338" lon="11.4292369"><ele>265.66666666666663</ele><time>2026-05-03T11:15:13.654Z</time></trkpt><trkpt lat="43.3589759" lon="11.4289815"><ele>266.3333333333333</ele><time>2026-05-03T11:15:14.654Z</time></trkpt><trkpt lat="43.358891" lon="11.4287555"><ele>267.0</ele><time>2026-05-03T11:15:15.655Z</time></trkpt><trkpt lat="43.3587661" lon="11.4285633"><ele>267.0</ele><time>2026-05-03T11:15:16.654Z</time></trkpt><trkpt lat="43.3586278" lon="11.4283703"><ele>267.0</ele><time>2026-05-03T11:15:17.654Z</time></trkpt><trkpt lat="43.3584794" lon="11.4281583"><ele>267.0</ele><time>2026-05-03T11:15:18.654Z</time></trkpt><trkpt lat="43.3583289" lon="11.4279333"><ele>265.6666666666667</ele><time>2026-05-03T11:15:19.654Z</time></trkpt><trkpt lat="43.3581904" lon="11.4277062"><ele>264.33333333333337</ele><time>2026-05-03T11:15:20.654Z</time></trkpt><trkpt lat="43.3580602" lon="11.4275074"><ele>263.0</ele><time>2026-05-03T11:15:21.654Z</time></trkpt><trkpt lat="43.3579335" lon="11.4273323"><ele>263.0</ele><time>2026-05-03T11:15:22.654Z</time></trkpt><trkpt lat="43.3577921" lon="11.4271598"><ele>263.0</ele><time>2026-05-03T11:15:23.655Z</time></trkpt><trkpt lat="43.3576296" lon="11.4270199"><ele>263.0</ele><time>2026-05-03T11:15:24.655Z</time></trkpt><trkpt lat="43.3574267" lon="11.4269133"><ele>260.6666666666667</ele><time>2026-05-03T11:15:25.654Z</time></trkpt><trkpt lat="43.3572367" lon="11.4267933"><ele>258.3333333333333</ele><time>2026-05-03T11:15:26.655Z</time></trkpt><trkpt lat="43.3570433" lon="11.4266933"><ele>256.0</ele><time>2026-05-03T11:15:27.654Z</time></trkpt><trkpt lat="43.3568483" lon="11.42654"><ele>256.0</ele><time>2026-05-03T11:15:28.655Z</time></trkpt><trkpt lat="43.356665" lon="11.4263883"><ele>256.0</ele><time>2026-05-03T11:15:29.655Z</time></trkpt><trkpt lat="43.3564967" lon="11.426225"><ele>256.0</ele><time>2026-05-03T11:15:30.654Z</time></trkpt><trkpt lat="43.3563317" lon="11.4260333"><ele>251.0</ele><time>2026-05-03T11:15:31.655Z</time></trkpt><trkpt lat="43.356165" lon="11.4258233"><ele>246.0</ele><time>2026-05-03T11:15:32.654Z</time></trkpt><trkpt lat="43.355985" lon="11.4255883"><ele>243.0</ele><time>2026-05-03T11:15:33.654Z</time></trkpt><trkpt lat="43.35581" lon="11.42536"><ele>240.0</ele><time>2026-05-03T11:15:34.654Z</time></trkpt><trkpt lat="43.3556483" lon="11.4251433"><ele>240.0</ele><time>2026-05-03T11:15:35.655Z</time></trkpt><trkpt lat="43.35549" lon="11.4249317"><ele>240.0</ele><time>2026-05-03T11:15:36.655Z</time></trkpt><trkpt lat="43.355335" lon="11.4247383"><ele>240.0</ele><time>2026-05-03T11:15:37.655Z</time></trkpt><trkpt lat="43.3551967" lon="11.42456"><ele>239.0</ele><time>2026-05-03T11:15:38.655Z</time></trkpt><trkpt lat="43.3550767" lon="11.4243967"><ele>238.0</ele><time>2026-05-03T11:15:39.655Z</time></trkpt><trkpt lat="43.3549767" lon="11.4242367"><ele>237.0</ele><time>2026-05-03T11:15:40.655Z</time></trkpt><trkpt lat="43.3549283" lon="11.4240917"><ele>236.0</ele><time>2026-05-03T11:15:41.655Z</time></trkpt><trkpt lat="43.354925" lon="11.4239117"><ele>234.66666666666669</ele><time>2026-05-03T11:15:42.654Z</time></trkpt><trkpt lat="43.354955" lon="11.423705"><ele>233.33333333333331</ele><time>2026-05-03T11:15:43.655Z</time></trkpt><trkpt lat="43.35501" lon="11.4234733"><ele>232.0</ele><time>2026-05-03T11:15:44.654Z</time></trkpt><trkpt lat="43.35508" lon="11.423215"><ele>229.66666666666666</ele><time>2026-05-03T11:15:45.654Z</time></trkpt><trkpt lat="43.3551483" lon="11.4229417"><ele>227.33333333333331</ele><time>2026-05-03T11:15:46.654Z</time></trkpt><trkpt lat="43.3552283" lon="11.4226367"><ele>225.0</ele><time>2026-05-03T11:15:47.655Z</time></trkpt><trkpt lat="43.355275" lon="11.4223217"><ele>221.5</ele><time>2026-05-03T11:15:48.654Z</time></trkpt><trkpt lat="43.3553167" lon="11.4219867"><ele>218.0</ele><time>2026-05-03T11:15:49.655Z</time></trkpt><trkpt lat="43.3553417" lon="11.4216467"><ele>216.5</ele><time>2026-05-03T11:15:50.655Z</time></trkpt><trkpt lat="43.355375" lon="11.4212983"><ele>215.0</ele><time>2026-05-03T11:15:51.655Z</time></trkpt><trkpt lat="43.3554217" lon="11.4209533"><ele>215.0</ele><time>2026-05-03T11:15:52.654Z</time></trkpt><trkpt lat="43.35548" lon="11.4206267"><ele>215.0</ele><time>2026-05-03T11:15:53.655Z</time></trkpt><trkpt lat="43.3555333" lon="11.42032"><ele>216.0</ele><time>2026-05-03T11:15:54.654Z</time></trkpt><trkpt lat="43.35562" lon="11.4200033"><ele>217.0</ele><time>2026-05-03T11:15:55.654Z</time></trkpt><trkpt lat="43.3557" lon="11.4197233"><ele>216.66666666666666</ele><time>2026-05-03T11:15:56.654Z</time></trkpt><trkpt lat="43.3557933" lon="11.4194433"><ele>216.33333333333331</ele><time>2026-05-03T11:15:57.654Z</time></trkpt><trkpt lat="43.355895" lon="11.4191667"><ele>216.0</ele><time>2026-05-03T11:15:58.654Z</time></trkpt><trkpt lat="43.3560067" lon="11.41891"><ele>216.66666666666669</ele><time>2026-05-03T11:15:59.655Z</time></trkpt><trkpt lat="43.35613" lon="11.4186567"><ele>217.33333333333334</ele><time>2026-05-03T11:16:00.654Z</time></trkpt><trkpt lat="43.3562333" lon="11.4184317"><ele>218.0</ele><time>2026-05-03T11:16:01.654Z</time></trkpt><trkpt lat="43.356335" lon="11.4182183"><ele>217.66666666666669</ele><time>2026-05-03T11:16:02.654Z</time></trkpt><trkpt lat="43.356435" lon="11.4180117"><ele>217.33333333333331</ele><time>2026-05-03T11:16:03.654Z</time></trkpt><trkpt lat="43.3565233" lon="11.4178183"><ele>217.0</ele><time>2026-05-03T11:16:04.654Z</time></trkpt><trkpt lat="43.3566083" lon="11.4176533"><ele>217.39999999999998</ele><time>2026-05-03T11:16:05.654Z</time></trkpt><trkpt lat="43.3566767" lon="11.4175067"><ele>217.79999999999998</ele><time>2026-05-03T11:16:06.654Z</time></trkpt><trkpt lat="43.3567333" lon="11.417375"><ele>218.2</ele><time>2026-05-03T11:16:07.655Z</time></trkpt><trkpt lat="43.3567717" lon="11.4172417"><ele>218.6</ele><time>2026-05-03T11:16:08.655Z</time></trkpt><trkpt lat="43.3567983" lon="11.41713"><ele>219.0</ele><time>2026-05-03T11:16:09.654Z</time></trkpt><trkpt lat="43.356805" lon="11.417035"><ele>219.0</ele><time>2026-05-03T11:16:10.654Z</time></trkpt><trkpt lat="43.3568117" lon="11.4169483"><ele>219.0</ele><time>2026-05-03T11:16:11.654Z</time></trkpt><trkpt lat="43.3568433" lon="11.4168367"><ele>219.0</ele><time>2026-05-03T11:16:13.655Z</time></trkpt><trkpt lat="43.3568567" lon="11.4167317"><ele>219.0</ele><time>2026-05-03T11:16:16.654Z</time></trkpt><trkpt lat="43.3568267" lon="11.4166417"><ele>219.0</ele><time>2026-05-03T11:16:17.655Z</time></trkpt><trkpt lat="43.3567767" lon="11.4165317"><ele>219.0</ele><time>2026-05-03T11:16:18.654Z</time></trkpt><trkpt lat="43.3567067" lon="11.4164133"><ele>219.5</ele><time>2026-05-03T11:16:19.654Z</time></trkpt><trkpt lat="43.3566217" lon="11.41628"><ele>220.0</ele><time>2026-05-03T11:16:20.654Z</time></trkpt><trkpt lat="43.3565467" lon="11.416155"><ele>220.5</ele><time>2026-05-03T11:16:21.655Z</time></trkpt><trkpt lat="43.356475" lon="11.41604"><ele>221.0</ele><time>2026-05-03T11:16:22.654Z</time></trkpt><trkpt lat="43.356395" lon="11.4159417"><ele>221.25</ele><time>2026-05-03T11:16:23.654Z</time></trkpt><trkpt lat="43.35629" lon="11.41589"><ele>221.5</ele><time>2026-05-03T11:16:24.654Z</time></trkpt><trkpt lat="43.3561717" lon="11.415865"><ele>221.75</ele><time>2026-05-03T11:16:25.654Z</time></trkpt><trkpt lat="43.3560333" lon="11.415895"><ele>222.0</ele><time>2026-05-03T11:16:26.655Z</time></trkpt><trkpt lat="43.35589" lon="11.4159683"><ele>222.0</ele><time>2026-05-03T11:16:27.655Z</time></trkpt><trkpt lat="43.3557517" lon="11.4160733"><ele>222.0</ele><time>2026-05-03T11:16:28.654Z</time></trkpt><trkpt lat="43.3556317" lon="11.4161567"><ele>222.0</ele><time>2026-05-03T11:16:29.654Z</time></trkpt><trkpt lat="43.3555067" lon="11.416225"><ele>222.0</ele><time>2026-05-03T11:16:30.654Z</time></trkpt><trkpt lat="43.3553667" lon="11.4162617"><ele>223.66666666666669</ele><time>2026-05-03T11:16:31.654Z</time></trkpt><trkpt lat="43.355205" lon="11.4162783"><ele>225.33333333333334</ele><time>2026-05-03T11:16:32.655Z</time></trkpt><trkpt lat="43.3550383" lon="11.4162583"><ele>227.0</ele><time>2026-05-03T11:16:33.655Z</time></trkpt><trkpt lat="43.354845" lon="11.416245"><ele>226.33333333333334</ele><time>2026-05-03T11:16:34.654Z</time></trkpt><trkpt lat="43.3546417" lon="11.4162267"><ele>225.66666666666669</ele><time>2026-05-03T11:16:35.654Z</time></trkpt><trkpt lat="43.354445" lon="11.4161917"><ele>225.0</ele><time>2026-05-03T11:16:36.654Z</time></trkpt><trkpt lat="43.3542533" lon="11.4161683"><ele>225.0</ele><time>2026-05-03T11:16:37.654Z</time></trkpt><trkpt lat="43.3540683" lon="11.41615"><ele>225.0</ele><time>2026-05-03T11:16:38.655Z</time></trkpt><trkpt lat="43.3538733" lon="11.41611"><ele>225.0</ele><time>2026-05-03T11:16:39.654Z</time></trkpt><trkpt lat="43.3536933" lon="11.4160783"><ele>224.33333333333331</ele><time>2026-05-03T11:16:40.654Z</time></trkpt><trkpt lat="43.3535033" lon="11.41604"><ele>223.66666666666666</ele><time>2026-05-03T11:16:41.654Z</time></trkpt><trkpt lat="43.3533183" lon="11.4159933"><ele>223.0</ele><time>2026-05-03T11:16:42.654Z</time></trkpt><trkpt lat="43.3531333" lon="11.4159617"><ele>223.0</ele><time>2026-05-03T11:16:43.654Z</time></trkpt><trkpt lat="43.3529633" lon="11.4159067"><ele>223.0</ele><time>2026-05-03T11:16:44.654Z</time></trkpt><trkpt lat="43.3527967" lon="11.4158467"><ele>223.0</ele><time>2026-05-03T11:16:45.655Z</time></trkpt><trkpt lat="43.3526333" lon="11.4157867"><ele>223.0</ele><time>2026-05-03T11:16:46.655Z</time></trkpt><trkpt lat="43.35247" lon="11.4157317"><ele>223.0</ele><time>2026-05-03T11:16:47.655Z</time></trkpt><trkpt lat="43.3523017" lon="11.415685"><ele>223.0</ele><time>2026-05-03T11:16:48.655Z</time></trkpt><trkpt lat="43.3521267" lon="11.4156267"><ele>222.33333333333331</ele><time>2026-05-03T11:16:49.654Z</time></trkpt><trkpt lat="43.3519467" lon="11.41557"><ele>221.66666666666669</ele><time>2026-05-03T11:16:50.654Z</time></trkpt><trkpt lat="43.351765" lon="11.415515"><ele>221.0</ele><time>2026-05-03T11:16:51.654Z</time></trkpt><trkpt lat="43.35157" lon="11.4154567"><ele>220.66666666666669</ele><time>2026-05-03T11:16:52.654Z</time></trkpt><trkpt lat="43.3513633" lon="11.4153967"><ele>220.33333333333331</ele><time>2026-05-03T11:16:53.654Z</time></trkpt><trkpt lat="43.3511683" lon="11.4153367"><ele>220.0</ele><time>2026-05-03T11:16:54.655Z</time></trkpt><trkpt lat="43.3509567" lon="11.4152833"><ele>220.0</ele><time>2026-05-03T11:16:55.654Z</time></trkpt><trkpt lat="43.3507533" lon="11.4152433"><ele>220.0</ele><time>2026-05-03T11:16:56.654Z</time></trkpt><trkpt lat="43.3505633" lon="11.4152017"><ele>220.0</ele><time>2026-05-03T11:16:57.654Z</time></trkpt><trkpt lat="43.35039" lon="11.4151583"><ele>222.0</ele><time>2026-05-03T11:16:58.654Z</time></trkpt><trkpt lat="43.3502317" lon="11.4150867"><ele>224.0</ele><time>2026-05-03T11:16:59.655Z</time></trkpt><trkpt lat="43.3500967" lon="11.414995"><ele>226.0</ele><time>2026-05-03T11:17:00.654Z</time></trkpt><trkpt lat="43.34997" lon="11.4148517"><ele>226.0</ele><time>2026-05-03T11:17:01.655Z</time></trkpt><trkpt lat="43.3498567" lon="11.4146667"><ele>226.0</ele><time>2026-05-03T11:17:02.654Z</time></trkpt><trkpt lat="43.3497483" lon="11.4144467"><ele>226.0</ele><time>2026-05-03T11:17:03.654Z</time></trkpt><trkpt lat="43.3496333" lon="11.4142067"><ele>226.33333333333331</ele><time>2026-05-03T11:17:04.655Z</time></trkpt><trkpt lat="43.349525" lon="11.41394"><ele>226.66666666666669</ele><time>2026-05-03T11:17:05.654Z</time></trkpt><trkpt lat="43.3494267" lon="11.4136667"><ele>227.0</ele><time>2026-05-03T11:17:06.654Z</time></trkpt><trkpt lat="43.3493317" lon="11.4134083"><ele>227.0</ele><time>2026-05-03T11:17:07.654Z</time></trkpt><trkpt lat="43.34922" lon="11.4131751"><ele>227.0</ele><time>2026-05-03T11:17:08.654Z</time></trkpt><trkpt lat="43.349086" lon="11.4129675"><ele>227.0</ele><time>2026-05-03T11:17:09.654Z</time></trkpt><trkpt lat="43.3489388" lon="11.4127625"><ele>228.66666666666669</ele><time>2026-05-03T11:17:10.654Z</time></trkpt><trkpt lat="43.3488117" lon="11.4125545"><ele>230.33333333333331</ele><time>2026-05-03T11:17:11.654Z</time></trkpt><trkpt lat="43.3487008" lon="11.4123299"><ele>232.0</ele><time>2026-05-03T11:17:12.654Z</time></trkpt><trkpt lat="43.3486031" lon="11.4120817"><ele>232.0</ele><time>2026-05-03T11:17:13.654Z</time></trkpt><trkpt lat="43.3485288" lon="11.4118161"><ele>232.0</ele><time>2026-05-03T11:17:14.655Z</time></trkpt><trkpt lat="43.3484831" lon="11.4115304"><ele>232.0</ele><time>2026-05-03T11:17:15.654Z</time></trkpt><trkpt lat="43.3484668" lon="11.4112175"><ele>235.0</ele><time>2026-05-03T11:17:16.655Z</time></trkpt><trkpt lat="43.3484565" lon="11.4108882"><ele>238.0</ele><time>2026-05-03T11:17:17.655Z</time></trkpt><trkpt lat="43.3484144" lon="11.4105586"><ele>239.0</ele><time>2026-05-03T11:17:18.655Z</time></trkpt><trkpt lat="43.348343" lon="11.4102191"><ele>240.0</ele><time>2026-05-03T11:17:19.654Z</time></trkpt><trkpt lat="43.3482569" lon="11.4098717"><ele>240.0</ele><time>2026-05-03T11:17:20.655Z</time></trkpt><trkpt lat="43.3481688" lon="11.4095406"><ele>240.0</ele><time>2026-05-03T11:17:21.654Z</time></trkpt><trkpt lat="43.3480921" lon="11.4092247"><ele>250.5</ele><time>2026-05-03T11:17:22.655Z</time></trkpt><trkpt lat="43.3480431" lon="11.4089162"><ele>261.0</ele><time>2026-05-03T11:17:23.655Z</time></trkpt><trkpt lat="43.3480086" lon="11.4086133"><ele>262.5</ele><time>2026-05-03T11:17:24.654Z</time></trkpt><trkpt lat="43.3479937" lon="11.4082994"><ele>264.0</ele><time>2026-05-03T11:17:25.654Z</time></trkpt><trkpt lat="43.3479881" lon="11.407963"><ele>267.0</ele><time>2026-05-03T11:17:26.655Z</time></trkpt><trkpt lat="43.3479959" lon="11.4076124"><ele>270.0</ele><time>2026-05-03T11:17:27.654Z</time></trkpt><trkpt lat="43.3480198" lon="11.4072551"><ele>272.5</ele><time>2026-05-03T11:17:28.655Z</time></trkpt><trkpt lat="43.3480406" lon="11.4069131"><ele>275.0</ele><time>2026-05-03T11:17:29.655Z</time></trkpt><trkpt lat="43.348076" lon="11.4065967"><ele>268.6666666666667</ele><time>2026-05-03T11:17:30.654Z</time></trkpt><trkpt lat="43.3481075" lon="11.4063152"><ele>262.3333333333333</ele><time>2026-05-03T11:17:31.655Z</time></trkpt><trkpt lat="43.3481681" lon="11.4060464"><ele>256.0</ele><time>2026-05-03T11:17:32.655Z</time></trkpt><trkpt lat="43.3482464" lon="11.4057864"><ele>256.0</ele><time>2026-05-03T11:17:33.654Z</time></trkpt><trkpt lat="43.3483213" lon="11.4055194"><ele>256.0</ele><time>2026-05-03T11:17:34.655Z</time></trkpt><trkpt lat="43.3483761" lon="11.4052423"><ele>256.0</ele><time>2026-05-03T11:17:35.654Z</time></trkpt><trkpt lat="43.3484245" lon="11.4049405"><ele>259.66666666666663</ele><time>2026-05-03T11:17:36.654Z</time></trkpt><trkpt lat="43.348464" lon="11.4046645"><ele>263.3333333333333</ele><time>2026-05-03T11:17:37.654Z</time></trkpt><trkpt lat="43.3485115" lon="11.4044231"><ele>267.0</ele><time>2026-05-03T11:17:38.655Z</time></trkpt><trkpt lat="43.3485842" lon="11.4042236"><ele>267.6666666666667</ele><time>2026-05-03T11:17:39.654Z</time></trkpt><trkpt lat="43.3486891" lon="11.4040506"><ele>268.33333333333337</ele><time>2026-05-03T11:17:40.654Z</time></trkpt><trkpt lat="43.3488218" lon="11.4038848"><ele>269.0</ele><time>2026-05-03T11:17:41.655Z</time></trkpt><trkpt lat="43.3489399" lon="11.4037006"><ele>270.0</ele><time>2026-05-03T11:17:42.655Z</time></trkpt><trkpt lat="43.3490264" lon="11.4035024"><ele>271.0</ele><time>2026-05-03T11:17:43.654Z</time></trkpt><trkpt lat="43.3490818" lon="11.40329"><ele>272.0</ele><time>2026-05-03T11:17:44.654Z</time></trkpt><trkpt lat="43.3491189" lon="11.4030413"><ele>274.33333333333337</ele><time>2026-05-03T11:17:45.654Z</time></trkpt><trkpt lat="43.3491451" lon="11.4027724"><ele>276.6666666666667</ele><time>2026-05-03T11:17:46.654Z</time></trkpt><trkpt lat="43.3491715" lon="11.4024864"><ele>279.0</ele><time>2026-05-03T11:17:47.655Z</time></trkpt><trkpt lat="43.3491981" lon="11.4022253"><ele>281.6666666666667</ele><time>2026-05-03T11:17:48.655Z</time></trkpt><trkpt lat="43.3492329" lon="11.4019953"><ele>284.33333333333337</ele><time>2026-05-03T11:17:49.654Z</time></trkpt><trkpt lat="43.3492775" lon="11.4017982"><ele>287.0</ele><time>2026-05-03T11:17:50.655Z</time></trkpt><trkpt lat="43.3493287" lon="11.4016251"><ele>287.0</ele><time>2026-05-03T11:17:51.654Z</time></trkpt><trkpt lat="43.3493882" lon="11.4014938"><ele>287.0</ele><time>2026-05-03T11:17:52.655Z</time></trkpt><trkpt lat="43.3494812" lon="11.4014138"><ele>287.0</ele><time>2026-05-03T11:17:53.655Z</time></trkpt><trkpt lat="43.3495904" lon="11.4014004"><ele>287.0</ele><time>2026-05-03T11:17:54.655Z</time></trkpt><trkpt lat="43.34971" lon="11.4014617"><ele>285.75</ele><time>2026-05-03T11:17:55.655Z</time></trkpt><trkpt lat="43.3498378" lon="11.4015407"><ele>284.5</ele><time>2026-05-03T11:17:56.654Z</time></trkpt><trkpt lat="43.3499595" lon="11.4015945"><ele>283.25</ele><time>2026-05-03T11:17:57.655Z</time></trkpt><trkpt lat="43.3500634" lon="11.4015979"><ele>282.0</ele><time>2026-05-03T11:17:58.654Z</time></trkpt><trkpt lat="43.3501504" lon="11.4015606"><ele>282.0</ele><time>2026-05-03T11:17:59.655Z</time></trkpt><trkpt lat="43.3502275" lon="11.4014925"><ele>282.0</ele><time>2026-05-03T11:18:00.654Z</time></trkpt><trkpt lat="43.350243" lon="11.4013766"><ele>282.0</ele><time>2026-05-03T11:18:01.654Z</time></trkpt><trkpt lat="43.3502349" lon="11.4012512"><ele>282.0</ele><time>2026-05-03T11:18:02.655Z</time></trkpt><trkpt lat="43.3502109" lon="11.4011266"><ele>282.0</ele><time>2026-05-03T11:18:03.655Z</time></trkpt><trkpt lat="43.3501438" lon="11.4010218"><ele>284.5</ele><time>2026-05-03T11:18:04.654Z</time></trkpt><trkpt lat="43.3500539" lon="11.4009152"><ele>287.0</ele><time>2026-05-03T11:18:05.655Z</time></trkpt><trkpt lat="43.3499555" lon="11.4008061"><ele>289.5</ele><time>2026-05-03T11:18:06.654Z</time></trkpt><trkpt lat="43.3498547" lon="11.4007136"><ele>292.0</ele><time>2026-05-03T11:18:07.654Z</time></trkpt><trkpt lat="43.3497399" lon="11.4006483"><ele>292.5</ele><time>2026-05-03T11:18:08.654Z</time></trkpt><trkpt lat="43.3496159" lon="11.4006155"><ele>293.0</ele><time>2026-05-03T11:18:09.655Z</time></trkpt><trkpt lat="43.3494935" lon="11.4006243"><ele>293.5</ele><time>2026-05-03T11:18:10.655Z</time></trkpt><trkpt lat="43.3493733" lon="11.4006734"><ele>294.0</ele><time>2026-05-03T11:18:11.654Z</time></trkpt><trkpt lat="43.349251" lon="11.4007433"><ele>294.0</ele><time>2026-05-03T11:18:12.654Z</time></trkpt><trkpt lat="43.349134" lon="11.4008176"><ele>294.0</ele><time>2026-05-03T11:18:13.654Z</time></trkpt><trkpt lat="43.3490254" lon="11.4008913"><ele>294.0</ele><time>2026-05-03T11:18:14.654Z</time></trkpt><trkpt lat="43.3489215" lon="11.4009627"><ele>294.0</ele><time>2026-05-03T11:18:15.654Z</time></trkpt><trkpt lat="43.3488264" lon="11.4010226"><ele>295.2</ele><time>2026-05-03T11:18:16.655Z</time></trkpt><trkpt lat="43.3487382" lon="11.4010575"><ele>296.4</ele><time>2026-05-03T11:18:17.654Z</time></trkpt><trkpt lat="43.3486501" lon="11.4010658"><ele>297.6</ele><time>2026-05-03T11:18:18.655Z</time></trkpt><trkpt lat="43.3485666" lon="11.4010375"><ele>298.8</ele><time>2026-05-03T11:18:19.654Z</time></trkpt><trkpt lat="43.3484833" lon="11.400966"><ele>300.0</ele><time>2026-05-03T11:18:20.655Z</time></trkpt><trkpt lat="43.348396" lon="11.4008723"><ele>300.0</ele><time>2026-05-03T11:18:21.655Z</time></trkpt><trkpt lat="43.3483092" lon="11.4007715"><ele>300.0</ele><time>2026-05-03T11:18:22.655Z</time></trkpt><trkpt lat="43.3482203" lon="11.4006664"><ele>300.0</ele><time>2026-05-03T11:18:23.654Z</time></trkpt><trkpt lat="43.3481259" lon="11.4005601"><ele>300.0</ele><time>2026-05-03T11:18:24.655Z</time></trkpt><trkpt lat="43.3480204" lon="11.4004554"><ele>301.75</ele><time>2026-05-03T11:18:25.654Z</time></trkpt><trkpt lat="43.3479004" lon="11.4003646"><ele>303.5</ele><time>2026-05-03T11:18:26.654Z</time></trkpt><trkpt lat="43.3477815" lon="11.4002914"><ele>305.25</ele><time>2026-05-03T11:18:27.655Z</time></trkpt><trkpt lat="43.3476739" lon="11.4002299"><ele>307.0</ele><time>2026-05-03T11:18:28.655Z</time></trkpt><trkpt lat="43.347583" lon="11.4001556"><ele>307.0</ele><time>2026-05-03T11:18:29.654Z</time></trkpt><trkpt lat="43.3475071" lon="11.4000754"><ele>307.0</ele><time>2026-05-03T11:18:30.653Z</time></trkpt><trkpt lat="43.3474505" lon="11.3999732"><ele>307.0</ele><time>2026-05-03T11:18:31.653Z</time></trkpt><trkpt lat="43.3474223" lon="11.3998588"><ele>307.0</ele><time>2026-05-03T11:18:32.654Z</time></trkpt><trkpt lat="43.3474161" lon="11.3997282"><ele>307.0</ele><time>2026-05-03T11:18:33.654Z</time></trkpt><trkpt lat="43.3474358" lon="11.3996096"><ele>307.2</ele><time>2026-05-03T11:18:34.653Z</time></trkpt><trkpt lat="43.3474738" lon="11.3994986"><ele>307.4</ele><time>2026-05-03T11:18:35.653Z</time></trkpt><trkpt lat="43.3475325" lon="11.3993993"><ele>307.6</ele><time>2026-05-03T11:18:36.653Z</time></trkpt><trkpt lat="43.3476114" lon="11.3993155"><ele>307.8</ele><time>2026-05-03T11:18:37.654Z</time></trkpt><trkpt lat="43.3477101" lon="11.3992438"><ele>308.0</ele><time>2026-05-03T11:18:38.653Z</time></trkpt><trkpt lat="43.3478066" lon="11.3991863"><ele>308.0</ele><time>2026-05-03T11:18:39.653Z</time></trkpt><trkpt lat="43.3478929" lon="11.3991403"><ele>308.0</ele><time>2026-05-03T11:18:40.653Z</time></trkpt><trkpt lat="43.3479823" lon="11.3990892"><ele>308.0</ele><time>2026-05-03T11:18:41.653Z</time></trkpt><trkpt lat="43.3480771" lon="11.3990393"><ele>308.0</ele><time>2026-05-03T11:18:42.653Z</time></trkpt><trkpt lat="43.3481761" lon="11.3990105"><ele>308.0</ele><time>2026-05-03T11:18:43.653Z</time></trkpt><trkpt lat="43.3482875" lon="11.3989902"><ele>308.5</ele><time>2026-05-03T11:18:44.653Z</time></trkpt><trkpt lat="43.3484098" lon="11.3989684"><ele>309.0</ele><time>2026-05-03T11:18:45.654Z</time></trkpt><trkpt lat="43.3485435" lon="11.3989376"><ele>309.5</ele><time>2026-05-03T11:18:46.653Z</time></trkpt><trkpt lat="43.3486723" lon="11.3988947"><ele>310.0</ele><time>2026-05-03T11:18:47.654Z</time></trkpt><trkpt lat="43.348794" lon="11.3988454"><ele>309.25</ele><time>2026-05-03T11:18:48.653Z</time></trkpt><trkpt lat="43.3489148" lon="11.3987858"><ele>308.5</ele><time>2026-05-03T11:18:49.654Z</time></trkpt><trkpt lat="43.349036" lon="11.3987367"><ele>307.75</ele><time>2026-05-03T11:18:50.653Z</time></trkpt><trkpt lat="43.3491619" lon="11.3986893"><ele>307.0</ele><time>2026-05-03T11:18:51.653Z</time></trkpt><trkpt lat="43.3492947" lon="11.3986407"><ele>307.0</ele><time>2026-05-03T11:18:52.653Z</time></trkpt><trkpt lat="43.3494264" lon="11.3985946"><ele>307.0</ele><time>2026-05-03T11:18:53.654Z</time></trkpt><trkpt lat="43.3495559" lon="11.3985447"><ele>307.0</ele><time>2026-05-03T11:18:54.653Z</time></trkpt><trkpt lat="43.3496934" lon="11.3984895"><ele>307.0</ele><time>2026-05-03T11:18:55.653Z</time></trkpt><trkpt lat="43.3498266" lon="11.3984394"><ele>307.75</ele><time>2026-05-03T11:18:56.653Z</time></trkpt><trkpt lat="43.3499491" lon="11.3983924"><ele>308.5</ele><time>2026-05-03T11:18:57.654Z</time></trkpt><trkpt lat="43.3500715" lon="11.3983479"><ele>309.25</ele><time>2026-05-03T11:18:58.653Z</time></trkpt><trkpt lat="43.3501682" lon="11.3982744"><ele>310.0</ele><time>2026-05-03T11:18:59.653Z</time></trkpt><trkpt lat="43.3502398" lon="11.3981766"><ele>310.0</ele><time>2026-05-03T11:19:00.653Z</time></trkpt><trkpt lat="43.3502945" lon="11.3980351"><ele>310.0</ele><time>2026-05-03T11:19:01.653Z</time></trkpt><trkpt lat="43.3503244" lon="11.3978497"><ele>310.0</ele><time>2026-05-03T11:19:02.653Z</time></trkpt><trkpt lat="43.3503295" lon="11.3976167"><ele>310.0</ele><time>2026-05-03T11:19:03.653Z</time></trkpt><trkpt lat="43.3503299" lon="11.397324"><ele>308.5</ele><time>2026-05-03T11:19:04.654Z</time></trkpt><trkpt lat="43.3503542" lon="11.3969826"><ele>307.0</ele><time>2026-05-03T11:19:05.653Z</time></trkpt><trkpt lat="43.3503836" lon="11.3965961"><ele>306.0</ele><time>2026-05-03T11:19:06.653Z</time></trkpt><trkpt lat="43.3504054" lon="11.3961962"><ele>305.0</ele><time>2026-05-03T11:19:07.653Z</time></trkpt><trkpt lat="43.3504343" lon="11.3958157"><ele>304.5</ele><time>2026-05-03T11:19:08.653Z</time></trkpt><trkpt lat="43.3504619" lon="11.3954521"><ele>304.0</ele><time>2026-05-03T11:19:09.653Z</time></trkpt><trkpt lat="43.3504653" lon="11.3951089"><ele>304.0</ele><time>2026-05-03T11:19:10.653Z</time></trkpt><trkpt lat="43.350434" lon="11.3947697"><ele>304.0</ele><time>2026-05-03T11:19:11.653Z</time></trkpt><trkpt lat="43.3503824" lon="11.3944209"><ele>304.0</ele><time>2026-05-03T11:19:12.654Z</time></trkpt><trkpt lat="43.3503171" lon="11.3940708"><ele>304.0</ele><time>2026-05-03T11:19:13.653Z</time></trkpt><trkpt lat="43.3501607" lon="11.3933838"><ele>304.5</ele><time>2026-05-03T11:19:15.653Z</time></trkpt><trkpt lat="43.3500618" lon="11.3930742"><ele>305.0</ele><time>2026-05-03T11:19:16.654Z</time></trkpt><trkpt lat="43.3499414" lon="11.3927814"><ele>304.5</ele><time>2026-05-03T11:19:17.654Z</time></trkpt><trkpt lat="43.3497952" lon="11.392515"><ele>304.0</ele><time>2026-05-03T11:19:18.653Z</time></trkpt><trkpt lat="43.3496263" lon="11.3922573"><ele>307.0</ele><time>2026-05-03T11:19:19.654Z</time></trkpt><trkpt lat="43.349447" lon="11.3920287"><ele>310.0</ele><time>2026-05-03T11:19:20.653Z</time></trkpt><trkpt lat="43.3492769" lon="11.3918152"><ele>310.0</ele><time>2026-05-03T11:19:21.654Z</time></trkpt><trkpt lat="43.3491204" lon="11.3916367"><ele>310.0</ele><time>2026-05-03T11:19:22.653Z</time></trkpt><trkpt lat="43.3489835" lon="11.3914909"><ele>310.0</ele><time>2026-05-03T11:19:23.653Z</time></trkpt><trkpt lat="43.3488616" lon="11.3913615"><ele>309.5</ele><time>2026-05-03T11:19:24.654Z</time></trkpt><trkpt lat="43.3487559" lon="11.3912481"><ele>309.0</ele><time>2026-05-03T11:19:25.653Z</time></trkpt><trkpt lat="43.3486777" lon="11.3911205"><ele>308.5</ele><time>2026-05-03T11:19:26.654Z</time></trkpt><trkpt lat="43.3486416" lon="11.3909655"><ele>308.0</ele><time>2026-05-03T11:19:27.654Z</time></trkpt><trkpt lat="43.3486296" lon="11.390782"><ele>308.0</ele><time>2026-05-03T11:19:28.653Z</time></trkpt><trkpt lat="43.3486389" lon="11.3905694"><ele>308.0</ele><time>2026-05-03T11:19:29.653Z</time></trkpt><trkpt lat="43.348672" lon="11.3903432"><ele>308.0</ele><time>2026-05-03T11:19:30.653Z</time></trkpt><trkpt lat="43.348727" lon="11.3901081"><ele>306.33333333333337</ele><time>2026-05-03T11:19:31.654Z</time></trkpt><trkpt lat="43.3488152" lon="11.3898617"><ele>304.6666666666667</ele><time>2026-05-03T11:19:32.653Z</time></trkpt><trkpt lat="43.3489105" lon="11.3895912"><ele>303.0</ele><time>2026-05-03T11:19:33.654Z</time></trkpt><trkpt lat="43.3490066" lon="11.3893153"><ele>303.0</ele><time>2026-05-03T11:19:34.653Z</time></trkpt><trkpt lat="43.3490894" lon="11.3890424"><ele>303.0</ele><time>2026-05-03T11:19:35.653Z</time></trkpt><trkpt lat="43.3491755" lon="11.3887993"><ele>303.0</ele><time>2026-05-03T11:19:36.654Z</time></trkpt><trkpt lat="43.3492596" lon="11.3885673"><ele>299.6666666666667</ele><time>2026-05-03T11:19:37.653Z</time></trkpt><trkpt lat="43.3493635" lon="11.3883716"><ele>296.33333333333337</ele><time>2026-05-03T11:19:38.653Z</time></trkpt><trkpt lat="43.3494987" lon="11.3882118"><ele>293.0</ele><time>2026-05-03T11:19:39.653Z</time></trkpt><trkpt lat="43.3496549" lon="11.3880504"><ele>293.6666666666667</ele><time>2026-05-03T11:19:40.654Z</time></trkpt><trkpt lat="43.349809" lon="11.3878899"><ele>294.3333333333333</ele><time>2026-05-03T11:19:41.653Z</time></trkpt><trkpt lat="43.3499543" lon="11.3877071"><ele>295.0</ele><time>2026-05-03T11:19:42.654Z</time></trkpt><trkpt lat="43.3500795" lon="11.3875155"><ele>295.0</ele><time>2026-05-03T11:19:43.653Z</time></trkpt><trkpt lat="43.3501821" lon="11.3873315"><ele>295.0</ele><time>2026-05-03T11:19:44.654Z</time></trkpt><trkpt lat="43.3502781" lon="11.3871652"><ele>295.0</ele><time>2026-05-03T11:19:45.653Z</time></trkpt><trkpt lat="43.3503914" lon="11.3870305"><ele>295.0</ele><time>2026-05-03T11:19:46.654Z</time></trkpt><trkpt lat="43.350524" lon="11.3869463"><ele>295.0</ele><time>2026-05-03T11:19:47.654Z</time></trkpt><trkpt lat="43.3506657" lon="11.3869142"><ele>295.0</ele><time>2026-05-03T11:19:48.653Z</time></trkpt><trkpt lat="43.3507938" lon="11.3869142"><ele>295.0</ele><time>2026-05-03T11:19:49.653Z</time></trkpt><trkpt lat="43.350889" lon="11.3869144"><ele>295.0</ele><time>2026-05-03T11:19:50.654Z</time></trkpt><trkpt lat="43.3509773" lon="11.386888"><ele>295.0</ele><time>2026-05-03T11:19:51.653Z</time></trkpt><trkpt lat="43.3510569" lon="11.38683"><ele>295.0</ele><time>2026-05-03T11:19:52.653Z</time></trkpt><trkpt lat="43.3511128" lon="11.3867374"><ele>295.0</ele><time>2026-05-03T11:19:53.653Z</time></trkpt><trkpt lat="43.351079" lon="11.386601"><ele>295.0</ele><time>2026-05-03T11:19:54.654Z</time></trkpt><trkpt lat="43.3509971" lon="11.3864718"><ele>295.0</ele><time>2026-05-03T11:19:55.653Z</time></trkpt><trkpt lat="43.3508755" lon="11.3863641"><ele>295.0</ele><time>2026-05-03T11:19:56.654Z</time></trkpt><trkpt lat="43.3507167" lon="11.3862804"><ele>295.0</ele><time>2026-05-03T11:19:57.653Z</time></trkpt><trkpt lat="43.3505403" lon="11.3862119"><ele>291.0</ele><time>2026-05-03T11:19:58.653Z</time></trkpt><trkpt lat="43.3503222" lon="11.3861417"><ele>287.0</ele><time>2026-05-03T11:19:59.654Z</time></trkpt><trkpt lat="43.3500996" lon="11.3860499"><ele>287.0</ele><time>2026-05-03T11:20:00.653Z</time></trkpt><trkpt lat="43.3498934" lon="11.3859378"><ele>287.0</ele><time>2026-05-03T11:20:01.654Z</time></trkpt><trkpt lat="43.3496931" lon="11.3858038"><ele>287.0</ele><time>2026-05-03T11:20:02.654Z</time></trkpt><trkpt lat="43.3494959" lon="11.3856793"><ele>284.6666666666667</ele><time>2026-05-03T11:20:03.654Z</time></trkpt><trkpt lat="43.3493055" lon="11.3855735"><ele>282.3333333333333</ele><time>2026-05-03T11:20:04.653Z</time></trkpt><trkpt lat="43.3491185" lon="11.3854763"><ele>280.0</ele><time>2026-05-03T11:20:05.653Z</time></trkpt><trkpt lat="43.3489371" lon="11.3853734"><ele>277.66666666666663</ele><time>2026-05-03T11:20:06.654Z</time></trkpt><trkpt lat="43.3487722" lon="11.3852534"><ele>275.3333333333333</ele><time>2026-05-03T11:20:07.654Z</time></trkpt><trkpt lat="43.3486208" lon="11.385136"><ele>273.0</ele><time>2026-05-03T11:20:08.653Z</time></trkpt><trkpt lat="43.3484927" lon="11.3850129"><ele>273.0</ele><time>2026-05-03T11:20:09.654Z</time></trkpt><trkpt lat="43.3483785" lon="11.3848765"><ele>273.0</ele><time>2026-05-03T11:20:10.653Z</time></trkpt><trkpt lat="43.3482638" lon="11.3847191"><ele>273.0</ele><time>2026-05-03T11:20:11.653Z</time></trkpt><trkpt lat="43.3481575" lon="11.3845573"><ele>272.6666666666667</ele><time>2026-05-03T11:20:12.654Z</time></trkpt><trkpt lat="43.3480695" lon="11.384382"><ele>272.33333333333337</ele><time>2026-05-03T11:20:13.653Z</time></trkpt><trkpt lat="43.3480054" lon="11.3841976"><ele>272.0</ele><time>2026-05-03T11:20:14.653Z</time></trkpt><trkpt lat="43.3479489" lon="11.3840015"><ele>269.75</ele><time>2026-05-03T11:20:15.653Z</time></trkpt><trkpt lat="43.3479005" lon="11.3838174"><ele>267.5</ele><time>2026-05-03T11:20:16.654Z</time></trkpt><trkpt lat="43.3478614" lon="11.3836419"><ele>265.25</ele><time>2026-05-03T11:20:17.654Z</time></trkpt><trkpt lat="43.3478206" lon="11.3834563"><ele>263.0</ele><time>2026-05-03T11:20:18.654Z</time></trkpt><trkpt lat="43.3477675" lon="11.3832683"><ele>263.0</ele><time>2026-05-03T11:20:19.653Z</time></trkpt><trkpt lat="43.3477202" lon="11.3830842"><ele>263.0</ele><time>2026-05-03T11:20:20.653Z</time></trkpt><trkpt lat="43.347681" lon="11.3829036"><ele>263.0</ele><time>2026-05-03T11:20:21.654Z</time></trkpt><trkpt lat="43.3476396" lon="11.382717"><ele>263.0</ele><time>2026-05-03T11:20:22.654Z</time></trkpt><trkpt lat="43.3475986" lon="11.3825255"><ele>262.5</ele><time>2026-05-03T11:20:23.653Z</time></trkpt><trkpt lat="43.3475635" lon="11.3823362"><ele>262.0</ele><time>2026-05-03T11:20:24.653Z</time></trkpt><trkpt lat="43.3475273" lon="11.3821626"><ele>261.5</ele><time>2026-05-03T11:20:25.653Z</time></trkpt><trkpt lat="43.3474949" lon="11.3819899"><ele>261.0</ele><time>2026-05-03T11:20:26.654Z</time></trkpt><trkpt lat="43.3474773" lon="11.3818293"><ele>261.0</ele><time>2026-05-03T11:20:27.654Z</time></trkpt><trkpt lat="43.3474797" lon="11.3816929"><ele>261.0</ele><time>2026-05-03T11:20:28.653Z</time></trkpt><trkpt lat="43.3475146" lon="11.3815587"><ele>261.0</ele><time>2026-05-03T11:20:29.654Z</time></trkpt><trkpt lat="43.3475842" lon="11.3814294"><ele>261.0</ele><time>2026-05-03T11:20:30.653Z</time></trkpt><trkpt lat="43.3476723" lon="11.3812946"><ele>261.25</ele><time>2026-05-03T11:20:31.654Z</time></trkpt><trkpt lat="43.3477614" lon="11.3811721"><ele>261.5</ele><time>2026-05-03T11:20:32.654Z</time></trkpt><trkpt lat="43.3478577" lon="11.3810478"><ele>261.75</ele><time>2026-05-03T11:20:33.653Z</time></trkpt><trkpt lat="43.347951" lon="11.3809386"><ele>262.0</ele><time>2026-05-03T11:20:34.654Z</time></trkpt><trkpt lat="43.3480509" lon="11.380869"><ele>261.5</ele><time>2026-05-03T11:20:35.654Z</time></trkpt><trkpt lat="43.3481611" lon="11.3808382"><ele>261.0</ele><time>2026-05-03T11:20:36.653Z</time></trkpt><trkpt lat="43.3482832" lon="11.3808521"><ele>260.5</ele><time>2026-05-03T11:20:37.654Z</time></trkpt><trkpt lat="43.3484007" lon="11.3809148"><ele>260.0</ele><time>2026-05-03T11:20:38.653Z</time></trkpt><trkpt lat="43.348522" lon="11.3810368"><ele>260.0</ele><time>2026-05-03T11:20:39.653Z</time></trkpt><trkpt lat="43.3486288" lon="11.3811763"><ele>260.0</ele><time>2026-05-03T11:20:40.654Z</time></trkpt><trkpt lat="43.3487333" lon="11.3813135"><ele>260.0</ele><time>2026-05-03T11:20:41.654Z</time></trkpt><trkpt lat="43.3488441" lon="11.3814383"><ele>260.0</ele><time>2026-05-03T11:20:42.654Z</time></trkpt><trkpt lat="43.3489524" lon="11.3815226"><ele>260.2</ele><time>2026-05-03T11:20:43.653Z</time></trkpt><trkpt lat="43.3490423" lon="11.381603"><ele>260.4</ele><time>2026-05-03T11:20:44.653Z</time></trkpt><trkpt lat="43.3491187" lon="11.3816817"><ele>260.6</ele><time>2026-05-03T11:20:45.653Z</time></trkpt><trkpt lat="43.349193" lon="11.3817469"><ele>260.8</ele><time>2026-05-03T11:20:46.653Z</time></trkpt><trkpt lat="43.3492607" lon="11.3817983"><ele>261.0</ele><time>2026-05-03T11:20:47.653Z</time></trkpt><trkpt lat="43.3493783" lon="11.381779"><ele>261.0</ele><time>2026-05-03T11:20:49.654Z</time></trkpt><trkpt lat="43.3494579" lon="11.3816292"><ele>261.0</ele><time>2026-05-03T11:20:51.653Z</time></trkpt><trkpt lat="43.3494451" lon="11.3814436"><ele>261.0</ele><time>2026-05-03T11:20:52.653Z</time></trkpt><trkpt lat="43.3493971" lon="11.3812675"><ele>261.0</ele><time>2026-05-03T11:20:53.654Z</time></trkpt><trkpt lat="43.3493257" lon="11.3810816"><ele>261.0</ele><time>2026-05-03T11:20:54.654Z</time></trkpt><trkpt lat="43.3492399" lon="11.3808733"><ele>261.0</ele><time>2026-05-03T11:20:55.653Z</time></trkpt><trkpt lat="43.3491325" lon="11.3806334"><ele>261.0</ele><time>2026-05-03T11:20:56.653Z</time></trkpt><trkpt lat="43.3490226" lon="11.3803671"><ele>258.0</ele><time>2026-05-03T11:20:57.654Z</time></trkpt><trkpt lat="43.3488647" lon="11.3800342"><ele>255.0</ele><time>2026-05-03T11:20:58.653Z</time></trkpt><trkpt lat="43.3486947" lon="11.3796746"><ele>254.0</ele><time>2026-05-03T11:20:59.654Z</time></trkpt><trkpt lat="43.3485145" lon="11.3792856"><ele>253.0</ele><time>2026-05-03T11:21:00.653Z</time></trkpt><trkpt lat="43.3483509" lon="11.3789114"><ele>255.5</ele><time>2026-05-03T11:21:01.654Z</time></trkpt><trkpt lat="43.3482129" lon="11.3785674"><ele>258.0</ele><time>2026-05-03T11:21:02.653Z</time></trkpt><trkpt lat="43.3480912" lon="11.3782583"><ele>255.0</ele><time>2026-05-03T11:21:03.653Z</time></trkpt><trkpt lat="43.3479818" lon="11.3779733"><ele>252.0</ele><time>2026-05-03T11:21:04.653Z</time></trkpt><trkpt lat="43.3478813" lon="11.3777193"><ele>249.0</ele><time>2026-05-03T11:21:05.653Z</time></trkpt><trkpt lat="43.3477863" lon="11.3774803"><ele>249.0</ele><time>2026-05-03T11:21:06.654Z</time></trkpt><trkpt lat="43.3477024" lon="11.3772621"><ele>249.0</ele><time>2026-05-03T11:21:07.653Z</time></trkpt><trkpt lat="43.3476422" lon="11.3770424"><ele>249.0</ele><time>2026-05-03T11:21:08.653Z</time></trkpt><trkpt lat="43.347577" lon="11.3766154"><ele>250.66666666666669</ele><time>2026-05-03T11:21:10.654Z</time></trkpt><trkpt lat="43.3475671" lon="11.37639"><ele>252.33333333333334</ele><time>2026-05-03T11:21:11.653Z</time></trkpt><trkpt lat="43.3475574" lon="11.3761607"><ele>254.0</ele><time>2026-05-03T11:21:12.653Z</time></trkpt><trkpt lat="43.3475346" lon="11.3759297"><ele>254.0</ele><time>2026-05-03T11:21:13.653Z</time></trkpt><trkpt lat="43.3475334" lon="11.3757003"><ele>254.0</ele><time>2026-05-03T11:21:14.654Z</time></trkpt><trkpt lat="43.3475338" lon="11.3754721"><ele>254.0</ele><time>2026-05-03T11:21:15.653Z</time></trkpt><trkpt lat="43.3475399" lon="11.3752447"><ele>252.33333333333334</ele><time>2026-05-03T11:21:16.654Z</time></trkpt><trkpt lat="43.347576" lon="11.375011"><ele>250.66666666666669</ele><time>2026-05-03T11:21:17.653Z</time></trkpt><trkpt lat="43.3476261" lon="11.3747476"><ele>249.0</ele><time>2026-05-03T11:21:18.654Z</time></trkpt><trkpt lat="43.3477067" lon="11.3744696"><ele>248.0</ele><time>2026-05-03T11:21:19.654Z</time></trkpt><trkpt lat="43.3477989" lon="11.374194"><ele>247.0</ele><time>2026-05-03T11:21:20.654Z</time></trkpt><trkpt lat="43.3478927" lon="11.3738903"><ele>245.5</ele><time>2026-05-03T11:21:21.654Z</time></trkpt><trkpt lat="43.3479635" lon="11.3735759"><ele>244.0</ele><time>2026-05-03T11:21:22.653Z</time></trkpt><trkpt lat="43.3480214" lon="11.3732441"><ele>242.0</ele><time>2026-05-03T11:21:23.654Z</time></trkpt><trkpt lat="43.3480669" lon="11.3729111"><ele>240.0</ele><time>2026-05-03T11:21:24.654Z</time></trkpt><trkpt lat="43.3481127" lon="11.3725721"><ele>240.0</ele><time>2026-05-03T11:21:25.654Z</time></trkpt><trkpt lat="43.3481644" lon="11.3722399"><ele>240.0</ele><time>2026-05-03T11:21:26.654Z</time></trkpt><trkpt lat="43.3482145" lon="11.3719308"><ele>238.66666666666669</ele><time>2026-05-03T11:21:27.654Z</time></trkpt><trkpt lat="43.3482589" lon="11.3716453"><ele>237.33333333333334</ele><time>2026-05-03T11:21:28.653Z</time></trkpt><trkpt lat="43.3483038" lon="11.3713711"><ele>236.0</ele><time>2026-05-03T11:21:29.653Z</time></trkpt><trkpt lat="43.3483504" lon="11.3710976"><ele>234.66666666666669</ele><time>2026-05-03T11:21:30.653Z</time></trkpt><trkpt lat="43.348388" lon="11.3708407"><ele>233.33333333333331</ele><time>2026-05-03T11:21:31.654Z</time></trkpt><trkpt lat="43.3484141" lon="11.3705827"><ele>232.0</ele><time>2026-05-03T11:21:32.653Z</time></trkpt><trkpt lat="43.3482129" lon="11.3785674"><ele>240.5</ele><time>2026-05-03T11:21:02.653Z</time></trkpt><trkpt lat="43.3480912" lon="11.3782583"><ele>249.0</ele><time>2026-05-03T11:21:03.653Z</time></trkpt><trkpt lat="43.3479818" lon="11.3779733"><ele>249.0</ele><time>2026-05-03T11:21:04.653Z</time></trkpt><trkpt lat="43.3478813" lon="11.3777193"><ele>249.0</ele><time>2026-05-03T11:21:05.653Z</time></trkpt><trkpt lat="43.3477863" lon="11.3774803"><ele>249.0</ele><time>2026-05-03T11:21:06.654Z</time></trkpt><trkpt lat="43.3477024" lon="11.3772621"><ele>251.5</ele><time>2026-05-03T11:21:07.653Z</time></trkpt><trkpt lat="43.3476422" lon="11.3770424"><ele>254.0</ele><time>2026-05-03T11:21:08.653Z</time></trkpt><trkpt lat="43.347577" lon="11.3766154"><ele>254.0</ele><time>2026-05-03T11:21:10.654Z</time></trkpt><trkpt lat="43.3475671" lon="11.37639"><ele>254.0</ele><time>2026-05-03T11:21:11.653Z</time></trkpt><trkpt lat="43.3475574" lon="11.3761607"><ele>254.0</ele><time>2026-05-03T11:21:12.653Z</time></trkpt><trkpt lat="43.3475346" lon="11.3759297"><ele>254.0</ele><time>2026-05-03T11:21:13.653Z</time></trkpt><trkpt lat="43.3475334" lon="11.3757003"><ele>254.0</ele><time>2026-05-03T11:21:14.654Z</time></trkpt><trkpt lat="43.3475338" lon="11.3754721"><ele>254.0</ele><time>2026-05-03T11:21:15.653Z</time></trkpt><trkpt lat="43.3475399" lon="11.3752447"><ele>252.33333333333334</ele><time>2026-05-03T11:21:16.654Z</time></trkpt><trkpt lat="43.347576" lon="11.375011"><ele>250.66666666666669</ele><time>2026-05-03T11:21:17.653Z</time></trkpt><trkpt lat="43.3476261" lon="11.3747476"><ele>249.0</ele><time>2026-05-03T11:21:18.654Z</time></trkpt><trkpt lat="43.3477067" lon="11.3744696"><ele>248.0</ele><time>2026-05-03T11:21:19.654Z</time></trkpt><trkpt lat="43.3477989" lon="11.374194"><ele>247.0</ele><time>2026-05-03T11:21:20.654Z</time></trkpt><trkpt lat="43.3478927" lon="11.3738903"><ele>245.5</ele><time>2026-05-03T11:21:21.654Z</time></trkpt><trkpt lat="43.3479635" lon="11.3735759"><ele>244.0</ele><time>2026-05-03T11:21:22.653Z</time></trkpt><trkpt lat="43.3480214" lon="11.3732441"><ele>242.0</ele><time>2026-05-03T11:21:23.654Z</time></trkpt><trkpt lat="43.3480669" lon="11.3729111"><ele>240.0</ele><time>2026-05-03T11:21:24.654Z</time></trkpt><trkpt lat="43.3481127" lon="11.3725721"><ele>240.0</ele><time>2026-05-03T11:21:25.654Z</time></trkpt><trkpt lat="43.3481644" lon="11.3722399"><ele>240.0</ele><time>2026-05-03T11:21:26.654Z</time></trkpt><trkpt lat="43.3482145" lon="11.3719308"><ele>238.66666666666669</ele><time>2026-05-03T11:21:27.654Z</time></trkpt><trkpt lat="43.3482589" lon="11.3716453"><ele>237.33333333333334</ele><time>2026-05-03T11:21:28.653Z</time></trkpt><trkpt lat="43.3483038" lon="11.3713711"><ele>236.0</ele><time>2026-05-03T11:21:29.653Z</time></trkpt><trkpt lat="43.3483504" lon="11.3710976"><ele>234.66666666666669</ele><time>2026-05-03T11:21:30.653Z</time></trkpt><trkpt lat="43.348388" lon="11.3708407"><ele>233.33333333333331</ele><time>2026-05-03T11:21:31.654Z</time></trkpt><trkpt lat="43.3484141" lon="11.3705827"><ele>232.0</ele><time>2026-05-03T11:21:32.653Z</time></trkpt><trkpt lat="43.3484225" lon="11.370313"><ele>230.66666666666666</ele><time>2026-05-03T11:21:33.653Z</time></trkpt><trkpt lat="43.3483966" lon="11.3700391"><ele>229.33333333333331</ele><time>2026-05-03T11:21:34.654Z</time></trkpt><trkpt lat="43.3483451" lon="11.3697599"><ele>228.0</ele><time>2026-05-03T11:21:35.654Z</time></trkpt><trkpt lat="43.3482781" lon="11.3694863"><ele>228.0</ele><time>2026-05-03T11:21:36.654Z</time></trkpt><trkpt lat="43.3482047" lon="11.3692265"><ele>228.0</ele><time>2026-05-03T11:21:37.653Z</time></trkpt><trkpt lat="43.3481329" lon="11.3689825"><ele>228.0</ele><time>2026-05-03T11:21:38.653Z</time></trkpt><trkpt lat="43.3480625" lon="11.3687564"><ele>227.0</ele><time>2026-05-03T11:21:39.653Z</time></trkpt><trkpt lat="43.3479883" lon="11.3685434"><ele>226.0</ele><time>2026-05-03T11:21:40.654Z</time></trkpt><trkpt lat="43.347934" lon="11.3683393"><ele>225.0</ele><time>2026-05-03T11:21:41.653Z</time></trkpt><trkpt lat="43.3478933" lon="11.3681564"><ele>225.16666666666666</ele><time>2026-05-03T11:21:42.653Z</time></trkpt><trkpt lat="43.3478666" lon="11.3679913"><ele>225.33333333333331</ele><time>2026-05-03T11:21:43.653Z</time></trkpt><trkpt lat="43.3478532" lon="11.3678596"><ele>225.5</ele><time>2026-05-03T11:21:44.653Z</time></trkpt><trkpt lat="43.3478468" lon="11.3677509"><ele>225.66666666666666</ele><time>2026-05-03T11:21:45.654Z</time></trkpt><trkpt lat="43.3478526" lon="11.3676553"><ele>225.83333333333331</ele><time>2026-05-03T11:21:46.654Z</time></trkpt><trkpt lat="43.3478638" lon="11.3675663"><ele>226.0</ele><time>2026-05-03T11:21:47.653Z</time></trkpt><trkpt lat="43.3478881" lon="11.3674798"><ele>226.0</ele><time>2026-05-03T11:21:48.653Z</time></trkpt><trkpt lat="43.3479439" lon="11.3673986"><ele>226.0</ele><time>2026-05-03T11:21:49.653Z</time></trkpt><trkpt lat="43.3480112" lon="11.3673502"><ele>226.0</ele><time>2026-05-03T11:21:50.654Z</time></trkpt><trkpt lat="43.3481657" lon="11.367351"><ele>226.0</ele><time>2026-05-03T11:21:51.653Z</time></trkpt><trkpt lat="43.3483321" lon="11.3673724"><ele>227.0</ele><time>2026-05-03T11:21:52.653Z</time></trkpt><trkpt lat="43.3485095" lon="11.3673914"><ele>228.0</ele><time>2026-05-03T11:21:53.654Z</time></trkpt><trkpt lat="43.3486991" lon="11.3674082"><ele>229.0</ele><time>2026-05-03T11:21:54.653Z</time></trkpt><trkpt lat="43.348903" lon="11.3674287"><ele>231.0</ele><time>2026-05-03T11:21:55.654Z</time></trkpt><trkpt lat="43.3491109" lon="11.3674321"><ele>233.0</ele><time>2026-05-03T11:21:56.654Z</time></trkpt><trkpt lat="43.349316" lon="11.3674267"><ele>235.0</ele><time>2026-05-03T11:21:57.654Z</time></trkpt><trkpt lat="43.3495025" lon="11.3674317"><ele>235.0</ele><time>2026-05-03T11:21:58.654Z</time></trkpt><trkpt lat="43.3496761" lon="11.3674363"><ele>235.0</ele><time>2026-05-03T11:21:59.654Z</time></trkpt><trkpt lat="43.3498451" lon="11.3674482"><ele>235.0</ele><time>2026-05-03T11:22:00.654Z</time></trkpt><trkpt lat="43.3500019" lon="11.3674609"><ele>237.66666666666666</ele><time>2026-05-03T11:22:01.653Z</time></trkpt><trkpt lat="43.3501543" lon="11.3674749"><ele>240.33333333333331</ele><time>2026-05-03T11:22:02.653Z</time></trkpt><trkpt lat="43.3503138" lon="11.3674869"><ele>243.0</ele><time>2026-05-03T11:22:03.654Z</time></trkpt><trkpt lat="43.3504803" lon="11.3674938"><ele>247.0</ele><time>2026-05-03T11:22:04.653Z</time></trkpt><trkpt lat="43.3506508" lon="11.3675186"><ele>251.0</ele><time>2026-05-03T11:22:05.653Z</time></trkpt><trkpt lat="43.3508382" lon="11.3675413"><ele>255.0</ele><time>2026-05-03T11:22:06.654Z</time></trkpt><trkpt lat="43.3510311" lon="11.3675524"><ele>255.0</ele><time>2026-05-03T11:22:07.653Z</time></trkpt><trkpt lat="43.3512169" lon="11.367558"><ele>255.0</ele><time>2026-05-03T11:22:08.653Z</time></trkpt><trkpt lat="43.3513861" lon="11.3675644"><ele>255.0</ele><time>2026-05-03T11:22:09.653Z</time></trkpt><trkpt lat="43.3515329" lon="11.3675681"><ele>258.25</ele><time>2026-05-03T11:22:10.653Z</time></trkpt><trkpt lat="43.3516582" lon="11.367605"><ele>261.5</ele><time>2026-05-03T11:22:11.653Z</time></trkpt><trkpt lat="43.3517884" lon="11.3676738"><ele>264.75</ele><time>2026-05-03T11:22:12.653Z</time></trkpt><trkpt lat="43.3519319" lon="11.3677679"><ele>268.0</ele><time>2026-05-03T11:22:13.654Z</time></trkpt><trkpt lat="43.352084" lon="11.3678695"><ele>267.3333333333333</ele><time>2026-05-03T11:22:14.653Z</time></trkpt><trkpt lat="43.3522488" lon="11.3679883"><ele>266.6666666666667</ele><time>2026-05-03T11:22:15.654Z</time></trkpt><trkpt lat="43.3524161" lon="11.3680977"><ele>266.0</ele><time>2026-05-03T11:22:16.654Z</time></trkpt><trkpt lat="43.3525783" lon="11.3682212"><ele>267.6666666666667</ele><time>2026-05-03T11:22:17.653Z</time></trkpt><trkpt lat="43.35274" lon="11.3683613"><ele>269.3333333333333</ele><time>2026-05-03T11:22:18.653Z</time></trkpt><trkpt lat="43.3529039" lon="11.3685179"><ele>271.0</ele><time>2026-05-03T11:22:19.654Z</time></trkpt><trkpt lat="43.3530767" lon="11.3687001"><ele>273.66666666666663</ele><time>2026-05-03T11:22:20.654Z</time></trkpt><trkpt lat="43.353233" lon="11.3688991"><ele>276.3333333333333</ele><time>2026-05-03T11:22:21.654Z</time></trkpt><trkpt lat="43.3533819" lon="11.3690912"><ele>279.0</ele><time>2026-05-03T11:22:22.653Z</time></trkpt><trkpt lat="43.3535141" lon="11.3692655"><ele>279.0</ele><time>2026-05-03T11:22:23.653Z</time></trkpt><trkpt lat="43.3536358" lon="11.3694203"><ele>279.0</ele><time>2026-05-03T11:22:24.653Z</time></trkpt><trkpt lat="43.3537475" lon="11.3695658"><ele>279.0</ele><time>2026-05-03T11:22:25.653Z</time></trkpt><trkpt lat="43.3538687" lon="11.3696749"><ele>280.3333333333333</ele><time>2026-05-03T11:22:26.653Z</time></trkpt><trkpt lat="43.354013" lon="11.3697452"><ele>281.66666666666663</ele><time>2026-05-03T11:22:27.654Z</time></trkpt><trkpt lat="43.3541775" lon="11.3697643"><ele>283.0</ele><time>2026-05-03T11:22:28.654Z</time></trkpt><trkpt lat="43.3543689" lon="11.3697461"><ele>283.0</ele><time>2026-05-03T11:22:29.653Z</time></trkpt><trkpt lat="43.3545723" lon="11.3697235"><ele>283.0</ele><time>2026-05-03T11:22:30.653Z</time></trkpt><trkpt lat="43.3548045" lon="11.3696969"><ele>283.0</ele><time>2026-05-03T11:22:31.654Z</time></trkpt><trkpt lat="43.3550488" lon="11.3696634"><ele>283.5</ele><time>2026-05-03T11:22:32.653Z</time></trkpt><trkpt lat="43.3552987" lon="11.3696273"><ele>284.0</ele><time>2026-05-03T11:22:33.653Z</time></trkpt><trkpt lat="43.3555556" lon="11.3695733"><ele>284.0</ele><time>2026-05-03T11:22:34.653Z</time></trkpt><trkpt lat="43.3558177" lon="11.3695333"><ele>284.0</ele><time>2026-05-03T11:22:35.653Z</time></trkpt><trkpt lat="43.3560847" lon="11.3694945"><ele>284.0</ele><time>2026-05-03T11:22:36.653Z</time></trkpt><trkpt lat="43.3563413" lon="11.3694615"><ele>284.0</ele><time>2026-05-03T11:22:37.654Z</time></trkpt><trkpt lat="43.3565796" lon="11.3694273"><ele>286.33333333333337</ele><time>2026-05-03T11:22:38.654Z</time></trkpt><trkpt lat="43.3567922" lon="11.369396"><ele>288.6666666666667</ele><time>2026-05-03T11:22:39.654Z</time></trkpt><trkpt lat="43.3569832" lon="11.3693705"><ele>291.0</ele><time>2026-05-03T11:22:40.653Z</time></trkpt><trkpt lat="43.3571631" lon="11.3693492"><ele>292.3333333333333</ele><time>2026-05-03T11:22:41.653Z</time></trkpt><trkpt lat="43.3573379" lon="11.3693207"><ele>293.66666666666663</ele><time>2026-05-03T11:22:42.653Z</time></trkpt><trkpt lat="43.3575234" lon="11.3692571"><ele>295.0</ele><time>2026-05-03T11:22:43.653Z</time></trkpt><trkpt lat="43.3577192" lon="11.3691717"><ele>295.0</ele><time>2026-05-03T11:22:44.654Z</time></trkpt><trkpt lat="43.3579333" lon="11.3690633"><ele>295.0</ele><time>2026-05-03T11:22:45.653Z</time></trkpt><trkpt lat="43.35816" lon="11.3689483"><ele>296.0</ele><time>2026-05-03T11:22:46.654Z</time></trkpt><trkpt lat="43.3584017" lon="11.36882"><ele>297.0</ele><time>2026-05-03T11:22:47.654Z</time></trkpt><trkpt lat="43.3586433" lon="11.368685"><ele>300.5</ele><time>2026-05-03T11:22:48.653Z</time></trkpt><trkpt lat="43.3588833" lon="11.3685533"><ele>304.0</ele><time>2026-05-03T11:22:49.654Z</time></trkpt><trkpt lat="43.3591133" lon="11.3684217"><ele>304.0</ele><time>2026-05-03T11:22:50.653Z</time></trkpt><trkpt lat="43.3593383" lon="11.3682983"><ele>304.0</ele><time>2026-05-03T11:22:51.653Z</time></trkpt><trkpt lat="43.35955" lon="11.36817"><ele>306.66666666666663</ele><time>2026-05-03T11:22:52.654Z</time></trkpt><trkpt lat="43.3597467" lon="11.3680567"><ele>309.3333333333333</ele><time>2026-05-03T11:22:53.654Z</time></trkpt><trkpt lat="43.359935" lon="11.36797"><ele>312.0</ele><time>2026-05-03T11:22:54.654Z</time></trkpt><trkpt lat="43.3601133" lon="11.3678717"><ele>312.0</ele><time>2026-05-03T11:22:55.653Z</time></trkpt><trkpt lat="43.3602733" lon="11.367775"><ele>312.0</ele><time>2026-05-03T11:22:56.654Z</time></trkpt><trkpt lat="43.36043" lon="11.3676917"><ele>312.0</ele><time>2026-05-03T11:22:57.653Z</time></trkpt><trkpt lat="43.3605933" lon="11.36762"><ele>313.3333333333333</ele><time>2026-05-03T11:22:58.653Z</time></trkpt><trkpt lat="43.3607617" lon="11.3675483"><ele>314.66666666666663</ele><time>2026-05-03T11:22:59.653Z</time></trkpt><trkpt lat="43.3609517" lon="11.36748"><ele>316.0</ele><time>2026-05-03T11:23:00.653Z</time></trkpt><trkpt lat="43.3611533" lon="11.3674033"><ele>316.0</ele><time>2026-05-03T11:23:01.653Z</time></trkpt><trkpt lat="43.36135" lon="11.3673233"><ele>316.0</ele><time>2026-05-03T11:23:02.654Z</time></trkpt><trkpt lat="43.3615483" lon="11.3672633"><ele>316.0</ele><time>2026-05-03T11:23:03.654Z</time></trkpt><trkpt lat="43.3617333" lon="11.367185"><ele>316.0</ele><time>2026-05-03T11:23:04.653Z</time></trkpt><trkpt lat="43.361905" lon="11.3670817"><ele>316.0</ele><time>2026-05-03T11:23:05.653Z</time></trkpt><trkpt lat="43.3620783" lon="11.366935"><ele>316.0</ele><time>2026-05-03T11:23:06.653Z</time></trkpt><trkpt lat="43.36225" lon="11.36675"><ele>318.3333333333333</ele><time>2026-05-03T11:23:07.653Z</time></trkpt><trkpt lat="43.3624267" lon="11.36656"><ele>320.6666666666667</ele><time>2026-05-03T11:23:08.653Z</time></trkpt><trkpt lat="43.3625917" lon="11.3663967"><ele>323.0</ele><time>2026-05-03T11:23:09.653Z</time></trkpt><trkpt lat="43.3627383" lon="11.3662483"><ele>323.0</ele><time>2026-05-03T11:23:10.654Z</time></trkpt><trkpt lat="43.3628667" lon="11.3661067"><ele>323.0</ele><time>2026-05-03T11:23:11.654Z</time></trkpt><trkpt lat="43.3629933" lon="11.3659667"><ele>323.0</ele><time>2026-05-03T11:23:12.653Z</time></trkpt><trkpt lat="43.363125" lon="11.36583"><ele>322.33333333333337</ele><time>2026-05-03T11:23:13.653Z</time></trkpt><trkpt lat="43.3632683" lon="11.3656817"><ele>321.6666666666667</ele><time>2026-05-03T11:23:14.652Z</time></trkpt><trkpt lat="43.3634367" lon="11.36551"><ele>321.0</ele><time>2026-05-03T11:23:15.653Z</time></trkpt><trkpt lat="43.3636117" lon="11.365335"><ele>321.0</ele><time>2026-05-03T11:23:16.652Z</time></trkpt><trkpt lat="43.3637833" lon="11.3651717"><ele>321.0</ele><time>2026-05-03T11:23:17.652Z</time></trkpt><trkpt lat="43.3639617" lon="11.3650183"><ele>321.0</ele><time>2026-05-03T11:23:18.653Z</time></trkpt><trkpt lat="43.3641167" lon="11.36487"><ele>321.6666666666667</ele><time>2026-05-03T11:23:19.653Z</time></trkpt><trkpt lat="43.36427" lon="11.3647267"><ele>322.33333333333337</ele><time>2026-05-03T11:23:20.653Z</time></trkpt><trkpt lat="43.3644167" lon="11.3645967"><ele>323.0</ele><time>2026-05-03T11:23:21.652Z</time></trkpt><trkpt lat="43.364545" lon="11.36446"><ele>323.33333333333337</ele><time>2026-05-03T11:23:22.652Z</time></trkpt><trkpt lat="43.3646783" lon="11.3643317"><ele>323.6666666666667</ele><time>2026-05-03T11:23:23.653Z</time></trkpt><trkpt lat="43.3648183" lon="11.3641883"><ele>324.0</ele><time>2026-05-03T11:23:24.653Z</time></trkpt><trkpt lat="43.3649667" lon="11.3640533"><ele>324.0</ele><time>2026-05-03T11:23:25.653Z</time></trkpt><trkpt lat="43.36512" lon="11.3639"><ele>324.0</ele><time>2026-05-03T11:23:26.652Z</time></trkpt><trkpt lat="43.36526" lon="11.3637533"><ele>324.0</ele><time>2026-05-03T11:23:27.652Z</time></trkpt><trkpt lat="43.3654067" lon="11.36362"><ele>323.5</ele><time>2026-05-03T11:23:28.652Z</time></trkpt><trkpt lat="43.3656867" lon="11.3633633"><ele>323.0</ele><time>2026-05-03T11:23:30.652Z</time></trkpt><trkpt lat="43.365945" lon="11.3631217"><ele>322.33333333333337</ele><time>2026-05-03T11:23:32.652Z</time></trkpt><trkpt lat="43.3660717" lon="11.36299"><ele>321.6666666666667</ele><time>2026-05-03T11:23:33.652Z</time></trkpt><trkpt lat="43.3662117" lon="11.3628367"><ele>321.0</ele><time>2026-05-03T11:23:34.653Z</time></trkpt><trkpt lat="43.3663617" lon="11.3626933"><ele>322.3333333333333</ele><time>2026-05-03T11:23:35.652Z</time></trkpt><trkpt lat="43.3665317" lon="11.3625433"><ele>323.66666666666663</ele><time>2026-05-03T11:23:36.652Z</time></trkpt><trkpt lat="43.3667017" lon="11.3623767"><ele>325.0</ele><time>2026-05-03T11:23:37.652Z</time></trkpt><trkpt lat="43.36687" lon="11.3622217"><ele>324.66666666666663</ele><time>2026-05-03T11:23:38.652Z</time></trkpt><trkpt lat="43.3670333" lon="11.3620583"><ele>324.3333333333333</ele><time>2026-05-03T11:23:39.652Z</time></trkpt><trkpt lat="43.36719" lon="11.3619117"><ele>324.0</ele><time>2026-05-03T11:23:40.652Z</time></trkpt><trkpt lat="43.367345" lon="11.3617733"><ele>325.6666666666667</ele><time>2026-05-03T11:23:41.653Z</time></trkpt><trkpt lat="43.3675067" lon="11.361635"><ele>327.33333333333337</ele><time>2026-05-03T11:23:42.652Z</time></trkpt><trkpt lat="43.3676783" lon="11.3614967"><ele>329.0</ele><time>2026-05-03T11:23:43.653Z</time></trkpt><trkpt lat="43.3678417" lon="11.3613367"><ele>329.0</ele><time>2026-05-03T11:23:44.653Z</time></trkpt><trkpt lat="43.3679883" lon="11.3611933"><ele>329.0</ele><time>2026-05-03T11:23:45.652Z</time></trkpt><trkpt lat="43.3681283" lon="11.3610617"><ele>329.0</ele><time>2026-05-03T11:23:46.652Z</time></trkpt><trkpt lat="43.3682667" lon="11.3609267"><ele>331.0</ele><time>2026-05-03T11:23:47.652Z</time></trkpt><trkpt lat="43.3683933" lon="11.3608"><ele>333.0</ele><time>2026-05-03T11:23:48.652Z</time></trkpt><trkpt lat="43.3685083" lon="11.3606833"><ele>335.0</ele><time>2026-05-03T11:23:49.652Z</time></trkpt><trkpt lat="43.36862" lon="11.3605733"><ele>337.0</ele><time>2026-05-03T11:23:50.653Z</time></trkpt><trkpt lat="43.36873" lon="11.3604683"><ele>337.8</ele><time>2026-05-03T11:23:51.652Z</time></trkpt><trkpt lat="43.3688283" lon="11.3603667"><ele>338.6</ele><time>2026-05-03T11:23:52.652Z</time></trkpt><trkpt lat="43.3689233" lon="11.36029"><ele>339.40000000000003</ele><time>2026-05-03T11:23:53.652Z</time></trkpt><trkpt lat="43.3690117" lon="11.3602167"><ele>340.20000000000005</ele><time>2026-05-03T11:23:54.652Z</time></trkpt><trkpt lat="43.3691033" lon="11.3601433"><ele>341.0</ele><time>2026-05-03T11:23:55.653Z</time></trkpt><trkpt lat="43.3691867" lon="11.3600683"><ele>342.1428571428571</ele><time>2026-05-03T11:23:56.653Z</time></trkpt><trkpt lat="43.369255" lon="11.3600283"><ele>343.2857142857143</ele><time>2026-05-03T11:23:57.653Z</time></trkpt><trkpt lat="43.3693217" lon="11.3600033"><ele>344.42857142857144</ele><time>2026-05-03T11:23:58.652Z</time></trkpt><trkpt lat="43.3693883" lon="11.3599967"><ele>345.57142857142856</ele><time>2026-05-03T11:23:59.652Z</time></trkpt><trkpt lat="43.36946" lon="11.36002"><ele>346.7142857142857</ele><time>2026-05-03T11:24:00.652Z</time></trkpt><trkpt lat="43.36953" lon="11.360065"><ele>347.85714285714283</ele><time>2026-05-03T11:24:01.653Z</time></trkpt><trkpt lat="43.3696017" lon="11.360085"><ele>349.0</ele><time>2026-05-03T11:24:02.652Z</time></trkpt><trkpt lat="43.36968" lon="11.36007"><ele>349.0</ele><time>2026-05-03T11:24:03.652Z</time></trkpt><trkpt lat="43.3697633" lon="11.3600483"><ele>349.0</ele><time>2026-05-03T11:24:04.652Z</time></trkpt><trkpt lat="43.3698583" lon="11.3600133"><ele>349.0</ele><time>2026-05-03T11:24:05.652Z</time></trkpt><trkpt lat="43.3699567" lon="11.3599767"><ele>349.0</ele><time>2026-05-03T11:24:06.652Z</time></trkpt><trkpt lat="43.3700583" lon="11.3599233"><ele>349.0</ele><time>2026-05-03T11:24:07.653Z</time></trkpt><trkpt lat="43.3701533" lon="11.35985"><ele>349.0</ele><time>2026-05-03T11:24:08.652Z</time></trkpt><trkpt lat="43.3702433" lon="11.3597667"><ele>349.0</ele><time>2026-05-03T11:24:09.653Z</time></trkpt><trkpt lat="43.3703333" lon="11.359705"><ele>349.0</ele><time>2026-05-03T11:24:10.653Z</time></trkpt><trkpt lat="43.370425" lon="11.3596567"><ele>349.0</ele><time>2026-05-03T11:24:11.653Z</time></trkpt><trkpt lat="43.3705083" lon="11.3596267"><ele>349.0</ele><time>2026-05-03T11:24:12.652Z</time></trkpt><trkpt lat="43.3705983" lon="11.3596033"><ele>349.79999999999995</ele><time>2026-05-03T11:24:13.652Z</time></trkpt><trkpt lat="43.3706983" lon="11.3595817"><ele>350.59999999999997</ele><time>2026-05-03T11:24:14.652Z</time></trkpt><trkpt lat="43.3708" lon="11.3595633"><ele>351.4</ele><time>2026-05-03T11:24:15.653Z</time></trkpt><trkpt lat="43.37091" lon="11.3595583"><ele>352.2</ele><time>2026-05-03T11:24:16.652Z</time></trkpt><trkpt lat="43.371015" lon="11.3595317"><ele>353.0</ele><time>2026-05-03T11:24:17.653Z</time></trkpt><trkpt lat="43.371125" lon="11.3595083"><ele>353.0</ele><time>2026-05-03T11:24:18.652Z</time></trkpt><trkpt lat="43.371215" lon="11.359495"><ele>353.0</ele><time>2026-05-03T11:24:19.653Z</time></trkpt><trkpt lat="43.37131" lon="11.3594833"><ele>353.0</ele><time>2026-05-03T11:24:20.652Z</time></trkpt><trkpt lat="43.3714067" lon="11.3594633"><ele>353.0</ele><time>2026-05-03T11:24:21.652Z</time></trkpt><trkpt lat="43.3715017" lon="11.3594467"><ele>353.0</ele><time>2026-05-03T11:24:22.653Z</time></trkpt><trkpt lat="43.3715967" lon="11.359425"><ele>354.2</ele><time>2026-05-03T11:24:23.652Z</time></trkpt><trkpt lat="43.3717083" lon="11.3594033"><ele>355.4</ele><time>2026-05-03T11:24:24.652Z</time></trkpt><trkpt lat="43.3718117" lon="11.3593833"><ele>356.59999999999997</ele><time>2026-05-03T11:24:25.653Z</time></trkpt><trkpt lat="43.371905" lon="11.35938"><ele>357.79999999999995</ele><time>2026-05-03T11:24:26.653Z</time></trkpt><trkpt lat="43.37199" lon="11.3594033"><ele>359.0</ele><time>2026-05-03T11:24:27.652Z</time></trkpt><trkpt lat="43.3720667" lon="11.35945"><ele>359.0</ele><time>2026-05-03T11:24:28.652Z</time></trkpt><trkpt lat="43.3721433" lon="11.3595017"><ele>359.0</ele><time>2026-05-03T11:24:29.652Z</time></trkpt><trkpt lat="43.3722183" lon="11.3595483"><ele>359.0</ele><time>2026-05-03T11:24:30.653Z</time></trkpt><trkpt lat="43.3722917" lon="11.3595567"><ele>359.0</ele><time>2026-05-03T11:24:31.652Z</time></trkpt><trkpt lat="43.3723633" lon="11.359535"><ele>359.0</ele><time>2026-05-03T11:24:32.653Z</time></trkpt><trkpt lat="43.3724333" lon="11.359485"><ele>359.0</ele><time>2026-05-03T11:24:33.652Z</time></trkpt><trkpt lat="43.372505" lon="11.3594417"><ele>358.83333333333337</ele><time>2026-05-03T11:24:34.652Z</time></trkpt><trkpt lat="43.37259" lon="11.3593867"><ele>358.6666666666667</ele><time>2026-05-03T11:24:35.652Z</time></trkpt><trkpt lat="43.3726767" lon="11.3593333"><ele>358.5</ele><time>2026-05-03T11:24:36.652Z</time></trkpt><trkpt lat="43.372755" lon="11.3592867"><ele>358.3333333333333</ele><time>2026-05-03T11:24:37.652Z</time></trkpt><trkpt lat="43.37283" lon="11.3592367"><ele>358.16666666666663</ele><time>2026-05-03T11:24:38.653Z</time></trkpt><trkpt lat="43.372905" lon="11.3592083"><ele>358.0</ele><time>2026-05-03T11:24:39.653Z</time></trkpt><trkpt lat="43.3730583" lon="11.3591217"><ele>358.0</ele><time>2026-05-03T11:24:41.652Z</time></trkpt><trkpt lat="43.3731233" lon="11.3590617"><ele>358.0</ele><time>2026-05-03T11:24:42.653Z</time></trkpt><trkpt lat="43.37317" lon="11.3589883"><ele>358.0</ele><time>2026-05-03T11:24:43.653Z</time></trkpt><trkpt lat="43.3732233" lon="11.3588933"><ele>358.0</ele><time>2026-05-03T11:24:44.652Z</time></trkpt><trkpt lat="43.3732733" lon="11.3587617"><ele>358.0</ele><time>2026-05-03T11:24:45.652Z</time></trkpt><trkpt lat="43.3733317" lon="11.3586083"><ele>357.5</ele><time>2026-05-03T11:24:46.652Z</time></trkpt><trkpt lat="43.373405" lon="11.358455"><ele>357.0</ele><time>2026-05-03T11:24:47.652Z</time></trkpt><trkpt lat="43.37349" lon="11.3582883"><ele>356.5</ele><time>2026-05-03T11:24:48.653Z</time></trkpt><trkpt lat="43.37356" lon="11.3581217"><ele>356.0</ele><time>2026-05-03T11:24:49.652Z</time></trkpt><trkpt lat="43.3736233" lon="11.3579383"><ele>356.0</ele><time>2026-05-03T11:24:50.652Z</time></trkpt><trkpt lat="43.37368" lon="11.357765"><ele>356.0</ele><time>2026-05-03T11:24:51.652Z</time></trkpt><trkpt lat="43.37372" lon="11.3575867"><ele>356.0</ele><time>2026-05-03T11:24:52.653Z</time></trkpt><trkpt lat="43.37375" lon="11.3574133"><ele>356.0</ele><time>2026-05-03T11:24:53.653Z</time></trkpt><trkpt lat="43.373735" lon="11.35723"><ele>355.25</ele><time>2026-05-03T11:24:54.652Z</time></trkpt><trkpt lat="43.373715" lon="11.357045"><ele>354.5</ele><time>2026-05-03T11:24:55.653Z</time></trkpt><trkpt lat="43.3736883" lon="11.35687"><ele>353.75</ele><time>2026-05-03T11:24:56.652Z</time></trkpt><trkpt lat="43.3736617" lon="11.356695"><ele>353.0</ele><time>2026-05-03T11:24:57.653Z</time></trkpt><trkpt lat="43.3736367" lon="11.3565183"><ele>352.75</ele><time>2026-05-03T11:24:58.653Z</time></trkpt><trkpt lat="43.3736333" lon="11.35633"><ele>352.5</ele><time>2026-05-03T11:24:59.652Z</time></trkpt><trkpt lat="43.3736267" lon="11.3561433"><ele>352.25</ele><time>2026-05-03T11:25:00.653Z</time></trkpt><trkpt lat="43.3736167" lon="11.35593"><ele>352.0</ele><time>2026-05-03T11:25:01.652Z</time></trkpt><trkpt lat="43.373605" lon="11.3557217"><ele>351.0</ele><time>2026-05-03T11:25:02.653Z</time></trkpt><trkpt lat="43.3735983" lon="11.3555117"><ele>350.0</ele><time>2026-05-03T11:25:03.652Z</time></trkpt><trkpt lat="43.3735867" lon="11.355305"><ele>349.0</ele><time>2026-05-03T11:25:04.652Z</time></trkpt><trkpt lat="43.3735717" lon="11.3550933"><ele>349.0</ele><time>2026-05-03T11:25:05.652Z</time></trkpt><trkpt lat="43.37356" lon="11.3548917"><ele>349.0</ele><time>2026-05-03T11:25:06.652Z</time></trkpt><trkpt lat="43.3735533" lon="11.3546833"><ele>349.0</ele><time>2026-05-03T11:25:07.652Z</time></trkpt><trkpt lat="43.37354" lon="11.35448"><ele>349.0</ele><time>2026-05-03T11:25:08.652Z</time></trkpt><trkpt lat="43.3735483" lon="11.3542683"><ele>348.75</ele><time>2026-05-03T11:25:09.652Z</time></trkpt><trkpt lat="43.37355" lon="11.354065"><ele>348.5</ele><time>2026-05-03T11:25:10.652Z</time></trkpt><trkpt lat="43.373555" lon="11.3538783"><ele>348.25</ele><time>2026-05-03T11:25:11.653Z</time></trkpt><trkpt lat="43.373565" lon="11.3536983"><ele>348.0</ele><time>2026-05-03T11:25:12.652Z</time></trkpt><trkpt lat="43.3735933" lon="11.353505"><ele>347.25</ele><time>2026-05-03T11:25:13.652Z</time></trkpt><trkpt lat="43.3736333" lon="11.3533217"><ele>346.5</ele><time>2026-05-03T11:25:14.653Z</time></trkpt><trkpt lat="43.37369" lon="11.3531467"><ele>345.75</ele><time>2026-05-03T11:25:15.652Z</time></trkpt><trkpt lat="43.3737383" lon="11.3529683"><ele>345.0</ele><time>2026-05-03T11:25:16.653Z</time></trkpt><trkpt lat="43.3737967" lon="11.3527967"><ele>343.75</ele><time>2026-05-03T11:25:17.653Z</time></trkpt><trkpt lat="43.373855" lon="11.3526317"><ele>342.5</ele><time>2026-05-03T11:25:18.652Z</time></trkpt><trkpt lat="43.3739167" lon="11.3524767"><ele>341.25</ele><time>2026-05-03T11:25:19.652Z</time></trkpt><trkpt lat="43.3739767" lon="11.3523167"><ele>340.0</ele><time>2026-05-03T11:25:20.653Z</time></trkpt><trkpt lat="43.3740367" lon="11.3521733"><ele>339.75</ele><time>2026-05-03T11:25:21.653Z</time></trkpt><trkpt lat="43.3740883" lon="11.3520383"><ele>339.5</ele><time>2026-05-03T11:25:22.652Z</time></trkpt><trkpt lat="43.3741317" lon="11.3518833"><ele>339.25</ele><time>2026-05-03T11:25:23.652Z</time></trkpt><trkpt lat="43.3741917" lon="11.3517517"><ele>339.0</ele><time>2026-05-03T11:25:24.652Z</time></trkpt><trkpt lat="43.3742433" lon="11.3516033"><ele>339.0</ele><time>2026-05-03T11:25:25.652Z</time></trkpt><trkpt lat="43.3743317" lon="11.3514617"><ele>339.0</ele><time>2026-05-03T11:25:26.652Z</time></trkpt><trkpt lat="43.374435" lon="11.3513283"><ele>339.0</ele><time>2026-05-03T11:25:27.653Z</time></trkpt><trkpt lat="43.3745517" lon="11.3511983"><ele>339.0</ele><time>2026-05-03T11:25:28.653Z</time></trkpt><trkpt lat="43.3746733" lon="11.35107"><ele>339.0</ele><time>2026-05-03T11:25:29.653Z</time></trkpt><trkpt lat="43.3748033" lon="11.3509667"><ele>339.0</ele><time>2026-05-03T11:25:30.652Z</time></trkpt><trkpt lat="43.374935" lon="11.3508667"><ele>339.0</ele><time>2026-05-03T11:25:31.653Z</time></trkpt><trkpt lat="43.3750617" lon="11.3507667"><ele>339.0</ele><time>2026-05-03T11:25:32.652Z</time></trkpt><trkpt lat="43.37518" lon="11.3506667"><ele>339.0</ele><time>2026-05-03T11:25:33.653Z</time></trkpt><trkpt lat="43.3753083" lon="11.350565"><ele>339.0</ele><time>2026-05-03T11:25:34.653Z</time></trkpt><trkpt lat="43.3754467" lon="11.35046"><ele>339.0</ele><time>2026-05-03T11:25:35.653Z</time></trkpt><trkpt lat="43.3755833" lon="11.3503633"><ele>339.6666666666667</ele><time>2026-05-03T11:25:36.653Z</time></trkpt><trkpt lat="43.3757233" lon="11.350255"><ele>340.33333333333337</ele><time>2026-05-03T11:25:37.652Z</time></trkpt><trkpt lat="43.3758717" lon="11.350165"><ele>341.0</ele><time>2026-05-03T11:25:38.653Z</time></trkpt><trkpt lat="43.3760167" lon="11.3500433"><ele>341.0</ele><time>2026-05-03T11:25:39.652Z</time></trkpt><trkpt lat="43.376155" lon="11.3499267"><ele>341.0</ele><time>2026-05-03T11:25:40.652Z</time></trkpt><trkpt lat="43.37629" lon="11.349815"><ele>341.0</ele><time>2026-05-03T11:25:41.653Z</time></trkpt><trkpt lat="43.3764317" lon="11.349695"><ele>342.6666666666667</ele><time>2026-05-03T11:25:42.652Z</time></trkpt><trkpt lat="43.3765583" lon="11.3495833"><ele>344.3333333333333</ele><time>2026-05-03T11:25:43.652Z</time></trkpt><trkpt lat="43.3766933" lon="11.3494783"><ele>346.0</ele><time>2026-05-03T11:25:44.652Z</time></trkpt><trkpt lat="43.3768283" lon="11.3493833"><ele>346.0</ele><time>2026-05-03T11:25:45.653Z</time></trkpt><trkpt lat="43.3769483" lon="11.3492983"><ele>346.0</ele><time>2026-05-03T11:25:46.652Z</time></trkpt><trkpt lat="43.3770567" lon="11.349215"><ele>346.0</ele><time>2026-05-03T11:25:47.653Z</time></trkpt><trkpt lat="43.3771567" lon="11.349145"><ele>346.0</ele><time>2026-05-03T11:25:48.653Z</time></trkpt><trkpt lat="43.377265" lon="11.3490767"><ele>345.75</ele><time>2026-05-03T11:25:49.653Z</time></trkpt><trkpt lat="43.3773883" lon="11.3490083"><ele>345.5</ele><time>2026-05-03T11:25:50.653Z</time></trkpt><trkpt lat="43.37753" lon="11.3489417"><ele>345.25</ele><time>2026-05-03T11:25:51.652Z</time></trkpt><trkpt lat="43.3776433" lon="11.348885"><ele>345.0</ele><time>2026-05-03T11:25:52.653Z</time></trkpt><trkpt lat="43.37775" lon="11.3488167"><ele>345.5</ele><time>2026-05-03T11:25:53.652Z</time></trkpt><trkpt lat="43.3778583" lon="11.34875"><ele>346.0</ele><time>2026-05-03T11:25:54.653Z</time></trkpt><trkpt lat="43.377965" lon="11.3486783"><ele>346.5</ele><time>2026-05-03T11:25:55.653Z</time></trkpt><trkpt lat="43.378085" lon="11.3485917"><ele>347.0</ele><time>2026-05-03T11:25:56.653Z</time></trkpt><trkpt lat="43.378195" lon="11.348495"><ele>347.25</ele><time>2026-05-03T11:25:57.652Z</time></trkpt><trkpt lat="43.3783033" lon="11.3483833"><ele>347.5</ele><time>2026-05-03T11:25:58.652Z</time></trkpt><trkpt lat="43.378425" lon="11.3482667"><ele>347.75</ele><time>2026-05-03T11:25:59.652Z</time></trkpt><trkpt lat="43.37854" lon="11.3481617"><ele>348.0</ele><time>2026-05-03T11:26:00.653Z</time></trkpt><trkpt lat="43.378645" lon="11.3480567"><ele>348.5</ele><time>2026-05-03T11:26:01.652Z</time></trkpt><trkpt lat="43.37875" lon="11.3479617"><ele>349.0</ele><time>2026-05-03T11:26:02.652Z</time></trkpt><trkpt lat="43.3788417" lon="11.34786"><ele>349.5</ele><time>2026-05-03T11:26:03.653Z</time></trkpt><trkpt lat="43.3789367" lon="11.3477733"><ele>350.0</ele><time>2026-05-03T11:26:04.653Z</time></trkpt><trkpt lat="43.3790233" lon="11.34769"><ele>350.0</ele><time>2026-05-03T11:26:05.652Z</time></trkpt><trkpt lat="43.3791017" lon="11.3475983"><ele>350.0</ele><time>2026-05-03T11:26:06.652Z</time></trkpt><trkpt lat="43.3791717" lon="11.347505"><ele>350.0</ele><time>2026-05-03T11:26:07.652Z</time></trkpt><trkpt lat="43.37924" lon="11.34741"><ele>350.0</ele><time>2026-05-03T11:26:08.652Z</time></trkpt><trkpt lat="43.3793067" lon="11.3473033"><ele>350.0</ele><time>2026-05-03T11:26:09.652Z</time></trkpt><trkpt lat="43.37937" lon="11.3471933"><ele>349.25</ele><time>2026-05-03T11:26:10.653Z</time></trkpt><trkpt lat="43.379435" lon="11.3470667"><ele>348.5</ele><time>2026-05-03T11:26:11.652Z</time></trkpt><trkpt lat="43.37952" lon="11.3469233"><ele>347.75</ele><time>2026-05-03T11:26:12.652Z</time></trkpt><trkpt lat="43.3796" lon="11.3467583"><ele>347.0</ele><time>2026-05-03T11:26:13.652Z</time></trkpt><trkpt lat="43.3796817" lon="11.3465883"><ele>347.5</ele><time>2026-05-03T11:26:14.652Z</time></trkpt><trkpt lat="43.3797583" lon="11.346405"><ele>348.0</ele><time>2026-05-03T11:26:15.652Z</time></trkpt><trkpt lat="43.37982" lon="11.346225"><ele>348.5</ele><time>2026-05-03T11:26:16.652Z</time></trkpt><trkpt lat="43.3798783" lon="11.3460417"><ele>349.0</ele><time>2026-05-03T11:26:17.653Z</time></trkpt><trkpt lat="43.37993" lon="11.345875"><ele>350.5</ele><time>2026-05-03T11:26:18.652Z</time></trkpt><trkpt lat="43.3799833" lon="11.3457067"><ele>352.0</ele><time>2026-05-03T11:26:19.652Z</time></trkpt><trkpt lat="43.3800367" lon="11.3455383"><ele>353.5</ele><time>2026-05-03T11:26:20.652Z</time></trkpt><trkpt lat="43.3800917" lon="11.34537"><ele>355.0</ele><time>2026-05-03T11:26:21.652Z</time></trkpt><trkpt lat="43.380145" lon="11.345205"><ele>355.25</ele><time>2026-05-03T11:26:22.653Z</time></trkpt><trkpt lat="43.3802033" lon="11.3450367"><ele>355.5</ele><time>2026-05-03T11:26:23.652Z</time></trkpt><trkpt lat="43.38026" lon="11.34487"><ele>355.75</ele><time>2026-05-03T11:26:24.652Z</time></trkpt><trkpt lat="43.38031" lon="11.3447133"><ele>356.0</ele><time>2026-05-03T11:26:25.652Z</time></trkpt><trkpt lat="43.3803517" lon="11.3445667"><ele>355.6666666666667</ele><time>2026-05-03T11:26:26.652Z</time></trkpt><trkpt lat="43.3803917" lon="11.3444367"><ele>355.33333333333337</ele><time>2026-05-03T11:26:27.653Z</time></trkpt><trkpt lat="43.38043" lon="11.3443383"><ele>355.0</ele><time>2026-05-03T11:26:28.652Z</time></trkpt><trkpt lat="43.3804633" lon="11.344255"><ele>354.6666666666667</ele><time>2026-05-03T11:26:29.652Z</time></trkpt><trkpt lat="43.3805083" lon="11.3441867"><ele>354.3333333333333</ele><time>2026-05-03T11:26:30.652Z</time></trkpt><trkpt lat="43.3805683" lon="11.3441183"><ele>354.0</ele><time>2026-05-03T11:26:31.652Z</time></trkpt><trkpt lat="43.3806417" lon="11.3440317"><ele>353.5</ele><time>2026-05-03T11:26:32.652Z</time></trkpt><trkpt lat="43.3807317" lon="11.34392"><ele>353.0</ele><time>2026-05-03T11:26:33.652Z</time></trkpt><trkpt lat="43.38083" lon="11.343805"><ele>352.5</ele><time>2026-05-03T11:26:34.652Z</time></trkpt><trkpt lat="43.3809217" lon="11.3436817"><ele>352.0</ele><time>2026-05-03T11:26:35.653Z</time></trkpt><trkpt lat="43.3810183" lon="11.3435667"><ele>352.5</ele><time>2026-05-03T11:26:36.653Z</time></trkpt><trkpt lat="43.3811233" lon="11.343445"><ele>353.0</ele><time>2026-05-03T11:26:37.652Z</time></trkpt><trkpt lat="43.38123" lon="11.3433383"><ele>353.5</ele><time>2026-05-03T11:26:38.652Z</time></trkpt><trkpt lat="43.38134" lon="11.3432267"><ele>354.0</ele><time>2026-05-03T11:26:39.652Z</time></trkpt><trkpt lat="43.3814583" lon="11.3431017"><ele>354.75</ele><time>2026-05-03T11:26:40.652Z</time></trkpt><trkpt lat="43.3815733" lon="11.34299"><ele>355.5</ele><time>2026-05-03T11:26:41.652Z</time></trkpt><trkpt lat="43.3816933" lon="11.3428983"><ele>356.25</ele><time>2026-05-03T11:26:42.653Z</time></trkpt><trkpt lat="43.3818133" lon="11.3428167"><ele>357.0</ele><time>2026-05-03T11:26:43.652Z</time></trkpt><trkpt lat="43.3819333" lon="11.342735"><ele>357.0</ele><time>2026-05-03T11:26:44.652Z</time></trkpt><trkpt lat="43.3820517" lon="11.342635"><ele>357.0</ele><time>2026-05-03T11:26:45.652Z</time></trkpt><trkpt lat="43.3821683" lon="11.3425433"><ele>357.0</ele><time>2026-05-03T11:26:46.652Z</time></trkpt><trkpt lat="43.3822817" lon="11.3424667"><ele>357.0</ele><time>2026-05-03T11:26:47.652Z</time></trkpt><trkpt lat="43.382385" lon="11.3423983"><ele>356.3333333333333</ele><time>2026-05-03T11:26:48.653Z</time></trkpt><trkpt lat="43.3824833" lon="11.34234"><ele>355.6666666666667</ele><time>2026-05-03T11:26:49.653Z</time></trkpt><trkpt lat="43.3825583" lon="11.3422867"><ele>355.0</ele><time>2026-05-03T11:26:50.652Z</time></trkpt><trkpt lat="43.3826267" lon="11.34224"><ele>354.33333333333337</ele><time>2026-05-03T11:26:51.652Z</time></trkpt><trkpt lat="43.3827183" lon="11.34219"><ele>353.6666666666667</ele><time>2026-05-03T11:26:53.653Z</time></trkpt><trkpt lat="43.3827817" lon="11.3421617"><ele>353.0</ele><time>2026-05-03T11:26:55.652Z</time></trkpt><trkpt lat="43.3828617" lon="11.3421617"><ele>353.0</ele><time>2026-05-03T11:26:57.653Z</time></trkpt><trkpt lat="43.3830133" lon="11.3422483"><ele>353.0</ele><time>2026-05-03T11:26:59.652Z</time></trkpt><trkpt lat="43.3831233" lon="11.3423333"><ele>353.0</ele><time>2026-05-03T11:27:00.652Z</time></trkpt><trkpt lat="43.38339" lon="11.3425383"><ele>354.0</ele><time>2026-05-03T11:27:02.652Z</time></trkpt><trkpt lat="43.38354" lon="11.34265"><ele>355.0</ele><time>2026-05-03T11:27:03.652Z</time></trkpt><trkpt lat="43.3837117" lon="11.3427733"><ele>356.0</ele><time>2026-05-03T11:27:04.653Z</time></trkpt><trkpt lat="43.3838767" lon="11.3429017"><ele>356.6666666666667</ele><time>2026-05-03T11:27:05.652Z</time></trkpt><trkpt lat="43.3840317" lon="11.3430167"><ele>357.3333333333333</ele><time>2026-05-03T11:27:06.652Z</time></trkpt><trkpt lat="43.38417" lon="11.343155"><ele>358.0</ele><time>2026-05-03T11:27:07.653Z</time></trkpt><trkpt lat="43.3842917" lon="11.3433117"><ele>360.0</ele><time>2026-05-03T11:27:08.653Z</time></trkpt><trkpt lat="43.384395" lon="11.343515"><ele>362.0</ele><time>2026-05-03T11:27:09.652Z</time></trkpt><trkpt lat="43.3844783" lon="11.34372"><ele>364.0</ele><time>2026-05-03T11:27:10.653Z</time></trkpt><trkpt lat="43.3845667" lon="11.343925"><ele>366.0</ele><time>2026-05-03T11:27:11.652Z</time></trkpt><trkpt lat="43.384675" lon="11.34411"><ele>368.0</ele><time>2026-05-03T11:27:12.652Z</time></trkpt><trkpt lat="43.3848217" lon="11.3442517"><ele>370.0</ele><time>2026-05-03T11:27:13.653Z</time></trkpt><trkpt lat="43.3849867" lon="11.3443367"><ele>370.0</ele><time>2026-05-03T11:27:14.652Z</time></trkpt><trkpt lat="43.385205" lon="11.3444167"><ele>370.0</ele><time>2026-05-03T11:27:15.652Z</time></trkpt><trkpt lat="43.38545" lon="11.344495"><ele>368.5</ele><time>2026-05-03T11:27:16.652Z</time></trkpt><trkpt lat="43.3856717" lon="11.3445617"><ele>367.0</ele><time>2026-05-03T11:27:17.652Z</time></trkpt><trkpt lat="43.3858967" lon="11.3446033"><ele>367.0</ele><time>2026-05-03T11:27:18.653Z</time></trkpt><trkpt lat="43.3861017" lon="11.34468"><ele>367.0</ele><time>2026-05-03T11:27:19.653Z</time></trkpt><trkpt lat="43.3863017" lon="11.3447667"><ele>367.0</ele><time>2026-05-03T11:27:20.652Z</time></trkpt><trkpt lat="43.3864917" lon="11.3448483"><ele>369.3333333333333</ele><time>2026-05-03T11:27:21.653Z</time></trkpt><trkpt lat="43.3867067" lon="11.34494"><ele>371.6666666666667</ele><time>2026-05-03T11:27:22.653Z</time></trkpt><trkpt lat="43.3869" lon="11.3449817"><ele>374.0</ele><time>2026-05-03T11:27:23.652Z</time></trkpt><trkpt lat="43.3870783" lon="11.3449833"><ele>374.6666666666667</ele><time>2026-05-03T11:27:24.652Z</time></trkpt><trkpt lat="43.38728" lon="11.344975"><ele>375.3333333333333</ele><time>2026-05-03T11:27:25.652Z</time></trkpt><trkpt lat="43.38744" lon="11.344965"><ele>376.0</ele><time>2026-05-03T11:27:26.652Z</time></trkpt><trkpt lat="43.3875833" lon="11.34502"><ele>376.0</ele><time>2026-05-03T11:27:27.652Z</time></trkpt><trkpt lat="43.3876883" lon="11.3451217"><ele>376.0</ele><time>2026-05-03T11:27:28.653Z</time></trkpt><trkpt lat="43.3877883" lon="11.345265"><ele>376.0</ele><time>2026-05-03T11:27:29.652Z</time></trkpt><trkpt lat="43.387985" lon="11.345415"><ele>377.75</ele><time>2026-05-03T11:27:31.652Z</time></trkpt><trkpt lat="43.3880783" lon="11.3453817"><ele>379.5</ele><time>2026-05-03T11:27:32.652Z</time></trkpt><trkpt lat="43.3881767" lon="11.3452817"><ele>381.25</ele><time>2026-05-03T11:27:33.652Z</time></trkpt><trkpt lat="43.388275" lon="11.3451417"><ele>383.0</ele><time>2026-05-03T11:27:34.652Z</time></trkpt><trkpt lat="43.38838" lon="11.3450067"><ele>383.0</ele><time>2026-05-03T11:27:35.653Z</time></trkpt><trkpt lat="43.38853" lon="11.3449067"><ele>383.0</ele><time>2026-05-03T11:27:36.653Z</time></trkpt><trkpt lat="43.3887167" lon="11.344855"><ele>383.0</ele><time>2026-05-03T11:27:37.652Z</time></trkpt><trkpt lat="43.3889267" lon="11.3448467"><ele>387.0</ele><time>2026-05-03T11:27:38.652Z</time></trkpt><trkpt lat="43.3891633" lon="11.3448817"><ele>391.0</ele><time>2026-05-03T11:27:39.652Z</time></trkpt><trkpt lat="43.389415" lon="11.344925"><ele>391.0</ele><time>2026-05-03T11:27:40.652Z</time></trkpt><trkpt lat="43.3896683" lon="11.344965"><ele>391.0</ele><time>2026-05-03T11:27:41.652Z</time></trkpt><trkpt lat="43.3899267" lon="11.34499"><ele>392.0</ele><time>2026-05-03T11:27:42.652Z</time></trkpt><trkpt lat="43.3902033" lon="11.3449883"><ele>393.0</ele><time>2026-05-03T11:27:43.653Z</time></trkpt><trkpt lat="43.3904833" lon="11.345005"><ele>395.5</ele><time>2026-05-03T11:27:44.653Z</time></trkpt><trkpt lat="43.3907333" lon="11.34502"><ele>398.0</ele><time>2026-05-03T11:27:45.652Z</time></trkpt><trkpt lat="43.3909683" lon="11.34505"><ele>398.0</ele><time>2026-05-03T11:27:46.653Z</time></trkpt><trkpt lat="43.39118" lon="11.3450833"><ele>398.0</ele><time>2026-05-03T11:27:47.653Z</time></trkpt><trkpt lat="43.391365" lon="11.345125"><ele>398.0</ele><time>2026-05-03T11:27:48.652Z</time></trkpt><trkpt lat="43.39152" lon="11.3452283"><ele>398.66666666666663</ele><time>2026-05-03T11:27:49.652Z</time></trkpt><trkpt lat="43.3916667" lon="11.3453633"><ele>399.33333333333337</ele><time>2026-05-03T11:27:50.652Z</time></trkpt><trkpt lat="43.391795" lon="11.345545"><ele>400.0</ele><time>2026-05-03T11:27:51.653Z</time></trkpt><trkpt lat="43.39191" lon="11.3457283"><ele>403.33333333333337</ele><time>2026-05-03T11:27:52.653Z</time></trkpt><trkpt lat="43.3920433" lon="11.3459"><ele>406.66666666666663</ele><time>2026-05-03T11:27:53.652Z</time></trkpt><trkpt lat="43.3922017" lon="11.3460567"><ele>410.0</ele><time>2026-05-03T11:27:54.653Z</time></trkpt><trkpt lat="43.3923767" lon="11.3461617"><ele>410.66666666666663</ele><time>2026-05-03T11:27:55.651Z</time></trkpt><trkpt lat="43.3925417" lon="11.346275"><ele>411.33333333333337</ele><time>2026-05-03T11:27:56.651Z</time></trkpt><trkpt lat="43.3926983" lon="11.3463767"><ele>412.0</ele><time>2026-05-03T11:27:57.652Z</time></trkpt><trkpt lat="43.392865" lon="11.3464533"><ele>413.6666666666667</ele><time>2026-05-03T11:27:58.651Z</time></trkpt><trkpt lat="43.3930317" lon="11.3465233"><ele>415.33333333333337</ele><time>2026-05-03T11:27:59.651Z</time></trkpt><trkpt lat="43.3931983" lon="11.3465717"><ele>417.0</ele><time>2026-05-03T11:28:00.652Z</time></trkpt><trkpt lat="43.3933717" lon="11.3466483"><ele>417.0</ele><time>2026-05-03T11:28:01.652Z</time></trkpt><trkpt lat="43.3935383" lon="11.346705"><ele>417.0</ele><time>2026-05-03T11:28:02.651Z</time></trkpt><trkpt lat="43.39373" lon="11.3467983"><ele>417.0</ele><time>2026-05-03T11:28:03.651Z</time></trkpt><trkpt lat="43.3939417" lon="11.34688"><ele>416.5</ele><time>2026-05-03T11:28:04.651Z</time></trkpt><trkpt lat="43.394165" lon="11.3469617"><ele>416.0</ele><time>2026-05-03T11:28:05.651Z</time></trkpt><trkpt lat="43.394395" lon="11.3470333"><ele>416.0</ele><time>2026-05-03T11:28:06.652Z</time></trkpt><trkpt lat="43.3946083" lon="11.3471133"><ele>416.0</ele><time>2026-05-03T11:28:07.652Z</time></trkpt><trkpt lat="43.3947967" lon="11.3471783"><ele>416.0</ele><time>2026-05-03T11:28:08.651Z</time></trkpt><trkpt lat="43.3949633" lon="11.3472433"><ele>419.25</ele><time>2026-05-03T11:28:09.651Z</time></trkpt><trkpt lat="43.3951033" lon="11.3473033"><ele>422.5</ele><time>2026-05-03T11:28:10.651Z</time></trkpt><trkpt lat="43.3952167" lon="11.34736"><ele>425.75</ele><time>2026-05-03T11:28:11.652Z</time></trkpt><trkpt lat="43.3953267" lon="11.347435"><ele>429.0</ele><time>2026-05-03T11:28:12.651Z</time></trkpt><trkpt lat="43.3954133" lon="11.3475133"><ele>429.0</ele><time>2026-05-03T11:28:13.651Z</time></trkpt><trkpt lat="43.3954817" lon="11.347695"><ele>429.0</ele><time>2026-05-03T11:28:14.652Z</time></trkpt><trkpt lat="43.3955233" lon="11.347895"><ele>429.0</ele><time>2026-05-03T11:28:15.651Z</time></trkpt><trkpt lat="43.3955683" lon="11.34812"><ele>428.33333333333337</ele><time>2026-05-03T11:28:16.651Z</time></trkpt><trkpt lat="43.3956417" lon="11.3483617"><ele>427.6666666666667</ele><time>2026-05-03T11:28:17.651Z</time></trkpt><trkpt lat="43.3957383" lon="11.3485633"><ele>427.0</ele><time>2026-05-03T11:28:18.652Z</time></trkpt><trkpt lat="43.3958583" lon="11.3487517"><ele>426.6666666666667</ele><time>2026-05-03T11:28:19.651Z</time></trkpt><trkpt lat="43.39601" lon="11.3489017"><ele>426.33333333333337</ele><time>2026-05-03T11:28:20.652Z</time></trkpt><trkpt lat="43.3961867" lon="11.349035"><ele>426.0</ele><time>2026-05-03T11:28:21.652Z</time></trkpt><trkpt lat="43.396375" lon="11.34915"><ele>424.66666666666663</ele><time>2026-05-03T11:28:22.651Z</time></trkpt><trkpt lat="43.3965783" lon="11.3492417"><ele>423.3333333333333</ele><time>2026-05-03T11:28:23.651Z</time></trkpt><trkpt lat="43.3967583" lon="11.3493333"><ele>422.0</ele><time>2026-05-03T11:28:24.651Z</time></trkpt><trkpt lat="43.396915" lon="11.3494217"><ele>422.0</ele><time>2026-05-03T11:28:25.651Z</time></trkpt><trkpt lat="43.3970467" lon="11.349545"><ele>422.0</ele><time>2026-05-03T11:28:26.651Z</time></trkpt><trkpt lat="43.397145" lon="11.3497467"><ele>422.0</ele><time>2026-05-03T11:28:27.652Z</time></trkpt><trkpt lat="43.397215" lon="11.3499733"><ele>421.3333333333333</ele><time>2026-05-03T11:28:28.651Z</time></trkpt><trkpt lat="43.3972567" lon="11.350225"><ele>420.66666666666663</ele><time>2026-05-03T11:28:29.651Z</time></trkpt><trkpt lat="43.397325" lon="11.3504617"><ele>420.0</ele><time>2026-05-03T11:28:30.651Z</time></trkpt><trkpt lat="43.3974083" lon="11.3507283"><ele>421.66666666666663</ele><time>2026-05-03T11:28:31.651Z</time></trkpt><trkpt lat="43.3975" lon="11.3509667"><ele>423.3333333333333</ele><time>2026-05-03T11:28:32.651Z</time></trkpt><trkpt lat="43.3975933" lon="11.3511933"><ele>425.0</ele><time>2026-05-03T11:28:33.651Z</time></trkpt><trkpt lat="43.3976883" lon="11.351395"><ele>425.3333333333333</ele><time>2026-05-03T11:28:34.652Z</time></trkpt><trkpt lat="43.3978017" lon="11.35157"><ele>425.66666666666663</ele><time>2026-05-03T11:28:35.651Z</time></trkpt><trkpt lat="43.3979367" lon="11.3517083"><ele>426.0</ele><time>2026-05-03T11:28:36.651Z</time></trkpt><trkpt lat="43.39809" lon="11.3518067"><ele>427.66666666666663</ele><time>2026-05-03T11:28:37.652Z</time></trkpt><trkpt lat="43.398265" lon="11.3519283"><ele>429.3333333333333</ele><time>2026-05-03T11:28:38.652Z</time></trkpt><trkpt lat="43.3984383" lon="11.3520717"><ele>431.0</ele><time>2026-05-03T11:28:39.652Z</time></trkpt><trkpt lat="43.3986167" lon="11.3522033"><ele>432.3333333333333</ele><time>2026-05-03T11:28:40.651Z</time></trkpt><trkpt lat="43.398805" lon="11.3523017"><ele>433.66666666666663</ele><time>2026-05-03T11:28:41.652Z</time></trkpt><trkpt lat="43.399" lon="11.3523333"><ele>435.0</ele><time>2026-05-03T11:28:42.651Z</time></trkpt><trkpt lat="43.3991833" lon="11.3523467"><ele>435.33333333333337</ele><time>2026-05-03T11:28:43.651Z</time></trkpt><trkpt lat="43.399355" lon="11.3523833"><ele>435.6666666666667</ele><time>2026-05-03T11:28:44.652Z</time></trkpt><trkpt lat="43.3994967" lon="11.3524817"><ele>436.0</ele><time>2026-05-03T11:28:45.652Z</time></trkpt><trkpt lat="43.399615" lon="11.35261"><ele>435.5</ele><time>2026-05-03T11:28:46.651Z</time></trkpt><trkpt lat="43.3997233" lon="11.3527533"><ele>435.0</ele><time>2026-05-03T11:28:47.651Z</time></trkpt><trkpt lat="43.3998117" lon="11.35286"><ele>434.5</ele><time>2026-05-03T11:28:48.652Z</time></trkpt><trkpt lat="43.3999" lon="11.35293"><ele>434.0</ele><time>2026-05-03T11:28:49.651Z</time></trkpt><trkpt lat="43.3999833" lon="11.3529483"><ele>434.0</ele><time>2026-05-03T11:28:50.651Z</time></trkpt><trkpt lat="43.4000667" lon="11.3529183"><ele>434.0</ele><time>2026-05-03T11:28:51.651Z</time></trkpt><trkpt lat="43.400135" lon="11.35284"><ele>434.0</ele><time>2026-05-03T11:28:52.652Z</time></trkpt><trkpt lat="43.4001983" lon="11.3526867"><ele>434.0</ele><time>2026-05-03T11:28:53.651Z</time></trkpt><trkpt lat="43.4002417" lon="11.3524783"><ele>434.0</ele><time>2026-05-03T11:28:54.652Z</time></trkpt><trkpt lat="43.4002867" lon="11.3523217"><ele>434.0</ele><time>2026-05-03T11:28:55.651Z</time></trkpt><trkpt lat="43.40034" lon="11.35221"><ele>434.0</ele><time>2026-05-03T11:28:56.651Z</time></trkpt><trkpt lat="43.40041" lon="11.3521467"><ele>434.0</ele><time>2026-05-03T11:28:57.652Z</time></trkpt><trkpt lat="43.4005" lon="11.3521933"><ele>434.0</ele><time>2026-05-03T11:28:58.651Z</time></trkpt><trkpt lat="43.40059" lon="11.3522533"><ele>435.5</ele><time>2026-05-03T11:28:59.652Z</time></trkpt><trkpt lat="43.400685" lon="11.35235"><ele>437.0</ele><time>2026-05-03T11:29:00.652Z</time></trkpt><trkpt lat="43.4008033" lon="11.3524367"><ele>438.5</ele><time>2026-05-03T11:29:01.652Z</time></trkpt><trkpt lat="43.400945" lon="11.3525033"><ele>440.0</ele><time>2026-05-03T11:29:02.651Z</time></trkpt><trkpt lat="43.401105" lon="11.3525217"><ele>440.0</ele><time>2026-05-03T11:29:03.652Z</time></trkpt><trkpt lat="43.40127" lon="11.3525633"><ele>440.0</ele><time>2026-05-03T11:29:04.651Z</time></trkpt><trkpt lat="43.40144" lon="11.3526333"><ele>440.0</ele><time>2026-05-03T11:29:05.652Z</time></trkpt><trkpt lat="43.4016017" lon="11.352685"><ele>440.0</ele><time>2026-05-03T11:29:06.651Z</time></trkpt><trkpt lat="43.4017867" lon="11.3526717"><ele>440.0</ele><time>2026-05-03T11:29:07.651Z</time></trkpt><trkpt lat="43.4019783" lon="11.35262"><ele>440.0</ele><time>2026-05-03T11:29:08.652Z</time></trkpt><trkpt lat="43.402175" lon="11.3525367"><ele>441.66666666666663</ele><time>2026-05-03T11:29:09.652Z</time></trkpt><trkpt lat="43.4023583" lon="11.3524733"><ele>443.33333333333337</ele><time>2026-05-03T11:29:10.651Z</time></trkpt><trkpt lat="43.40255" lon="11.352425"><ele>445.0</ele><time>2026-05-03T11:29:11.651Z</time></trkpt><trkpt lat="43.40274" lon="11.3524483"><ele>445.0</ele><time>2026-05-03T11:29:12.652Z</time></trkpt><trkpt lat="43.402935" lon="11.3524983"><ele>445.0</ele><time>2026-05-03T11:29:13.651Z</time></trkpt><trkpt lat="43.4031333" lon="11.3525483"><ele>445.0</ele><time>2026-05-03T11:29:14.652Z</time></trkpt><trkpt lat="43.4033317" lon="11.3526017"><ele>447.0</ele><time>2026-05-03T11:29:15.652Z</time></trkpt><trkpt lat="43.4035067" lon="11.3526683"><ele>449.0</ele><time>2026-05-03T11:29:16.651Z</time></trkpt><trkpt lat="43.4036517" lon="11.3527317"><ele>451.0</ele><time>2026-05-03T11:29:17.651Z</time></trkpt><trkpt lat="43.4037933" lon="11.3527433"><ele>452.0</ele><time>2026-05-03T11:29:18.652Z</time></trkpt><trkpt lat="43.4039233" lon="11.352685"><ele>453.0</ele><time>2026-05-03T11:29:19.651Z</time></trkpt><trkpt lat="43.4040733" lon="11.3526017"><ele>454.0</ele><time>2026-05-03T11:29:20.651Z</time></trkpt><trkpt lat="43.4042283" lon="11.35255"><ele>454.0</ele><time>2026-05-03T11:29:21.652Z</time></trkpt><trkpt lat="43.4045583" lon="11.352565"><ele>454.0</ele><time>2026-05-03T11:29:23.651Z</time></trkpt><trkpt lat="43.404735" lon="11.352545"><ele>455.0</ele><time>2026-05-03T11:29:24.651Z</time></trkpt><trkpt lat="43.4049067" lon="11.35251"><ele>456.0</ele><time>2026-05-03T11:29:25.651Z</time></trkpt><trkpt lat="43.4050983" lon="11.3524683"><ele>457.0</ele><time>2026-05-03T11:29:26.651Z</time></trkpt><trkpt lat="43.4052833" lon="11.35243"><ele>457.0</ele><time>2026-05-03T11:29:27.652Z</time></trkpt><trkpt lat="43.405465" lon="11.3523967"><ele>457.0</ele><time>2026-05-03T11:29:28.651Z</time></trkpt><trkpt lat="43.4056467" lon="11.352375"><ele>457.0</ele><time>2026-05-03T11:29:29.652Z</time></trkpt><trkpt lat="43.405845" lon="11.35235"><ele>457.6666666666667</ele><time>2026-05-03T11:29:30.651Z</time></trkpt><trkpt lat="43.4060367" lon="11.352325"><ele>458.33333333333337</ele><time>2026-05-03T11:29:31.651Z</time></trkpt><trkpt lat="43.406225" lon="11.3522917"><ele>459.0</ele><time>2026-05-03T11:29:32.652Z</time></trkpt><trkpt lat="43.4064117" lon="11.3522117"><ele>460.0</ele><time>2026-05-03T11:29:33.651Z</time></trkpt><trkpt lat="43.4065717" lon="11.3521067"><ele>461.0</ele><time>2026-05-03T11:29:34.652Z</time></trkpt><trkpt lat="43.4067367" lon="11.3519367"><ele>462.0</ele><time>2026-05-03T11:29:35.651Z</time></trkpt><trkpt lat="43.406875" lon="11.3517433"><ele>462.0</ele><time>2026-05-03T11:29:36.651Z</time></trkpt><trkpt lat="43.4070067" lon="11.351575"><ele>462.0</ele><time>2026-05-03T11:29:37.652Z</time></trkpt><trkpt lat="43.4071533" lon="11.3514783"><ele>462.0</ele><time>2026-05-03T11:29:38.652Z</time></trkpt><trkpt lat="43.4073033" lon="11.3514283"><ele>464.0</ele><time>2026-05-03T11:29:39.652Z</time></trkpt><trkpt lat="43.4074683" lon="11.3514083"><ele>466.0</ele><time>2026-05-03T11:29:40.651Z</time></trkpt><trkpt lat="43.4076317" lon="11.3514383"><ele>468.0</ele><time>2026-05-03T11:29:41.652Z</time></trkpt><trkpt lat="43.4077983" lon="11.3515083"><ele>468.0</ele><time>2026-05-03T11:29:42.652Z</time></trkpt><trkpt lat="43.4079483" lon="11.35159"><ele>468.0</ele><time>2026-05-03T11:29:43.652Z</time></trkpt><trkpt lat="43.4080733" lon="11.3516517"><ele>468.0</ele><time>2026-05-03T11:29:44.651Z</time></trkpt><trkpt lat="43.408205" lon="11.351665"><ele>468.0</ele><time>2026-05-03T11:29:45.651Z</time></trkpt><trkpt lat="43.40835" lon="11.351615"><ele>469.33333333333337</ele><time>2026-05-03T11:29:46.651Z</time></trkpt><trkpt lat="43.4085033" lon="11.35155"><ele>470.6666666666667</ele><time>2026-05-03T11:29:47.651Z</time></trkpt><trkpt lat="43.40866" lon="11.3515067"><ele>472.0</ele><time>2026-05-03T11:29:48.651Z</time></trkpt><trkpt lat="43.4088133" lon="11.35152"><ele>473.0</ele><time>2026-05-03T11:29:49.652Z</time></trkpt><trkpt lat="43.408975" lon="11.351585"><ele>474.0</ele><time>2026-05-03T11:29:50.652Z</time></trkpt><trkpt lat="43.4091533" lon="11.3516833"><ele>475.0</ele><time>2026-05-03T11:29:51.652Z</time></trkpt><trkpt lat="43.4093283" lon="11.3517767"><ele>475.0</ele><time>2026-05-03T11:29:52.652Z</time></trkpt><trkpt lat="43.4095183" lon="11.351875"><ele>475.0</ele><time>2026-05-03T11:29:53.651Z</time></trkpt><trkpt lat="43.40969" lon="11.3519867"><ele>475.0</ele><time>2026-05-03T11:29:54.652Z</time></trkpt><trkpt lat="43.4098433" lon="11.352115"><ele>473.5</ele><time>2026-05-03T11:29:55.652Z</time></trkpt><trkpt lat="43.4099783" lon="11.3522083"><ele>472.0</ele><time>2026-05-03T11:29:56.651Z</time></trkpt><trkpt lat="43.41009" lon="11.3522767"><ele>470.5</ele><time>2026-05-03T11:29:57.652Z</time></trkpt><trkpt lat="43.4102217" lon="11.3523317"><ele>469.0</ele><time>2026-05-03T11:29:58.652Z</time></trkpt><trkpt lat="43.410365" lon="11.35233"><ele>469.6666666666667</ele><time>2026-05-03T11:29:59.651Z</time></trkpt><trkpt lat="43.410525" lon="11.3523017"><ele>470.33333333333337</ele><time>2026-05-03T11:30:00.652Z</time></trkpt><trkpt lat="43.410695" lon="11.3522517"><ele>471.0</ele><time>2026-05-03T11:30:01.652Z</time></trkpt><trkpt lat="43.4108617" lon="11.3521983"><ele>471.0</ele><time>2026-05-03T11:30:02.651Z</time></trkpt><trkpt lat="43.4110467" lon="11.3521367"><ele>471.0</ele><time>2026-05-03T11:30:03.652Z</time></trkpt><trkpt lat="43.4112517" lon="11.3520783"><ele>471.0</ele><time>2026-05-03T11:30:04.652Z</time></trkpt><trkpt lat="43.4114783" lon="11.3520217"><ele>469.66666666666663</ele><time>2026-05-03T11:30:05.651Z</time></trkpt><trkpt lat="43.4116917" lon="11.35195"><ele>468.3333333333333</ele><time>2026-05-03T11:30:06.651Z</time></trkpt><trkpt lat="43.4119033" lon="11.35189"><ele>467.0</ele><time>2026-05-03T11:30:07.652Z</time></trkpt><trkpt lat="43.4121117" lon="11.3518417"><ele>468.66666666666663</ele><time>2026-05-03T11:30:08.652Z</time></trkpt><trkpt lat="43.4123017" lon="11.35179"><ele>470.33333333333337</ele><time>2026-05-03T11:30:09.651Z</time></trkpt><trkpt lat="43.4124867" lon="11.351745"><ele>472.0</ele><time>2026-05-03T11:30:10.651Z</time></trkpt><trkpt lat="43.4126533" lon="11.3516833"><ele>472.0</ele><time>2026-05-03T11:30:11.652Z</time></trkpt><trkpt lat="43.4128133" lon="11.3516017"><ele>472.0</ele><time>2026-05-03T11:30:12.651Z</time></trkpt><trkpt lat="43.4129567" lon="11.3514667"><ele>472.0</ele><time>2026-05-03T11:30:13.652Z</time></trkpt><trkpt lat="43.41309" lon="11.3512833"><ele>474.6666666666667</ele><time>2026-05-03T11:30:14.652Z</time></trkpt><trkpt lat="43.4132267" lon="11.3510967"><ele>477.33333333333337</ele><time>2026-05-03T11:30:15.651Z</time></trkpt><trkpt lat="43.4133533" lon="11.3509017"><ele>480.0</ele><time>2026-05-03T11:30:16.651Z</time></trkpt><trkpt lat="43.4134767" lon="11.35073"><ele>480.0</ele><time>2026-05-03T11:30:17.652Z</time></trkpt><trkpt lat="43.4135967" lon="11.3505817"><ele>480.0</ele><time>2026-05-03T11:30:18.651Z</time></trkpt><trkpt lat="43.4137017" lon="11.3504567"><ele>480.0</ele><time>2026-05-03T11:30:19.651Z</time></trkpt><trkpt lat="43.41381" lon="11.3503633"><ele>480.0</ele><time>2026-05-03T11:30:20.652Z</time></trkpt><trkpt lat="43.4139183" lon="11.35032"><ele>483.5</ele><time>2026-05-03T11:30:21.651Z</time></trkpt><trkpt lat="43.41403" lon="11.3503367"><ele>487.0</ele><time>2026-05-03T11:30:22.651Z</time></trkpt><trkpt lat="43.4141433" lon="11.3503783"><ele>490.5</ele><time>2026-05-03T11:30:23.651Z</time></trkpt><trkpt lat="43.414265" lon="11.350435"><ele>494.0</ele><time>2026-05-03T11:30:24.651Z</time></trkpt><trkpt lat="43.41438" lon="11.3504583"><ele>494.0</ele><time>2026-05-03T11:30:25.652Z</time></trkpt><trkpt lat="43.4144767" lon="11.3504517"><ele>494.0</ele><time>2026-05-03T11:30:26.651Z</time></trkpt><trkpt lat="43.4145517" lon="11.35041"><ele>494.0</ele><time>2026-05-03T11:30:27.651Z</time></trkpt><trkpt lat="43.4146267" lon="11.350335"><ele>494.0</ele><time>2026-05-03T11:30:28.651Z</time></trkpt><trkpt lat="43.4146933" lon="11.3502217"><ele>494.0</ele><time>2026-05-03T11:30:29.651Z</time></trkpt><trkpt lat="43.414705" lon="11.3500117"><ele>492.5</ele><time>2026-05-03T11:30:30.651Z</time></trkpt><trkpt lat="43.4146967" lon="11.34982"><ele>491.0</ele><time>2026-05-03T11:30:31.652Z</time></trkpt><trkpt lat="43.414745" lon="11.3492467"><ele>491.0</ele><time>2026-05-03T11:30:34.651Z</time></trkpt><trkpt lat="43.4148067" lon="11.3490883"><ele>491.0</ele><time>2026-05-03T11:30:35.652Z</time></trkpt><trkpt lat="43.4149" lon="11.3489533"><ele>491.0</ele><time>2026-05-03T11:30:36.652Z</time></trkpt><trkpt lat="43.4150167" lon="11.3488517"><ele>491.0</ele><time>2026-05-03T11:30:37.651Z</time></trkpt><trkpt lat="43.415145" lon="11.34879"><ele>490.75</ele><time>2026-05-03T11:30:38.651Z</time></trkpt><trkpt lat="43.415265" lon="11.3487667"><ele>490.5</ele><time>2026-05-03T11:30:39.651Z</time></trkpt><trkpt lat="43.415395" lon="11.3488033"><ele>490.25</ele><time>2026-05-03T11:30:40.652Z</time></trkpt><trkpt lat="43.4155383" lon="11.3488617"><ele>490.0</ele><time>2026-05-03T11:30:41.651Z</time></trkpt><trkpt lat="43.4156967" lon="11.3489017"><ele>490.0</ele><time>2026-05-03T11:30:42.651Z</time></trkpt><trkpt lat="43.41587" lon="11.3489017"><ele>490.0</ele><time>2026-05-03T11:30:43.652Z</time></trkpt><trkpt lat="43.4160467" lon="11.3488667"><ele>490.0</ele><time>2026-05-03T11:30:44.651Z</time></trkpt><trkpt lat="43.4162033" lon="11.3488383"><ele>493.75</ele><time>2026-05-03T11:30:45.651Z</time></trkpt><trkpt lat="43.4163617" lon="11.34882"><ele>497.5</ele><time>2026-05-03T11:30:46.651Z</time></trkpt><trkpt lat="43.4165133" lon="11.3487967"><ele>501.25</ele><time>2026-05-03T11:30:47.652Z</time></trkpt><trkpt lat="43.4166483" lon="11.3487583"><ele>505.0</ele><time>2026-05-03T11:30:48.652Z</time></trkpt><trkpt lat="43.4167833" lon="11.3487333"><ele>505.0</ele><time>2026-05-03T11:30:49.651Z</time></trkpt><trkpt lat="43.4168983" lon="11.3487"><ele>505.0</ele><time>2026-05-03T11:30:50.652Z</time></trkpt><trkpt lat="43.4170017" lon="11.348665"><ele>505.0</ele><time>2026-05-03T11:30:51.652Z</time></trkpt><trkpt lat="43.4170933" lon="11.3486067"><ele>505.0</ele><time>2026-05-03T11:30:52.652Z</time></trkpt><trkpt lat="43.417165" lon="11.3485233"><ele>505.0</ele><time>2026-05-03T11:30:53.651Z</time></trkpt><trkpt lat="43.417215" lon="11.3484017"><ele>506.5</ele><time>2026-05-03T11:30:54.651Z</time></trkpt><trkpt lat="43.41723" lon="11.3482567"><ele>508.0</ele><time>2026-05-03T11:30:55.652Z</time></trkpt><trkpt lat="43.4172133" lon="11.3481033"><ele>509.5</ele><time>2026-05-03T11:30:56.651Z</time></trkpt><trkpt lat="43.41718" lon="11.347945"><ele>511.0</ele><time>2026-05-03T11:30:57.651Z</time></trkpt><trkpt lat="43.41715" lon="11.3477917"><ele>511.0</ele><time>2026-05-03T11:30:58.652Z</time></trkpt><trkpt lat="43.4171417" lon="11.3476317"><ele>511.0</ele><time>2026-05-03T11:30:59.652Z</time></trkpt><trkpt lat="43.4171667" lon="11.3474717"><ele>511.0</ele><time>2026-05-03T11:31:00.652Z</time></trkpt><trkpt lat="43.4172217" lon="11.3473283"><ele>511.0</ele><time>2026-05-03T11:31:01.651Z</time></trkpt><trkpt lat="43.41731" lon="11.3472"><ele>511.0</ele><time>2026-05-03T11:31:02.651Z</time></trkpt><trkpt lat="43.417425" lon="11.3470717"><ele>511.0</ele><time>2026-05-03T11:31:03.652Z</time></trkpt><trkpt lat="43.4175583" lon="11.34693"><ele>511.0</ele><time>2026-05-03T11:31:04.651Z</time></trkpt><trkpt lat="43.4177" lon="11.3468017"><ele>511.0</ele><time>2026-05-03T11:31:05.652Z</time></trkpt><trkpt lat="43.417845" lon="11.3466983"><ele>511.0</ele><time>2026-05-03T11:31:06.651Z</time></trkpt><trkpt lat="43.4179967" lon="11.346615"><ele>511.0</ele><time>2026-05-03T11:31:07.652Z</time></trkpt><trkpt lat="43.4181617" lon="11.34654"><ele>507.0</ele><time>2026-05-03T11:31:08.651Z</time></trkpt><trkpt lat="43.418325" lon="11.3464867"><ele>503.0</ele><time>2026-05-03T11:31:09.652Z</time></trkpt><trkpt lat="43.4184833" lon="11.3464467"><ele>499.0</ele><time>2026-05-03T11:31:10.651Z</time></trkpt><trkpt lat="43.418635" lon="11.34643"><ele>499.0</ele><time>2026-05-03T11:31:11.651Z</time></trkpt><trkpt lat="43.418775" lon="11.3464367"><ele>499.0</ele><time>2026-05-03T11:31:12.652Z</time></trkpt><trkpt lat="43.4189083" lon="11.3464833"><ele>499.0</ele><time>2026-05-03T11:31:13.651Z</time></trkpt><trkpt lat="43.4190333" lon="11.3465917"><ele>499.0</ele><time>2026-05-03T11:31:14.651Z</time></trkpt><trkpt lat="43.419145" lon="11.3467083"><ele>499.5</ele><time>2026-05-03T11:31:15.651Z</time></trkpt><trkpt lat="43.41926" lon="11.3468317"><ele>500.0</ele><time>2026-05-03T11:31:16.652Z</time></trkpt><trkpt lat="43.41938" lon="11.3469133"><ele>500.5</ele><time>2026-05-03T11:31:17.652Z</time></trkpt><trkpt lat="43.4195" lon="11.3469633"><ele>501.0</ele><time>2026-05-03T11:31:18.652Z</time></trkpt><trkpt lat="43.4196183" lon="11.3469783"><ele>502.5</ele><time>2026-05-03T11:31:19.651Z</time></trkpt><trkpt lat="43.41975" lon="11.34696"><ele>504.0</ele><time>2026-05-03T11:31:20.651Z</time></trkpt><trkpt lat="43.4198733" lon="11.3469433"><ele>505.5</ele><time>2026-05-03T11:31:21.652Z</time></trkpt><trkpt lat="43.4199917" lon="11.3469667"><ele>507.0</ele><time>2026-05-03T11:31:22.652Z</time></trkpt><trkpt lat="43.4201033" lon="11.347005"><ele>507.0</ele><time>2026-05-03T11:31:23.652Z</time></trkpt><trkpt lat="43.4202217" lon="11.34708"><ele>507.0</ele><time>2026-05-03T11:31:24.651Z</time></trkpt><trkpt lat="43.4203283" lon="11.3471633"><ele>507.0</ele><time>2026-05-03T11:31:25.651Z</time></trkpt><trkpt lat="43.4204317" lon="11.3472283"><ele>507.0</ele><time>2026-05-03T11:31:26.651Z</time></trkpt><trkpt lat="43.420535" lon="11.3472667"><ele>505.8</ele><time>2026-05-03T11:31:27.652Z</time></trkpt><trkpt lat="43.4206417" lon="11.3472767"><ele>504.6</ele><time>2026-05-03T11:31:28.652Z</time></trkpt><trkpt lat="43.42075" lon="11.3472783"><ele>503.40000000000003</ele><time>2026-05-03T11:31:29.651Z</time></trkpt><trkpt lat="43.4208667" lon="11.34727"><ele>502.20000000000005</ele><time>2026-05-03T11:31:30.651Z</time></trkpt><trkpt lat="43.4209817" lon="11.3473"><ele>501.0</ele><time>2026-05-03T11:31:31.651Z</time></trkpt><trkpt lat="43.4210933" lon="11.3473167"><ele>501.0</ele><time>2026-05-03T11:31:32.651Z</time></trkpt><trkpt lat="43.421185" lon="11.3473583"><ele>501.0</ele><time>2026-05-03T11:31:33.651Z</time></trkpt><trkpt lat="43.4212633" lon="11.3474133"><ele>501.0</ele><time>2026-05-03T11:31:34.652Z</time></trkpt><trkpt lat="43.4213233" lon="11.3474883"><ele>501.0</ele><time>2026-05-03T11:31:35.652Z</time></trkpt><trkpt lat="43.4213717" lon="11.3475733"><ele>501.0</ele><time>2026-05-03T11:31:36.651Z</time></trkpt><trkpt lat="43.421405" lon="11.3476633"><ele>501.0</ele><time>2026-05-03T11:31:37.652Z</time></trkpt><trkpt lat="43.4214167" lon="11.3477583"><ele>501.0</ele><time>2026-05-03T11:31:38.652Z</time></trkpt><trkpt lat="43.42142" lon="11.34788"><ele>501.0</ele><time>2026-05-03T11:31:39.652Z</time></trkpt><trkpt lat="43.4214167" lon="11.3480183"><ele>501.0</ele><time>2026-05-03T11:31:40.651Z</time></trkpt><trkpt lat="43.4214033" lon="11.3481583"><ele>501.0</ele><time>2026-05-03T11:31:41.651Z</time></trkpt><trkpt lat="43.4213833" lon="11.3483117"><ele>501.0</ele><time>2026-05-03T11:31:42.651Z</time></trkpt><trkpt lat="43.4213567" lon="11.3484483"><ele>501.6</ele><time>2026-05-03T11:31:43.651Z</time></trkpt><trkpt lat="43.4213317" lon="11.3485917"><ele>502.20000000000005</ele><time>2026-05-03T11:31:44.651Z</time></trkpt><trkpt lat="43.4213133" lon="11.3487383"><ele>502.79999999999995</ele><time>2026-05-03T11:31:45.651Z</time></trkpt><trkpt lat="43.42131" lon="11.3488867"><ele>503.4</ele><time>2026-05-03T11:31:46.651Z</time></trkpt><trkpt lat="43.421315" lon="11.34903"><ele>504.0</ele><time>2026-05-03T11:31:47.651Z</time></trkpt><trkpt lat="43.4213183" lon="11.3491567"><ele>503.0</ele><time>2026-05-03T11:31:48.651Z</time></trkpt><trkpt lat="43.4213317" lon="11.349275"><ele>502.0</ele><time>2026-05-03T11:31:49.65Z</time></trkpt><trkpt lat="43.4213433" lon="11.3493767"><ele>501.0</ele><time>2026-05-03T11:31:50.652Z</time></trkpt><trkpt lat="43.42137" lon="11.3494683"><ele>500.0</ele><time>2026-05-03T11:31:51.651Z</time></trkpt><trkpt lat="43.421415" lon="11.349585"><ele>499.0</ele><time>2026-05-03T11:31:53.651Z</time></trkpt><trkpt lat="43.421395" lon="11.34971"><ele>498.0</ele><time>2026-05-03T11:31:56.651Z</time></trkpt><trkpt lat="43.4213233" lon="11.3497783"><ele>494.3333333333333</ele><time>2026-05-03T11:31:58.652Z</time></trkpt><trkpt lat="43.4212483" lon="11.3498067"><ele>490.66666666666663</ele><time>2026-05-03T11:32:00.651Z</time></trkpt><trkpt lat="43.4211733" lon="11.3497583"><ele>487.0</ele><time>2026-05-03T11:32:02.652Z</time></trkpt><trkpt lat="43.4211" lon="11.3497183"><ele>483.3333333333333</ele><time>2026-05-03T11:32:04.651Z</time></trkpt><trkpt lat="43.4210217" lon="11.3497183"><ele>479.66666666666663</ele><time>2026-05-03T11:32:06.651Z</time></trkpt><trkpt lat="43.42092" lon="11.3497733"><ele>476.0</ele><time>2026-05-03T11:32:08.651Z</time></trkpt><trkpt lat="43.4208717" lon="11.3498683"><ele>476.0</ele><time>2026-05-03T11:32:10.651Z</time></trkpt><trkpt lat="43.42087" lon="11.3499817"><ele>476.0</ele><time>2026-05-03T11:32:13.651Z</time></trkpt><trkpt lat="43.4209133" lon="11.3500633"><ele>476.0</ele><time>2026-05-03T11:32:18.651Z</time></trkpt></trkseg></trk></gpx>